[[{"header":{"parameterUnit":"m.s-1","parameterCategory":1,"la1":30.6,"la2":29.2853,"lo1":-89.7004,"lo2":-87.6739,"dy":0.0162,"dx":0.0183,"nx":112,"ny":82,"refTime":"2024-09-02T00:00:00:Z","depth":0,"parameterNumber":2,"parameterNumberName":"U-component_of_WINDS"},"data":[0.0,0.0,0.0,0.0,0.0,0.0,0.0,0.0,0.0,0.0,0.0,0.0,0.0,0.0,0.0,0.0,0.0,0.0,0.0,0.0,0.0,0.0,0.0,0.0,0.0,0.0,0.0,0.0,0.0,0.0,0.0,0.0,0.0,0.0,0.0,0.0,0.0,0.0,0.0,0.0,0.0,0.0,0.0,0.0,0.0,0.0,0.0,0.0,0.0,0.0,0.0,0.0,0.0,0.0,0.0,0.0,0.0,0.0,0.0,0.0,0.0,0.0,0.0,0.0,0.0,0.0,0.0,0.0,0.0,0.0,0.0,0.0,0.0,0.0,0.0,0.0,0.0,0.0,0.0,0.0,0.0,0.0,0.0,0.0,0.0,0.0,0.0,0.0,0.0,0.0,0.7471,0.9377,1.2858,1.6026,1.8484,1.9171,1.8697,1.6893,0.0,0.0,0.0,0.0,0.0,0.0,0.0,0.0,0.0,0.0,0.0,0.0,0.0,0.0,0.0,0.0,0.0,0.0,0.0,0.0,0.0,0.0,0.0,0.0,0.0,0.0,0.0,0.0,0.0,0.0,0.0,0.0,0.0,0.0,0.0,0.0,0.0,0.0,0.0,0.0,0.0,0.0,0.0,0.0,0.0,0.0,0.0,0.0,0.0,0.0,0.0,0.0,0.0,0.0,0.0,0.0,0.0,0.0,0.0,0.0,0.0,0.0,0.0,0.0,0.0,0.0,0.0,0.0,0.0,0.0,0.0,0.0,0.0,0.0,0.0,0.0,0.0,0.0,0.0,0.0,0.0,0.0,0.0,0.0,0.0,0.0,0.0,0.0,0.0,0.0,0.0,0.0,0.0,0.0,0.0,0.0,0.0,0.0,0.0,0.0,0.0,0.0,0.0,0.0,0.8801,1.2777,1.439,1.6133,1.8491,1.9343,1.9123,1.7708,0.0,0.0,0.0,0.0,0.0,0.0,0.0,0.0,0.0,0.0,0.0,0.0,0.0,0.0,0.0,0.0,0.0,0.0,0.0,0.0,0.0,0.0,0.0,0.0,0.0,0.0,0.0,0.0,0.0,0.0,0.0,0.0,0.0,0.0,0.0,0.0,0.0,0.0,0.0,0.0,0.0,0.0,0.0,0.0,0.0,0.0,0.0,0.0,0.0,0.0,0.0,0.0,0.0,0.0,0.0,0.0,0.0,0.0,0.0,0.0,0.0,0.0,0.0,0.0,0.0,0.0,0.0,0.0,0.0,0.0,0.0,0.0,0.0,0.0,0.0,0.0,0.0,0.0,0.0,0.0,0.0,0.0,0.0,0.0,0.0,0.0,0.0,0.0,0.0,0.0,0.0,0.0,0.0,0.0,0.0,0.0,0.0,0.0,0.0,0.0,0.0,0.0,0.0,0.9156,1.1283,1.4715,1.5635,1.662,1.8142,1.8883,1.8715,1.7445,1.5881,0.0,0.0,0.0,0.0,0.0,0.0,0.0,0.0,0.0,0.0,0.0,0.0,0.0,0.0,0.0,0.0,0.0,0.0,0.0,0.0,0.0,0.0,0.0,0.0,0.0,0.0,0.0,0.0,0.0,0.0,0.0,0.0,0.0,0.0,0.0,0.0,0.0,0.0,0.0,0.0,0.0,0.0,0.0,0.0,0.0,0.0,0.0,0.0,0.0,0.0,0.0,0.0,0.0,0.0,0.0,0.0,0.0,0.0,0.0,0.0,0.0,0.0,0.0,0.0,0.0,0.0,0.0,0.0,0.0,0.0,0.0,0.0,0.0,0.0,0.0,0.0,0.0,0.0,0.0,0.0,0.0,0.0,0.0,0.0,0.0,0.0,0.0,0.0,0.0,0.0,0.0,0.0,0.0,0.0,0.0,0.0,0.0,0.0,0.0,0.0,0.0,0.0,1.1508,1.3382,1.5702,1.6315,1.6885,1.7705,1.8251,1.8222,1.7421,1.601,0.0,0.0,0.0,0.0,0.0,0.0,0.0,0.0,0.0,0.0,0.0,0.0,0.0,0.0,0.0,0.0,0.0,0.0,0.0,0.0,0.0,0.0,0.0,0.0,0.0,0.0,0.0,0.0,0.0,0.0,0.0,0.0,0.0,0.0,0.0,0.0,0.0,0.0,0.0,0.0,0.0,0.0,0.0,0.0,0.0,0.0,0.0,0.0,0.0,0.0,0.0,0.0,0.0,0.0,0.0,0.0,0.0,0.0,0.0,0.0,0.0,0.0,0.0,0.0,0.0,0.0,0.0,0.0,0.0,0.0,0.0,0.0,0.0,0.0,0.0,0.0,0.0,0.0,0.0,0.0,0.0,0.0,0.0,0.0,0.0,0.0,0.0,0.0,0.0,0.0,0.0,0.0,0.0,0.0,0.0,0.0,0.0,0.0,0.0,0.0,0.0,0.0,1.2786,1.4217,1.5666,1.6012,1.6501,1.7355,1.7693,1.8048,1.8457,1.6821,0.0,0.0,0.0,0.0,0.0,0.0,0.0,0.0,0.0,0.0,0.0,0.0,0.0,0.0,0.0,0.0,0.0,0.0,0.0,0.0,0.0,0.0,0.0,0.0,0.0,0.0,0.0,0.0,0.0,0.0,0.0,0.0,0.0,0.0,0.0,0.0,0.0,0.0,0.0,0.0,0.0,0.0,0.0,0.0,0.0,0.0,0.0,0.0,0.0,0.0,0.0,0.0,0.0,0.0,0.0,0.0,0.0,0.0,0.0,0.0,0.0,0.0,0.0,0.0,0.0,0.0,0.0,0.0,0.0,0.0,0.0,0.0,0.0,0.0,0.0,0.0,0.0,0.0,0.0,0.0,0.0,0.0,0.0,0.0,0.0,0.0,0.0,0.0,0.0,0.0,0.0,0.0,0.0,0.0,0.0,0.0,0.0,0.0,0.0,0.0,0.0,0.0,1.4296,1.5941,1.7457,1.688,1.6657,1.7273,1.7157,1.7047,1.7049,0.0,0.0,0.0,0.0,0.0,0.0,0.0,0.0,0.0,0.0,0.0,0.0,0.0,0.0,0.0,0.0,0.0,0.0,0.0,0.0,0.0,0.0,0.0,0.0,0.0,0.0,0.0,0.0,0.0,0.0,0.0,0.0,0.0,0.0,0.0,0.0,0.0,0.0,0.0,0.0,0.0,0.0,0.0,0.0,0.0,0.0,0.0,0.0,0.0,0.0,0.0,0.0,0.0,0.0,0.0,0.0,0.0,0.0,0.0,0.0,0.0,0.0,0.0,0.0,0.0,0.0,0.0,0.0,0.0,0.0,0.0,0.0,0.0,0.0,0.0,0.0,0.0,0.0,0.0,0.0,0.0,0.0,0.0,0.0,0.0,0.0,0.0,0.0,0.0,0.0,0.0,0.0,0.0,0.0,0.0,0.0,0.0,0.0,0.0,0.0,0.0,0.0,1.3573,1.5286,1.6737,1.7828,1.7141,1.6593,1.6578,1.6577,1.6442,1.6141,0.0,0.0,0.0,0.0,0.0,0.0,0.0,0.0,0.0,0.0,0.0,0.0,0.0,0.0,0.0,0.0,0.0,0.0,0.0,0.0,0.0,0.0,0.0,0.0,0.0,0.0,0.0,0.0,0.0,0.0,0.0,0.0,0.0,0.0,0.0,0.0,0.0,0.0,0.0,0.0,0.0,0.0,0.0,0.0,0.0,0.0,0.0,0.0,0.0,0.0,0.0,0.0,0.0,0.0,0.0,0.0,0.0,0.0,0.0,0.0,0.0,0.0,0.0,0.0,0.0,0.0,0.0,0.0,0.0,0.0,0.0,0.0,0.0,0.0,0.0,0.0,0.0,0.0,0.0,0.0,0.0,0.0,0.0,0.0,0.0,0.0,0.0,0.0,0.0,0.0,0.0,0.0,0.0,0.0,0.0,0.0,0.0,0.0,0.0,0.0,0.0,0.0,1.4193,1.5544,1.6288,1.6318,1.649,1.6165,1.5101,1.5916,1.6403,0.0,0.0,0.0,0.0,0.0,0.0,0.0,0.0,0.0,0.0,0.0,0.0,0.0,0.0,0.0,0.0,0.0,0.0,0.0,0.0,0.0,0.0,0.0,0.0,0.0,0.0,0.0,0.0,0.0,0.0,0.0,0.0,0.0,0.0,0.0,0.0,0.0,0.0,0.0,0.0,0.0,0.0,0.0,0.0,0.0,0.0,0.0,0.0,0.0,0.0,0.0,0.0,0.0,0.0,0.0,0.0,0.0,0.0,0.0,0.0,0.0,0.0,0.0,0.0,0.0,0.0,0.0,0.0,0.0,0.0,0.0,0.0,0.0,0.0,0.0,0.0,0.0,0.0,0.0,0.0,0.0,0.0,0.0,0.0,0.0,0.0,0.0,0.0,0.0,0.0,0.0,0.0,0.0,0.0,0.0,0.0,0.0,0.0,0.0,0.0,0.0,0.0,0.0,1.4748,1.6142,1.715,1.7655,1.7027,1.6392,1.5885,1.5729,1.5511,1.517,0.0,0.0,0.0,0.0,0.0,0.0,0.0,0.0,0.0,0.0,0.0,0.0,0.0,0.0,0.0,0.0,0.0,0.0,0.0,0.0,0.0,0.0,0.0,0.0,0.0,0.0,0.0,0.0,0.0,0.0,0.0,0.0,0.0,0.0,0.0,0.0,0.0,0.0,0.0,0.0,0.0,0.0,0.0,0.0,0.0,0.0,0.0,0.0,0.0,0.0,0.0,0.0,0.0,0.0,0.0,0.0,0.0,0.0,0.0,0.0,0.0,0.0,0.0,0.0,0.0,0.0,0.0,0.0,0.0,0.0,0.0,0.0,0.0,0.0,0.0,0.0,0.0,0.0,0.0,0.0,0.0,0.0,0.0,0.0,0.0,0.0,0.0,0.0,0.0,0.0,0.0,0.0,0.0,0.0,0.0,0.0,0.0,0.0,0.0,0.0,0.0,0.0,1.5367,1.6582,1.7365,1.7773,1.7027,1.6261,1.5724,1.5364,1.5037,1.4681,0.0,0.0,0.0,0.0,0.0,0.0,0.0,0.0,0.0,0.0,0.0,0.0,0.0,0.0,0.0,0.0,0.0,0.0,0.0,0.0,0.0,0.0,0.0,0.0,0.0,0.0,0.0,0.0,0.0,0.0,0.0,0.0,0.0,0.0,0.0,0.0,0.0,0.0,0.0,0.0,0.0,0.0,0.0,0.0,0.0,0.0,0.0,0.0,0.0,0.0,0.0,0.0,0.0,0.0,0.0,0.0,0.0,0.0,0.0,0.0,0.0,0.0,0.0,0.0,0.0,0.0,0.0,0.0,0.0,0.0,0.0,0.0,0.0,0.0,0.0,0.0,0.0,0.0,0.0,0.0,0.0,0.0,0.0,0.0,0.0,0.0,0.0,0.0,0.0,0.0,0.0,0.0,0.0,0.0,0.0,0.0,0.0,0.0,0.0,0.0,0.0,0.0,1.5934,1.6798,1.7136,1.7077,1.6578,1.5878,1.4938,1.4939,1.4881,1.4622,0.0,0.0,0.0,0.0,0.0,0.0,0.0,0.0,0.0,0.0,0.0,0.0,0.0,0.0,0.0,0.0,0.0,0.0,0.0,0.0,0.0,0.0,0.0,0.0,0.0,0.0,0.0,0.0,0.0,0.0,0.0,0.0,0.0,0.0,0.0,0.0,0.0,0.0,0.0,0.0,0.0,0.0,0.0,0.0,0.0,0.0,0.0,0.0,0.0,0.0,0.0,0.0,0.0,0.0,0.0,0.0,0.0,0.0,0.0,0.0,0.2422,0.3896,0.0,0.0,0.0,0.0,0.0,0.0,0.0,0.0,0.0,0.0,0.0,0.0,0.0,0.0,0.0,0.0,0.0,0.0,0.0,0.0,0.0,0.0,0.0,0.0,0.0,0.0,0.0,0.0,0.0,0.0,0.0,0.0,0.0,0.0,0.0,0.0,0.0,0.0,0.0,0.0,1.5929,1.6617,1.6808,1.685,1.6305,1.5544,1.4652,1.4846,1.4881,1.4622,1.3782,0.0,0.0,0.0,0.0,0.0,0.0,0.0,0.0,0.0,0.0,0.0,0.0,0.0,0.0,0.0,0.0,0.0,0.0,0.0,0.0,0.0,0.0,0.0,0.0,0.0,0.0,0.0,0.0,0.0,0.0,0.0,0.0,0.0,0.0,0.0,0.0,0.0,0.0,0.0,0.0,0.0,0.0,0.0,0.0,0.0,0.0,0.0,0.0,0.0,0.0,0.0,0.0,0.0,0.0,0.0,0.0,0.0,0.0,0.0,-0.2153,-0.0556,0.0,0.0,0.0,0.0,0.0,0.0,0.0,0.0,0.0,0.0,0.0,0.0,0.0,0.0,0.0,0.0,0.0,0.0,0.0,0.0,0.0,0.0,0.0,0.0,0.0,0.0,0.0,0.0,0.0,0.0,0.0,0.0,0.0,0.0,0.0,0.0,0.0,0.0,0.0,0.0,1.5591,1.6367,1.6582,1.6266,1.5846,1.521,1.4198,1.4484,1.4641,1.4472,1.3922,0.0,0.0,0.0,0.0,0.0,0.0,0.0,0.0,0.0,0.0,0.0,0.0,0.0,0.0,0.0,0.0,0.0,0.0,0.0,0.0,0.0,0.0,0.0,0.0,0.0,0.0,0.0,0.0,0.0,0.0,0.0,0.0,0.0,0.0,0.0,0.0,0.0,0.0,0.0,0.0,0.0,0.0,0.0,0.0,0.0,0.0,0.0,0.0,0.0,0.0,0.0,0.0,0.0,-0.1312,-0.2068,-0.3512,-0.435,-0.628,-0.8897,-0.6744,-0.5599,-0.5163,-0.3632,0.0,0.0,0.0,0.0,0.0,0.0,0.0,0.0,0.0,0.0,0.0,0.0,0.0,0.0,0.0,0.0,0.0,0.0,0.0,0.0,0.0,0.0,-0.9895,-1.0612,-0.9566,-0.7499,-0.4095,0.0,0.0,0.0,0.0,0.0,0.0,0.0,0.0,0.0,0.0,0.0,1.5201,1.6087,1.6298,1.5771,1.5392,1.4813,1.3861,1.4172,1.4391,1.4349,1.4085,1.4172,0.0,0.0,0.0,0.0,0.0,0.0,0.0,0.0,0.0,0.0,0.0,0.0,0.0,0.0,0.0,0.0,0.0,0.0,0.0,0.0,0.0,0.0,0.0,0.0,0.0,0.0,0.0,0.0,0.0,0.0,0.0,0.0,0.1767,0.282,0.0,0.0,0.0,0.0,0.0,0.0,0.0,0.0,0.0,0.0,0.0,0.0,0.0,-0.007,-0.0072,-0.1169,-0.202,-0.2622,-0.3389,-0.4248,-0.512,-0.6776,-0.8455,-1.0226,-1.1343,0.0,-0.9117,-0.8473,0.0,0.0,0.0,0.0,0.0,0.0,0.0,0.0,0.0,0.0,0.0,0.0,0.0,0.0,0.0,0.0,0.0,0.0,0.0,0.0,0.0,0.0,-1.0995,-1.0828,-1.0182,-0.9116,-0.7544,-0.4512,-0.1499,0.0704,0.2437,0.3978,0.0,0.0,0.0,0.0,0.0,0.0,1.5248,1.5602,1.5796,1.6179,1.5088,1.4304,1.4153,1.4292,1.4445,1.4542,1.4521,1.4737,1.5262,1.4348,0.0,0.0,0.0,0.0,0.0,0.0,0.0,0.0,0.0,0.0,0.0,0.0,0.0,0.0,0.0,0.0,0.0,0.0,0.0,0.0,0.0,0.0,0.0,0.0,0.0,0.0,0.0,0.0,0.0,-0.0303,-0.0064,0.0945,0.0834,0.1497,0.0,0.0,0.0,0.0,0.0,0.0,0.0,0.0,0.0,0.0,-0.0657,-0.0953,-0.0964,-0.2021,-0.2659,-0.299,-0.3838,-0.4621,-0.5525,-0.6696,-0.8441,-1.0517,-1.1231,-1.1609,-1.1647,-1.1274,-1.058,-0.9564,0.0,0.0,0.0,0.0,-1.1158,-1.1939,-1.3665,-1.3832,-1.2974,-1.0798,0.0,0.0,0.0,0.0,0.0,0.0,0.0,-0.9157,-1.006,-1.0524,-1.0638,-1.0257,-0.9806,-0.918,-0.8238,-0.6158,-0.3727,-0.096,0.0593,0.2156,0.4464,0.5776,0.0,0.0,0.0,1.2686,1.4277,1.4766,1.5086,1.5291,1.4411,1.3682,1.333,1.3599,1.389,1.4126,1.44,1.4837,1.5496,1.2029,0.9316,0.0,0.0,0.0,0.0,0.0,0.0,0.0,0.0,0.0,0.0,0.0,0.0,0.0,0.0,0.0,0.0,0.0,0.0,0.0,0.0,0.0,0.0,0.0,0.0,0.0,0.0,0.0,0.0,-0.2436,-0.1858,-0.0845,-0.0802,0.0136,0.0,0.0,0.0,0.0,0.0,0.0,0.0,0.0,0.0,0.0,-0.1062,-0.1586,-0.1586,-0.2625,-0.3099,-0.302,-0.3593,-0.4301,-0.5141,-0.5977,-0.7603,-0.9838,-1.009,-1.11,-1.2647,-1.278,-1.2584,-1.2249,-1.1285,-1.1413,-1.2243,-1.3116,-1.3619,-1.4057,-1.5548,-1.5581,-1.463,-1.2907,-1.0692,-0.8526,-0.7126,0.0,0.0,0.0,0.0,-0.8451,-0.9323,-0.9535,-0.9391,-0.8995,-0.8551,-0.805,-0.7328,-0.6169,-0.4653,-0.2383,-0.0854,0.0841,0.3426,0.4955,0.0,0.8435,1.0386,1.2192,1.3564,1.4151,1.4473,1.4507,1.3888,1.3252,1.2775,1.305,1.3295,1.3362,1.3937,1.4437,1.4788,1.0311,0.6949,0.5083,0.0,0.0,0.0,0.0,0.0,0.0,0.0,0.0,0.0,0.0,0.0,0.0,0.0,0.0,0.0,0.0,0.0,0.0,0.0,0.0,0.0,0.0,0.0,0.0,0.0,0.0,0.0,0.0,0.0,-0.2638,-0.1986,0.0,0.0,0.0,0.0,0.0073,0.0,0.0,0.0,0.0,0.0,0.0,-0.1071,-0.1586,-0.1586,-0.2579,-0.3017,-0.2936,-0.2933,-0.3372,-0.409,-0.5001,-0.6359,-0.8099,-0.8925,-1.0246,-1.1813,-1.2647,-1.2984,-1.2879,-1.2051,-1.175,-1.1826,-1.1903,-1.217,-1.2654,-1.383,-1.4005,-1.3572,-1.3042,-1.054,-0.7603,-0.6688,-0.6446,0.0,0.0,-0.7049,-0.767,-0.7509,-0.7354,-0.7196,-0.6856,-0.6234,-0.5458,-0.4761,-0.399,-0.3478,-0.3623,-0.1575,0.0647,0.207,0.0,0.7255,0.8508,1.0412,1.2201,1.3616,1.3921,1.4189,1.456,1.3808,1.3244,1.3082,1.3145,1.2907,1.2231,1.3158,1.3407,1.2697,1.1142,0.784,0.2584,0.2466,0.0,0.0,0.0,0.0,0.0,0.0,0.0,0.0,0.0,0.0,0.0,0.0,0.0,0.0,0.0,0.0,0.0,0.0,0.0,0.0,0.0,0.0,0.0,0.0,0.0,0.0,0.0,0.0,-0.3765,-0.3701,0.0,-0.1166,-0.0372,0.0,0.0,0.0611,0.1006,0.1006,0.1623,0.2015,0.2033,0.1528,0.1272,0.1324,0.0859,0.0627,0.0678,-0.0474,-0.1146,-0.1467,-0.2935,-0.4259,-0.5429,-0.6282,-0.7376,-0.8515,-0.9388,-1.0898,-1.246,-1.1616,-1.1811,-1.2527,-1.192,-1.2204,-1.2795,-1.2932,-1.2507,-1.1789,-1.0836,-0.943,-0.7957,-0.6914,-0.6306,-0.5973,-0.5734,-0.5488,-0.5359,-0.5611,-0.5681,-0.5397,-0.4677,-0.4252,-0.3865,-0.3164,-0.2384,-0.1802,-0.143,-0.0592,0.0818,0.3193,0.4966,0.6616,0.8429,1.0105,1.1589,1.2966,1.3292,1.3587,1.4149,1.3505,1.3014,1.2979,1.2974,1.2947,1.2825,1.2998,1.2833,1.2202,0.8042,0.3521,-0.1219,-0.3534,-0.5909,0.0,0.0,0.0,0.0,0.0,0.0,0.0,0.0,0.0,0.0,0.0,0.0,0.0,0.0,0.0,0.0,0.0,0.0,0.0,0.0,0.0,0.0,0.0,0.0,0.0,-0.3413,-0.4097,-0.3804,-0.3774,-0.3064,-0.1181,-0.0076,0.0695,0.0995,0.172,0.2132,0.2115,0.2735,0.3124,0.3124,0.2979,0.2981,0.2906,0.2829,0.2753,0.2678,0.1136,0.0267,-0.0067,-0.1538,-0.2739,-0.3597,-0.4199,-0.492,-0.5756,-0.6102,-0.7512,-0.9556,-0.9857,-1.0516,-1.1213,-1.0672,-1.0811,-1.1252,-1.0989,-1.0464,-0.978,-0.8715,-0.7882,-0.7136,-0.6083,-0.5322,-0.4695,-0.4504,-0.399,-0.3559,-0.392,-0.3972,-0.3691,-0.2779,-0.2378,-0.1994,-0.1222,-0.05,0.0279,0.1312,0.1157,0.1572,0.401,0.5274,0.6667,0.8751,1.0026,1.1316,1.2657,1.2951,1.3147,1.3622,1.3095,1.2656,1.25,1.2442,1.2323,1.2168,1.2083,1.1492,1.0311,0.5303,0.0545,-0.3736,-0.7456,-1.0153,-1.1757,0.0,0.0,0.0,0.0,0.0,0.0,0.0,0.0,0.0,0.0,0.0,0.0,0.0,0.0,0.0,0.0,0.0,0.0,0.0,0.0,0.0,0.0,0.0,-0.1137,-0.2231,-0.2746,-0.2744,-0.204,-0.101,0.0151,0.1103,0.2087,0.3051,0.3112,0.312,0.3127,0.3202,0.3202,0.3202,0.3208,0.3131,0.2978,0.297,0.2892,0.2744,0.1809,0.0937,0.0067,-0.0803,-0.1674,-0.2609,-0.2609,-0.3137,-0.3857,-0.3006,-0.3205,-0.4188,-0.6828,-0.7827,-0.7892,-0.7827,-0.7827,-0.7892,-0.7827,-0.7827,-0.7692,-0.6811,-0.5898,-0.5058,-0.4191,-0.3334,-0.2661,-0.265,-0.2514,-0.2441,-0.2364,-0.2231,-0.1895,-0.1166,-0.0444,0.0278,0.0998,0.1724,0.267,0.4097,0.3465,0.302,0.4292,0.5853,0.7577,0.9467,1.0383,0.0,1.2725,1.2985,1.2996,1.2984,1.2622,1.2223,1.1753,1.1521,1.1011,1.0146,1.0341,0.9378,0.6827,0.3364,-0.0518,-0.4844,-0.8717,-1.1318,-1.2507,0.0,0.0,0.0,0.0,0.0,0.0,0.0,0.0,0.0,0.0,0.0,0.0,0.0,0.0,0.0,0.0,0.0,0.0,0.0,0.0,0.0,0.2551,0.2876,0.2246,0.1252,0.05,0.0492,0.0655,0.0886,0.1161,0.2111,0.2833,0.3047,0.3849,0.4247,0.4297,0.5002,0.5392,0.5392,0.5269,0.5135,0.5003,0.488,0.4819,0.4622,0.368,0.3143,0.2872,0.2006,0.107,0.0134,-0.0468,-0.1269,-0.2072,-0.2542,-0.2809,-0.3139,-0.3867,-0.4524,-0.5045,-0.4394,-0.459,-0.4979,-0.4392,-0.459,-0.4979,-0.4061,-0.3602,-0.334,-0.3139,-0.2407,-0.1665,-0.1685,-0.1197,-0.055,0.0,0.0172,0.039,0.1113,0.1447,0.1671,0.1838,0.2885,0.3932,0.4316,0.4959,0.5766,0.6653,0.7572,0.8712,1.0246,1.1107,1.1882,1.2774,1.2985,1.2989,1.2985,1.2628,1.234,1.2234,1.1487,1.0782,1.0122,0.9059,0.752,0.5429,0.2784,-0.1433,-0.7349,-1.1055,-1.3087,0.0,0.0,0.0,0.0,0.0,0.0,0.0,0.0,0.0,0.0,0.0,0.0,0.0,0.0,0.0,0.0,0.0,0.0,0.0,0.0,0.0,0.0,0.3921,0.4541,0.4999,0.3617,0.2482,0.2429,0.2401,0.2513,0.289,0.3431,0.3982,0.4375,0.5002,0.5544,0.6002,0.6553,0.6945,0.6945,0.6851,0.6496,0.5898,0.5752,0.5603,0.5457,0.4442,0.4015,0.3949,0.3078,0.241,0.1876,0.1337,0.0868,0.0334,-0.02,-0.0467,-0.0601,0.0,0.0,0.0,0.0,-0.3008,-0.34,-0.2876,-0.3006,-0.3266,-0.2003,-0.1537,-0.1403,-0.0668,-0.0067,0.0399,0.0388,0.0692,0.1161,0.1597,0.1604,0.173,0.2508,0.2676,0.2841,0.3445,0.4268,0.5035,0.5684,0.646,0.0,0.8049,0.8243,0.8849,1.0559,1.1116,1.1724,1.2774,1.2922,1.295,1.3017,1.2571,1.2205,1.1974,1.1216,0.0,0.0,0.0,0.5545,0.202,-0.0425,0.0,0.0,0.0,0.0,0.0,0.0,0.0,0.0,-1.111,-1.1143,0.0,0.0,0.0,0.0,0.0,0.0,0.0,0.0,0.0,0.0,0.0,0.0,0.0,0.0,0.0,0.0,0.5499,0.6,0.6966,0.5272,0.3875,0.3695,0.3864,0.4259,0.5007,0.5151,0.5619,0.6563,0.6644,0.7022,0.7936,0.7931,0.0,0.0,0.0,0.7466,0.6325,0.6255,0.6037,0.5748,0.4836,0.4303,0.4169,0.3351,0.2945,0.2878,0.2878,0.2811,0.2678,0.2678,0.2678,0.2407,-0.0868,-0.2072,-0.2072,-0.2072,-0.2072,-0.2072,-0.2072,0.0,0.0,-0.02,0.0334,0.0601,0.2207,0.2678,0.2729,0.2715,0.2645,0.2512,0.2604,0.2466,0.2577,0.3456,0.3619,0.3947,0.532,0.5706,0.614,0.745,0.7777,0.8049,0.8699,0.8315,0.86,1.0509,1.0864,1.1375,1.2725,1.2881,1.2907,1.2995,1.2523,0.0,1.1338,1.0794,0.9592,0.7376,0.6367,0.3414,-0.2111,-0.4503,-0.7279,-1.0646,-1.0164,-1.0611,-1.2081,-1.1081,-1.0171,-0.9511,-1.0548,-1.0615,0.0,0.0,0.0,0.0,0.0,0.0,0.0,0.0,0.0,0.0,0.0,0.0,0.0,0.0,0.0,0.5545,0.6397,0.7011,0.7068,0.6672,0.6297,0.6056,0.6737,0.7251,0.7192,0.7918,0.8533,0.8694,0.8689,0.8765,0.8993,0.8998,0.8998,0.8998,0.8998,0.8815,0.8524,0.8481,0.7992,0.695,0.6631,0.0,0.5261,0.5007,0.4486,0.3747,0.3747,0.3347,0.2678,0.2678,0.2678,0.2609,0.1939,0.1671,0.1671,0.1671,0.1671,0.1671,0.1671,0.1671,0.1737,0.2072,0.2207,0.2274,0.2609,0.2678,0.0,0.2715,0.2682,0.2765,0.3271,0.3382,0.3629,0.4805,0.5101,0.532,0.6199,0.6853,0.7343,0.767,0.8156,0.8646,0.8752,0.9152,0.9703,1.0661,1.1266,1.1931,1.2774,1.2881,1.289,1.2898,1.2488,1.1937,1.1269,1.0412,0.9013,0.702,0.3802,0.0471,-0.2965,-0.4107,-0.5818,-0.8216,-0.8144,-0.852,-0.9453,-0.9233,-0.8736,-0.8016,-0.9358,-0.9329,0.0,0.0,0.0,0.0,0.0,0.0,0.0,0.0,0.0,0.0,0.0,0.6217,0.6345,0.0,0.7472,0.7979,0.8167,0.829,0.8803,0.8877,0.8603,0.7754,0.7978,0.838,0.8723,0.9057,0.9296,0.9296,0.9296,0.9523,1.004,1.004,1.004,1.004,1.004,0.9761,0.9204,0.9165,0.8829,0.8212,0.7517,0.6941,0.6456,0.5891,0.5333,0.4787,0.4787,0.4543,0.4082,0.4082,0.4082,0.4082,0.4082,0.348,0.2678,0.2678,0.2678,0.2678,0.2678,0.2678,0.2744,0.3211,0.3347,0.3413,0.3882,0.4082,0.4135,0.4587,0.465,0.4694,0.5468,0.5483,0.5534,0.6335,0.6295,0.6282,0.7225,0.7698,0.8026,0.8415,0.8864,0.9245,0.9245,0.9703,1.0211,1.0744,1.1366,1.208,1.2822,1.2881,1.2774,1.2363,1.2117,1.1583,1.0598,0.8735,0.7041,0.5687,0.2717,0.0054,-0.2093,-0.292,-0.4171,-0.5963,-0.6016,-0.6172,-0.6526,-0.6526,-0.6163,-0.5483,-0.6163,-0.6716,0.0,0.0,0.0,0.0,0.0,0.0,0.0,0.4603,0.6595,0.5972,0.7603,0.9198,0.9314,0.9319,0.9551,1.0502,0.9897,0.9625,1.0443,1.0611,1.0287,0.9521,0.9072,0.9199,1.0027,1.0071,1.0019,0.997,0.997,1.0321,1.1019,1.1087,1.1087,1.1087,1.1087,1.0714,0.99,0.978,0.961,0.9385,0.8432,0.7833,0.7619,0.6805,0.6298,0.6248,0.6248,0.6154,0.5996,0.5996,0.5981,0.5885,0.5885,0.5008,0.3671,0.3345,0.3211,0.3278,0.3407,0.3473,0.3606,0.4472,0.4806,0.4938,0.5679,0.5885,0.6079,0.6785,0.6806,0.6867,0.7504,0.748,0.7307,0.7624,0.7317,0.7262,0.8253,0.847,0.8645,0.9213,0.9626,0.9904,0.9904,1.0416,1.0877,1.0875,1.141,1.208,1.2822,1.2881,1.2676,1.2058,1.1882,1.1266,0.9909,0.7441,0.5562,0.4696,0.2819,0.0995,-0.0606,-0.1265,-0.2196,-0.3512,-0.3566,-0.3566,-0.3566,-0.3566,-0.3244,-0.265,-0.265,-0.3756,0.1734,0.2412,0.3115,0.3141,0.3476,0.3745,0.0,0.5767,0.762,0.7594,0.9259,1.085,1.0985,1.0775,1.0647,1.0731,1.0647,1.0578,1.0636,1.0611,1.0945,1.177,1.164,1.1478,1.1478,1.2238,1.2674,1.2407,1.2387,1.2352,1.2164,1.215,1.215,1.215,1.215,1.2077,1.2003,1.197,1.1495,1.0587,1.0344,0.9791,0.8912,0.8568,0.8464,0.8439,0.8439,0.8314,0.8048,0.8048,0.7935,0.7702,0.7702,0.7567,0.7233,0.5679,0.509,0.5223,0.5997,0.6256,0.6388,0.7237,0.7567,0.7567,0.7702,0.7702,0.7702,0.7832,0.7812,0.7812,0.7731,0.7644,0.7746,0.8356,0.8446,0.8591,0.9388,0.9517,0.9575,0.9633,1.0272,1.0793,1.0793,1.1878,1.2438,1.1411,1.1583,1.208,1.2822,1.2881,1.2881,1.2774,1.2187,1.1266,0.9909,0.8336,0.6886,0.5446,0.4525,0.3094,0.0941,0.0775,0.0332,-0.0496,-0.0496,-0.0496,-0.0496,-0.0496,-0.0441,-0.0386,-0.0386,-0.1217,0.1549,0.211,0.2763,0.353,0.432,0.522,0.6029,0.766,0.9202,0.9929,1.1186,1.2254,1.2268,1.1971,1.1886,1.2596,1.2152,1.1939,1.2534,1.2607,1.2778,1.3294,1.3277,1.3099,1.2826,1.3061,1.316,1.3026,1.3019,1.2959,1.2839,1.2826,1.2746,1.2565,1.2559,1.2478,1.2305,1.2305,1.2077,1.1694,1.1052,1.0483,1.0109,0.9422,0.9015,0.8949,0.8886,0.8703,0.8615,0.8615,0.8559,0.8477,0.8477,0.8477,0.831,0.7268,0.6924,0.699,0.7307,0.7437,0.7502,0.7897,0.8027,0.8027,0.8027,0.8027,0.8091,0.8613,0.8748,0.8854,0.9247,0.9228,0.9187,0.9678,0.9503,0.9369,0.984,0.9933,0.9933,0.9933,1.0766,1.1421,1.1421,1.2538,1.3209,1.2697,1.2748,1.2761,1.2679,1.2445,1.194,1.1191,1.0474,0.9651,0.8666,0.8037,0.723,0.618,0.5475,0.4426,0.3097,0.2607,0.2055,0.1276,0.1276,0.1276,0.1276,0.1276,0.1276,0.1276,0.1276,0.0944,0.2029,0.289,0.3663,0.4745,0.6197,0.7661,0.8725,0.9953,1.122,1.2078,1.302,1.3677,1.3677,1.33,1.3343,1.4236,1.3544,1.3224,1.4117,1.4135,1.4088,1.4088,1.4088,1.4035,1.3901,1.3621,1.342,1.334,1.3327,1.3293,1.3213,1.3213,1.3106,1.2879,1.2872,1.2726,1.2425,1.2425,1.2385,1.2298,1.1545,1.1236,1.1168,1.0496,1.0101,0.9997,0.9807,0.969,0.9628,0.9628,0.9589,0.9528,0.9528,0.9528,0.9483,0.9064,0.8607,0.8271,0.8475,0.8498,0.8516,0.8772,0.8792,0.8737,0.8737,0.8737,0.8871,0.946,0.9658,0.9786,1.0428,1.0401,1.0294,1.0571,1.0295,1.004,1.0485,1.0594,1.0655,1.0831,1.173,1.2443,1.2443,1.3372,1.4087,1.4087,1.3936,1.3652,1.3004,1.2401,1.1437,0.9976,0.9361,0.8791,0.8049,0.7996,0.767,0.6966,0.6416,0.5751,0.5031,0.4494,0.3889,0.3113,0.3113,0.3005,0.2843,0.2843,0.2843,0.2843,0.2843,0.2843,0.3461,0.5336,0.7296,0.7739,0.9676,1.1567,1.1778,1.2796,1.3765,1.3861,1.4622,1.5292,1.5292,1.5137,1.4937,1.4937,1.4696,1.4415,1.4502,1.4262,1.4088,1.4088,1.4088,1.4195,1.4469,1.4229,1.3941,1.3654,1.3627,1.3507,1.3227,1.3213,1.3206,1.32,1.32,1.3046,1.2808,1.2808,1.2585,1.2305,1.2305,1.2224,1.2224,1.2224,1.2218,1.2211,1.2204,1.2045,1.1779,1.1779,1.1613,1.1354,1.1354,1.1354,1.1354,1.1266,1.0209,0.8878,0.9725,0.9849,0.9777,1.0646,1.0724,1.0491,1.0491,1.0491,1.0561,1.0555,1.0561,1.0561,1.0561,1.0618,1.0611,1.0618,1.0611,1.078,1.1571,1.1757,1.2004,1.2749,1.3597,1.4145,1.4145,1.4796,1.5332,1.5332,1.5019,1.459,1.4116,1.3103,1.1809,0.9999,0.9762,0.951,0.8804,0.8752,0.8427,0.7723,0.767,0.7289,0.6583,0.6529,0.6145,0.5429,0.5378,0.5054,0.4408,0.4408,0.4408,0.4408,0.4408,0.4408,0.5827,0.7476,0.9233,1.0202,1.1139,1.2047,1.2989,1.359,1.4166,1.4949,1.5311,1.5337,1.5144,1.503,1.4903,1.4703,1.4583,1.4522,1.4522,1.4436,1.4376,1.4376,1.4549,1.471,1.4803,1.4376,1.4208,1.4496,1.4162,1.3981,1.4075,1.3895,1.3701,1.35,1.35,1.3353,1.306,1.3053,1.3006,1.2906,1.2906,1.2799,1.2599,1.2599,1.2485,1.2305,1.2305,1.2245,1.2158,1.2158,1.2098,1.2004,1.2004,1.2004,1.2004,1.2004,1.1637,1.1141,1.0994,1.0878,1.0869,1.1147,1.1082,1.0848,1.0848,1.0848,1.0848,1.0848,1.0848,1.0848,1.0848,1.0701,1.0624,1.0624,1.0624,1.0807,1.1655,1.1834,1.202,1.2826,1.3674,1.4213,1.4213,1.4874,1.5235,1.4688,1.3879,1.3199,1.2729,1.1471,1.0294,0.9493,0.9404,0.922,0.8824,0.8804,0.8699,0.8427,0.7996,0.7616,0.7343,0.6858,0.6475,0.6258,0.6258,0.6095,0.5882,0.5882,0.5882,0.5882,0.5882,0.6004,0.8285,0.9683,1.1174,1.2119,1.3031,1.4022,1.4988,1.5576,1.6041,1.6372,1.6237,1.5867,1.5241,1.5117,1.5057,1.4863,1.4836,1.4836,1.4836,1.4743,1.4676,1.4676,1.485,1.5003,1.511,1.4683,1.4556,1.4937,1.4616,1.4436,1.4516,1.4342,1.4108,1.3808,1.3801,1.3661,1.3367,1.3367,1.3313,1.3213,1.3213,1.3106,1.2913,1.2913,1.2746,1.2458,1.2458,1.2405,1.2305,1.2305,1.2305,1.2305,1.2305,1.2305,1.2305,1.2305,1.2305,1.2245,1.187,1.167,1.1583,1.1583,1.1383,1.1149,1.1149,1.1149,1.1149,1.1149,1.1149,1.1149,1.1149,1.1272,1.1446,1.1446,1.1696,1.2131,1.294,1.3121,1.3372,1.4144,1.4769,1.5028,1.4879,1.5155,1.5235,1.4688,1.382,1.2814,1.1792,1.1368,1.0688,0.9482,0.961,0.9646,0.9138,0.9118,0.9118,0.9118,0.8673,0.8392,0.8392,0.7851,0.7461,0.7322,0.7246,0.7075,0.6936,0.6936,0.6936,0.6936,0.6936,0.7012,1.0783,1.193,1.3242,1.3546,1.5514,1.7364,1.7702,1.8588,1.9039,1.7963,1.7415,1.6737,1.5575,1.5404,1.5418,1.5398,1.5398,1.5398,1.5398,1.5157,1.4983,1.4983,1.4997,1.5117,1.5391,1.517,1.501,1.501,1.4983,1.4843,1.4576,1.4549,1.4409,1.4122,1.4108,1.3968,1.3667,1.3667,1.3527,1.3253,1.3253,1.3247,1.3233,1.3233,1.3066,1.2849,1.2849,1.2605,1.2351,1.2351,1.2351,1.2345,1.2331,1.2325,1.2325,1.2311,1.2305,1.2305,1.2305,1.2124,1.1891,1.1891,1.169,1.145,1.145,1.145,1.145,1.145,1.145,1.145,1.145,1.218,1.2908,1.2975,1.3627,1.4541,1.5321,1.5514,1.5716,1.6529,1.6665,1.6602,1.6172,1.5752,1.5478,1.542,1.4812,1.363,1.1696,1.2772,1.2694,1.0133,1.0487,1.0644,0.9911,0.9795,0.9737,0.9737,0.9744,0.9686,0.9686,0.9412,0.9047,0.8663,0.8423,0.8075,0.7601,0.7601,0.7601,0.7601,0.7601,0.7607,1.2083,1.4025,1.6138,1.6196,1.7599,1.8926,1.9023,1.8596,1.8048,1.7777,1.6879,1.6012,1.5523,1.5571,1.5651,1.5431,1.5398,1.5398,1.5398,1.5331,1.5284,1.5284,1.5478,1.5638,1.5712,1.5651,1.5611,1.5611,1.5211,1.5023,1.5164,1.497,1.4716,1.4422,1.4409,1.4269,1.3975,1.3975,1.3935,1.3861,1.3861,1.3748,1.3534,1.3534,1.3373,1.3093,1.3093,1.3046,1.2979,1.2979,1.2979,1.2959,1.2726,1.2708,1.2605,1.2385,1.2305,1.2305,1.2305,1.2258,1.2191,1.2191,1.1997,1.1757,1.1757,1.1757,1.1757,1.1757,1.1757,1.1898,1.2654,1.2892,1.3109,1.376,1.4156,1.4541,1.5321,1.5514,1.5716,1.6529,1.6665,1.6699,1.6582,1.6475,1.6201,1.5538,1.5807,1.542,1.3665,1.2792,1.2182,1.1908,1.1452,1.1287,1.1439,1.0914,1.0572,1.0572,1.0013,0.9686,0.9686,0.9613,0.9542,0.944,0.9375,0.9253,0.9143,0.9143,0.9143,0.9143,0.9143,0.9257,1.4838,1.6511,1.8061,1.8061,1.91,2.0197,2.0262,1.9761,1.9131,1.8596,1.7372,1.6216,1.5517,1.5531,1.5585,1.5424,1.5504,1.5585,1.5585,1.5585,1.5585,1.5585,1.5732,1.5832,1.5832,1.5832,1.5832,1.5832,1.5524,1.5357,1.5391,1.5244,1.5017,1.4723,1.4716,1.4576,1.4282,1.4282,1.4215,1.4088,1.4088,1.4001,1.3841,1.3841,1.3681,1.34,1.34,1.3327,1.3213,1.3213,1.3213,1.3193,1.3019,1.2953,1.2933,1.2759,1.2699,1.2699,1.2699,1.2612,1.2478,1.2345,1.2191,1.2058,1.2058,1.2339,1.2627,1.2202,1.2339,1.2835,1.3334,1.3684,1.4159,1.5095,1.5641,1.606,1.6524,1.66,1.6732,1.7154,1.7139,1.7021,1.7021,1.6855,1.6529,1.6119,1.6392,1.6365,1.5425,1.432,1.3517,1.308,1.2786,1.2545,1.2472,1.2107,1.1807,1.1807,1.1056,1.0647,1.0647,1.0112,0.9933,1.0067,0.994,0.994,1.0067,1.0067,1.0067,1.0067,1.0067,1.016,1.7858,1.8784,1.9562,1.9562,2.0472,2.1401,2.1478,2.1284,2.0755,1.9497,1.8063,1.669,1.5629,1.5451,1.5451,1.5451,1.5665,1.5832,1.5832,1.5832,1.5832,1.5832,1.5832,1.5832,1.5832,1.5832,1.5832,1.5832,1.5832,1.5718,1.5471,1.5451,1.5317,1.503,1.4983,1.4836,1.4583,1.4536,1.4396,1.4142,1.4108,1.4088,1.4088,1.4088,1.3948,1.3701,1.3701,1.3561,1.3327,1.3327,1.3327,1.3327,1.328,1.3267,1.3267,1.3227,1.3213,1.3213,1.3213,1.3033,1.2835,1.2458,1.2338,1.2298,1.2445,1.3025,1.3528,1.2879,1.3237,1.3954,1.4027,1.4736,1.5658,1.6567,1.7432,1.8008,1.8008,1.8008,1.8008,1.8008,1.7715,1.7471,1.7471,1.7158,1.6904,1.6904,1.6904,1.6904,1.6904,1.6393,1.5482,1.4104,1.4118,1.4028,1.3373,1.3252,1.3191,1.3191,1.2381,1.195,1.195,1.1024,1.0595,1.0926,1.0547,1.0479,1.0744,1.0618,1.0624,1.0624,1.0624,1.0624,1.8344,2.0139,2.192,2.192,2.3073,2.3896,2.2901,2.1159,1.9497,1.8234,1.6987,1.6028,1.5752,1.5752,1.5752,1.5752,1.5798,1.5832,1.5832,1.5832,1.5832,1.5832,1.5832,1.5832,1.5832,1.5832,1.5832,1.5832,1.5832,1.5805,1.5758,1.5752,1.5618,1.5331,1.509,1.4937,1.4883,1.4643,1.4496,1.4442,1.4202,1.4088,1.4088,1.4088,1.4055,1.4008,1.4008,1.3981,1.3935,1.3935,1.3935,1.3915,1.3661,1.3567,1.354,1.33,1.3213,1.3213,1.3213,1.3173,1.308,1.2766,1.2505,1.2445,1.3237,1.36,1.381,1.4522,1.4807,1.5092,1.593,1.621,1.6567,1.7501,1.7862,1.8008,1.8008,1.8008,1.8008,1.8008,1.7949,1.79,1.79,1.7842,1.7783,1.7783,1.7783,1.7783,1.7783,1.6477,1.5612,1.5657,1.5115,1.4818,1.4961,1.4382,1.3965,1.3965,1.3243,1.2765,1.2765,1.2578,1.2517,1.2581,1.1843,1.1527,1.1586,1.0926,1.0624,1.0624,1.0624,1.0624,2.1194,2.2552,2.3737,2.3737,2.426,2.4341,2.2494,2.0729,1.9131,1.7963,1.6669,1.5832,1.5832,1.5832,1.5832,1.5832,1.5832,1.5885,1.6039,1.5925,1.5885,1.6039,1.5925,1.5832,1.5832,1.5832,1.5832,1.5832,1.5832,1.5832,1.5832,1.5832,1.5765,1.5625,1.5484,1.5344,1.519,1.505,1.4823,1.4522,1.4382,1.4235,1.4088,1.4088,1.4088,1.4088,1.4088,1.4088,1.4088,1.4088,1.4088,1.4075,1.3928,1.3874,1.3854,1.3721,1.3667,1.3667,1.3667,1.3959,1.4266,1.4102,1.3425,1.2723,1.3433,1.4099,1.4593,1.5092,1.5579,1.6,1.6498,1.6636,1.6908,1.8064,1.8516,1.8672,1.8672,1.8672,1.8672,1.8672,1.8672,1.8603,1.8379,1.833,1.8262,1.8047,1.8008,1.8008,1.8008,1.7293,1.6815,1.6797,1.622,1.5875,1.6052,1.5718,1.5472,1.5472,1.4764,1.4231,1.3978,1.3529,1.3199,1.3009,1.2205,1.1834,1.1834,1.0982,1.0624,1.0624,1.1052,1.1226,2.3804,2.4933,2.5452,2.521,2.4935,2.4139,2.178,2.0107,1.8772,1.7498,1.648,1.5832,1.5832,1.5832,1.5832,1.5832,1.5832,1.5932,1.6233,1.6072,1.6039,1.6333,1.6106,1.5925,1.5925,1.5865,1.5832,1.5832,1.5832,1.5832,1.5832,1.5832,1.5832,1.5832,1.5832,1.5718,1.5491,1.5431,1.5164,1.4703,1.4643,1.4496,1.4275,1.4208,1.4182,1.4175,1.4115,1.4088,1.4088,1.4088,1.4088,1.4088,1.4088,1.4088,1.4088,1.4088,1.4088,1.4166,1.4328,1.4896,1.5388,1.5553,1.4736,1.3686,1.4398,1.5186,1.5825,1.6039,1.6545,1.707,1.7153,1.7116,1.7292,1.846,1.9043,1.9287,1.9287,1.9287,1.9287,1.9287,1.9287,1.918,1.8838,1.8701,1.8525,1.8193,1.8066,1.8008,1.8008,1.8008,1.7881,1.7549,1.7129,1.6836,1.6738,1.6665,1.6665,1.6665,1.6128,1.5605,1.5198,1.448,1.387,1.3252,1.2443,1.1958,1.1834,1.0982,1.0624,1.0624,1.1406,1.1834,2.4609,2.624,2.7602,2.6554,2.546,2.4006,2.166,1.943,1.7498,1.6197,1.5927,1.5832,1.5832,1.5832,1.5832,1.5832,1.5832,1.5932,1.6233,1.6253,1.6339,1.6627,1.6406,1.6233,1.6233,1.5985,1.5832,1.5832,1.5832,1.5832,1.5832,1.5832,1.5832,1.5832,1.5832,1.5812,1.5792,1.5531,1.5371,1.5311,1.505,1.491,1.487,1.4603,1.4482,1.4469,1.4202,1.4088,1.4088,1.4088,1.4088,1.4088,1.4088,1.4088,1.4088,1.4088,1.4088,1.425,1.522,1.5598,1.5763,1.6484,1.6423,1.6246,1.7222,1.7593,1.7815,1.8715,1.8663,1.8521,1.8918,1.8724,1.854,1.9121,1.9258,1.9287,1.9287,1.9287,1.9287,1.9287,1.9287,1.9277,1.9238,1.8896,1.8623,1.8584,1.8252,1.8008,1.8008,1.8008,1.7998,1.7959,1.7578,1.7168,1.6768,1.6665,1.6665,1.6665,1.6602,1.6398,1.6023,1.5933,1.5298,1.4094,1.3304,1.2512,1.1834,1.0982,1.0624,1.0624,1.1406,1.1834,2.5587,2.6461,2.7046,2.6637,2.5051,2.3016,2.0676,1.8832,1.7318,1.6015,1.5832,1.5832,1.5832,1.5832,1.5832,1.5832,1.5832,1.5932,1.6233,1.6273,1.638,1.6667,1.6607,1.6466,1.6293,1.6166,1.6019,1.5845,1.5832,1.5832,1.5832,1.5832,1.5832,1.5832,1.5832,1.5832,1.5832,1.5712,1.5571,1.5398,1.5284,1.5137,1.4963,1.4843,1.4783,1.477,1.4476,1.4349,1.4335,1.4162,1.4088,1.4088,1.4088,1.4088,1.4166,1.4817,1.5054,1.522,1.6273,1.709,1.7713,1.8039,1.8518,1.8773,1.8145,1.7933,1.8082,1.9058,1.916,1.9072,1.9238,1.9346,1.9453,1.9619,1.9863,2.0059,2.0059,2.0059,2.0059,2.0059,2.0059,1.9971,1.9707,1.9521,1.9228,1.8711,1.8496,1.8291,1.8047,1.8008,1.8008,1.8008,1.7861,1.7686,1.7519,1.75,1.75,1.75,1.75,1.7305,1.6875,1.6855,1.6398,1.5381,1.4574,1.3839,1.3235,1.1958,1.1382,1.1561,1.2235,1.2623,2.5764,2.6224,2.6307,2.5597,2.3927,2.1822,1.948,1.8041,1.685,1.6015,1.5832,1.5832,1.5832,1.5832,1.5832,1.5832,1.5832,1.5959,1.6346,1.64,1.654,1.6921,1.6887,1.6754,1.6553,1.6373,1.6152,1.5852,1.5832,1.5832,1.5832,1.5832,1.5832,1.5832,1.5832,1.5832,1.5832,1.5832,1.5732,1.5524,1.5524,1.5418,1.5217,1.513,1.509,1.5077,1.4776,1.4603,1.4502,1.4302,1.4162,1.4088,1.4088,1.4088,1.425,1.5296,1.5696,1.5861,1.7334,1.831,1.9036,1.9362,2.0001,2.0372,1.907,1.8666,1.8817,1.9509,1.9668,1.9639,1.9502,1.9785,2.0107,2.0107,2.0342,2.0566,2.0566,2.0566,2.0566,2.0566,2.0566,2.0469,2.0156,2.0,1.9707,1.9111,1.8799,1.8525,1.8232,1.8086,1.8008,1.8008,1.8008,1.8008,1.8008,1.8008,1.8008,1.8008,1.8008,1.7822,1.7402,1.7383,1.6899,1.577,1.5189,1.4479,1.3639,1.2469,1.2086,1.24,1.306,1.3714,2.4746,2.563,2.5953,2.3594,2.2058,2.0534,1.8211,1.6763,1.5825,1.5832,1.5832,1.5832,1.5832,1.5832,1.5832,1.5832,1.5832,1.6032,1.662,1.67,1.6921,1.7502,1.7321,1.7141,1.7141,1.6613,1.6152,1.5852,1.5832,1.5832,1.5832,1.5832,1.5832,1.5832,1.5832,1.5832,1.5832,1.5832,1.5832,1.5825,1.5825,1.5818,1.5812,1.5524,1.5391,1.5378,1.5084,1.4796,1.4522,1.4516,1.4349,1.4088,1.4088,1.4088,1.425,1.5296,1.5696,1.6026,1.823,1.8957,1.9195,2.0245,2.0566,2.0566,2.0557,2.0547,2.0547,2.0547,2.0557,2.0449,2.0019,2.0234,2.0557,2.0557,2.0634,2.0566,2.0566,2.0566,2.0566,2.0566,2.0566,2.0566,2.0557,2.0195,1.9912,1.9902,1.918,1.8562,1.8562,1.8271,1.8008,1.8008,1.8008,1.8008,1.8008,1.8008,1.8008,1.8008,1.8008,1.7822,1.7402,1.7383,1.6632,1.4951,1.487,1.4042,1.225,1.2178,1.243,1.2908,1.3685,1.4997,2.4661,2.5041,2.4935,2.3421,2.1487,1.9629,1.8041,1.6662,1.5832,1.5832,1.5832,1.5832,1.5832,1.5832,1.5959,1.6359,1.6426,1.6567,1.6954,1.7361,1.7535,1.7315,1.7208,1.7068,1.6867,1.65,1.6152,1.5852,1.5832,1.5832,1.5832,1.5832,1.5832,1.5832,1.5832,1.5832,1.5832,1.5832,1.5832,1.5832,1.5832,1.5832,1.5825,1.5732,1.5691,1.5678,1.5384,1.5204,1.5104,1.4903,1.4649,1.4382,1.4382,1.4262,1.425,1.5296,1.6191,1.7009,1.847,1.9441,2.0167,2.0489,2.0566,2.0566,2.0566,2.0566,2.0566,2.0566,2.0566,2.0537,2.0391,2.0469,2.0566,2.0566,2.0566,2.0566,2.0566,2.0566,2.0566,2.0566,2.0566,2.0566,2.0566,2.0449,2.0254,1.9961,1.9687,1.9297,1.8711,1.8525,1.833,1.8037,1.8008,1.8008,1.8008,1.8008,1.8008,1.8008,1.8008,1.7949,1.7822,1.7812,1.7406,1.6641,1.6632,1.6158,1.5278,1.474,1.4543,1.4681,1.5129,1.5787,2.4088,2.4125,2.3856,2.2669,2.0899,1.9222,1.7963,1.6662,1.5832,1.5832,1.5832,1.5832,1.5832,1.5832,1.5952,1.6313,1.6466,1.668,1.7094,1.7569,1.7776,1.7522,1.7382,1.7154,1.6747,1.6547,1.6266,1.5858,1.5832,1.5832,1.5832,1.5832,1.5832,1.5832,1.5832,1.5832,1.5832,1.5832,1.5832,1.5832,1.5832,1.5832,1.5832,1.5832,1.5832,1.5818,1.5638,1.5498,0.0,1.5204,1.4957,1.4689,1.4689,1.4509,1.4412,1.5974,1.6884,1.7496,1.9036,2.0001,2.0566,2.0566,2.0566,2.0566,2.0566,2.0566,2.0566,2.0566,2.0566,2.0566,2.0566,2.0566,2.0566,2.0566,2.0566,2.0566,2.0566,2.0566,2.0566,2.0566,2.0566,2.0566,2.0566,2.0566,2.0469,2.0195,2.0019,1.9717,1.9189,1.8838,1.8535,1.8271,1.8105,1.8008,1.8008,1.8008,1.8008,1.8008,1.8008,1.8008,1.8008,1.8008,1.7812,1.7393,1.7383,1.7041,1.6419,1.6094,1.5903,1.5903,1.6434,1.6902,0.0,2.3135,2.2775,2.148,2.0305,1.9131,1.787,1.6669,0.0,1.5832,1.5832,1.5838,1.5852,1.5845,1.5852,1.5939,1.6166,1.654,1.7128,1.7428,1.7695,1.8111,1.7769,1.7348,1.6861,1.68,1.646,1.5872,1.592,1.592,1.592,1.592,1.592,1.592,1.5825,1.5832,1.5832,1.5832,1.5832,1.5832,1.5832,1.5832,1.5832,1.5832,1.5832,1.5832,1.5832,1.5678,1.5431,1.5431,1.5257,1.4997,1.4997,1.4898,1.4884,1.6969,1.7606,1.7806,1.9775,2.0586,2.0605,2.0576,2.0566,2.0566,2.0566,2.0566,2.0566,2.0566,2.0566,2.0566,2.0566,2.0566,2.0566,2.0566,2.0566,2.0566,2.0566,2.0566,2.0566,2.0566,2.0566,2.0566,2.0566,2.0566,2.0566,2.0566,2.0225,1.9951,1.9922,1.9219,1.865,1.8682,1.834,1.8105,1.8105,1.8047,1.8008,1.8008,1.8008,1.8008,1.8008,1.8008,1.7822,1.7432,1.7432,1.6997,1.6084,1.6524,1.6706,1.6706,1.7569,1.8008,2.3105,0.0,2.2589,2.0494,1.9679,1.8948,0.0,1.6015,1.5832,1.5832,1.5832,1.5899,1.6126,1.5979,1.6126,1.7021,1.7041,1.7154,1.7749,1.7689,1.8105,1.9461,1.8386,1.7757,1.8229,1.7292,1.646,1.5872,1.6669,1.7225,1.7225,1.7225,1.7225,1.7225,1.6298,1.5832,1.5832,1.5832,1.5832,1.5832,1.5832,1.5832,1.5832,1.5832,1.5832,1.5832,1.5832,1.5792,1.5732,1.5732,1.5558,1.5297,1.5297,1.5722,1.6279,1.645,1.7809,1.9502,1.9405,2.014,2.1025,2.0674,2.0566,2.0566,2.0566,2.0566,2.0566,2.0566,2.0566,2.0566,2.0566,2.0566,2.0566,2.0566,2.0566,2.0566,2.0566,2.0566,2.0566,2.0566,2.0566,2.0566,2.0566,2.0566,2.0566,2.0566,2.0478,2.0293,1.9961,1.9736,1.9492,1.917,1.9043,1.8984,1.8984,1.8389,1.8008,1.8008,1.8008,1.8008,1.8008,1.8008,1.7969,1.7861,1.7861,1.7716,1.7494,1.7599,1.7647,1.7647,1.7862,1.8008,2.2259,2.2306,2.1943,2.0666,1.9488,1.8311,1.6943,1.6197,1.5832,1.5832,1.5832,1.5879,1.6039,1.6052,1.6239,1.6881,1.7074,1.7361,1.7963,1.7903,1.8376,1.9894,1.8471,1.7709,1.8602,1.7358,1.6606,1.6704,1.7318,1.7963,1.8503,1.7956,1.7692,1.7692,1.648,1.5832,1.5832,1.5832,1.5832,1.5832,1.5832,1.5832,1.5832,1.5832,1.5832,1.5832,1.5832,1.5832,1.5825,1.6386,1.657,1.6515,1.7047,1.756,1.785,1.8078,1.9059,2.0225,2.0326,2.0833,2.1465,2.1016,2.0869,2.083,2.0625,2.0566,2.0566,2.0566,2.0566,2.0566,2.0566,2.0566,2.0566,2.0566,2.0566,2.0566,2.0566,2.0566,2.0566,2.0566,2.0566,2.0566,2.0566,2.0566,2.0566,2.0566,2.0566,2.0478,2.0244,2.0039,1.9824,1.96,1.9404,1.9287,1.9287,1.8867,1.8516,1.8311,1.8115,1.8008,1.8008,1.8008,1.8008,1.8008,1.8008,1.8008,1.8008,1.8008,1.8008,1.8008,1.8008,1.8008,2.0642,2.0541,2.052,2.0674,1.9222,1.7692,1.7404,1.6574,1.5832,1.5832,1.5832,1.5858,1.5945,1.6166,1.6386,1.652,1.6961,1.7566,1.8178,1.8111,1.8493,2.0152,1.8497,1.7631,1.8587,1.7211,1.6718,1.7621,1.787,1.8411,1.9405,1.8503,1.787,1.7692,1.648,1.5832,1.5832,1.5832,1.5832,1.5832,1.5832,1.5832,1.5832,1.5832,1.5927,1.6109,1.6109,1.6197,1.6473,1.7498,1.7956,1.8048,1.9131,1.9487,1.9567,2.0385,2.0716,2.0725,2.1649,2.1934,2.1826,2.1455,2.1289,2.1162,2.0781,2.0625,2.0576,2.0644,2.0664,2.0654,2.0586,2.0615,2.0654,2.0576,2.0566,2.0566,2.0566,2.0625,2.0644,2.0576,2.0625,2.0644,2.0576,2.0566,2.0566,2.0566,2.0566,2.0566,2.0566,2.0244,2.0019,2.0019,1.9697,1.9482,1.9482,1.9424,1.9228,1.8786,1.8379,1.8076,1.8008,1.8008,1.8008,1.8008,1.8008,1.8008,1.8008,1.8008,1.8008,1.8008,1.8008,1.8008,1.8029,1.7257,1.6968,1.8001,1.7956,1.7412,1.6386,1.592,1.5832,1.5832,1.5832,1.5985,1.648,1.6607,1.6887,1.7649,1.7849,1.8358,1.9597,1.854,1.8576,2.1121,1.8964,1.7631,1.8587,1.7211,1.6718,1.7621,1.8688,1.9314,1.9488,1.9314,1.8772,1.7684,1.648,1.5832,1.5832,1.5832,1.5832,1.5832,1.5832,1.5832,1.5832,1.5832,1.6386,1.7412,1.7412,1.7948,1.894,1.9131,1.9222,1.9222,1.9405,2.009,2.09,2.0745,2.1516,2.2621,2.2454,2.2178,2.1875,2.1807,2.1533,2.1221,2.1152,2.0869,2.0644,2.1025,2.1133,2.1045,2.0664,2.085,2.1035,2.0654,2.0566,2.0566,2.0566,2.0869,2.1016,2.0635,2.0869,2.1016,2.0635,2.0566,2.0566,2.0566,2.0566,2.0566,2.0566,2.0508,2.0469,2.0469,2.041,2.0371,2.0371,2.0029,1.9785,1.9727,1.8975,1.8379,1.8027,1.8008,1.8008,1.8008,1.8008,1.8008,1.8008,1.8008,1.8008,1.8008,1.8008,1.8008,1.6223,1.4922,1.3916,1.4534,1.4753,1.4826,1.5002,1.5089,1.53,1.6104,1.6306,1.6386,1.6653,1.6967,1.7422,1.817,1.878,1.9398,2.0022,1.9934,2.0538,2.2567,2.0568,1.9299,1.982,1.82,1.7196,1.7699,1.8234,1.8772,1.9497,1.9497,1.9222,1.868,1.8126,1.7755,1.7755,1.7755,1.7117,1.5832,1.5832,1.5832,1.5825,1.648,1.7131,1.7777,1.8411,1.8956,1.9579,2.0215,2.0486,2.0576,2.1221,2.1765,2.2287,2.2098,2.2427,2.3105,2.292,2.2725,2.2519,2.2295,2.209,2.1885,2.166,2.1445,2.1318,2.1533,2.1416,2.124,2.1269,2.1435,2.1533,2.1328,2.1103,2.0996,2.123,2.126,2.124,2.1279,2.1445,2.1523,2.1318,2.1279,2.1201,2.0967,2.0928,2.084,2.0596,2.0566,2.0566,2.0566,2.0566,2.0566,2.0566,2.0381,2.0068,1.9609,1.9209,1.8906,1.8711,1.8477,1.835,1.835,1.835,1.8242,1.8008,1.8242,1.8232,1.8008,1.8008,1.8008,1.4305,1.2981,1.1457,1.1269,1.1721,1.2532,1.3563,1.4199,1.485,1.5985,1.6553,1.6807,1.6807,1.7295,1.7869,1.8404,1.9398,2.0234,2.0544,2.1274,2.2122,2.3359,2.1844,2.0633,2.055,1.9129,1.8141,1.8141,1.8141,1.8411,1.9039,1.9039,1.9039,1.9039,1.9039,1.9222,1.9497,1.9497,1.858,1.6655,1.6655,1.6655,1.6655,1.7677,1.8326,1.8588,1.9497,2.0034,2.0404,2.1302,2.1747,2.1845,2.2765,2.3135,2.3135,2.3135,2.3135,2.3135,2.3135,2.3135,2.3086,2.2764,2.2598,2.2451,2.2129,2.1963,2.1904,2.2002,2.1787,2.1592,2.1826,2.1963,2.2012,2.1904,2.1631,2.1475,2.1816,2.1699,2.1602,2.1836,2.1963,2.2002,2.1904,2.1885,2.1777,2.1435,2.1299,2.1113,2.0762,2.0635,2.0566,2.0566,2.0566,2.0566,2.0566,2.0566,2.0283,1.9629,1.9492,1.9394,1.9287,1.8965,1.8789,1.8789,1.8789,1.8633,1.8311,1.8633,1.8574,1.8154,1.8154,1.8105,1.1742,1.089,1.0008,0.8678,1.0122,1.1998,1.2491,1.3711,1.4749,1.4648,1.5986,1.7114,1.7114,1.7609,1.8116,1.8437,1.9398,2.0544,2.1796,2.1788,2.2029,2.2974,2.1585,2.0438,2.0005,1.9627,1.9405,1.9405,1.9405,1.8956,1.787,1.787,1.787,1.787,1.787,1.8411,1.9497,1.9497,1.9397,1.9214,1.9214,1.9214,1.9222,1.9314,1.9943,2.1025,2.1114,2.1845,2.2862,2.296,2.296,2.296,2.3057,2.3135,2.3135,2.3135,2.3135,2.3135,2.3135,2.3135,2.3135,2.3105,2.2832,2.251,2.248,2.2197,2.1963,2.2353,2.2441,2.2344,2.1982,2.2178,2.2373,2.1982,2.1865,2.1846,2.1875,2.2168,2.2314,2.1953,2.2197,2.2344,2.1953,2.1885,2.1875,2.1846,2.1494,2.1221,2.1191,2.082,2.0566,2.0566,2.0566,2.0566,2.0566,2.0566,2.0537,2.0478,2.0098,1.9697,1.9307,1.9258,1.9238,1.9238,1.9238,1.9228,1.9199,1.9228,1.9014,1.8594,1.8594,1.8379,1.237,1.1949,1.1453,1.0775,1.1454,1.2333,1.2537,1.3958,1.5491,1.6424,1.7192,1.7709,1.7709,1.7889,1.8143,1.8444,2.0145,2.1482,2.2012,2.3111,2.3948,2.4297,2.3289,2.2262,2.1278,2.0811,2.0305,1.9579,1.9497,1.9314,1.8864,1.8864,1.8864,1.8864,1.8864,1.9039,1.9497,2.0215,2.0666,2.0567,1.9852,1.9497,1.9497,2.0305,2.0845,2.1382,2.212,2.2677,2.3135,2.3135,2.3135,2.3135,2.3135,2.3135,2.3135,2.3135,2.3135,2.3135,2.3135,2.3135,2.3135,2.3135,2.3027,2.29,2.29,2.2793,2.2705,2.2861,2.29,2.2861,2.2705,2.2783,2.2861,2.2705,2.2471,2.2344,2.2607,2.2588,2.2539,2.2646,2.2793,2.2852,2.2695,2.2666,2.2578,2.2314,2.2139,2.1836,2.1309,2.1084,2.0869,2.0596,2.0566,2.0566,2.0566,2.0566,2.0566,2.0566,2.041,2.0244,2.0088,1.9824,1.9678,1.9678,1.9678,1.9551,1.9287,1.9551,1.9453,1.9043,1.9043,1.8955,1.3111,1.2723,1.2292,1.2258,1.2673,1.3052,1.347,1.4526,1.5701,1.6959,1.7567,1.7903,1.7903,1.8211,1.8593,1.8808,2.0958,2.2511,2.2393,2.3938,2.4971,2.4697,2.4141,2.3461,2.2398,2.202,2.1391,2.0124,2.0034,1.9943,1.9497,1.9497,1.967,2.0034,2.0034,2.0215,2.0674,2.1489,2.1845,2.1845,2.1033,2.0674,2.0674,2.1489,2.1845,2.1933,2.2765,2.3135,2.3135,2.3135,2.3135,2.3135,2.3135,2.3135,2.3135,2.3135,2.3135,2.3135,2.3135,2.3135,2.3135,2.3135,2.3135,2.3135,2.3135,2.3135,2.3135,2.3135,2.3135,2.3135,2.3135,2.3135,2.3135,2.3135,2.292,2.2793,2.3076,2.291,2.2793,2.3086,2.3135,2.3135,2.3135,2.3135,2.3047,2.2754,2.2598,2.2305,2.1709,2.1406,2.1064,2.0615,2.0566,2.0566,2.0566,2.0566,2.0566,2.0566,2.0566,2.0566,2.0566,2.0283,2.0117,2.0117,2.0117,1.998,1.9697,1.998,1.9902,1.9482,1.9482,1.9414,1.3327,1.2729,1.2001,1.2323,1.3369,1.4501,1.5033,1.5267,1.5228,1.537,1.6611,1.7589,1.7582,1.8708,1.9627,1.9627,2.1862,2.3538,2.3044,2.4173,2.4746,2.3887,2.3789,2.3613,2.3184,2.3135,2.2589,2.1382,2.1293,2.0845,1.9579,1.9497,2.0034,2.1293,2.1293,2.1845,2.3047,2.3047,2.3047,2.3047,2.3047,2.3135,2.3135,2.3135,2.3135,2.3135,2.3135,2.3135,2.3135,2.3135,2.3135,2.3135,2.3135,2.3135,2.3135,2.3135,2.3135,2.3135,2.3135,2.3135,2.3135,2.3135,2.3135,2.3135,2.3135,2.3135,2.3135,2.3135,2.3135,2.3135,2.3135,2.3135,2.3135,2.3135,2.3135,2.3135,2.3135,2.3135,2.3135,2.3135,2.3135,2.3135,2.3135,2.3135,2.3135,2.3135,2.2783,2.2519,2.251,2.1768,2.1064,2.0625,2.0576,2.0566,2.0566,2.0566,2.0566,2.0566,2.0566,2.0566,2.0566,2.0566,2.0566,2.0566,2.0566,2.0566,2.0566,2.0566,2.0342,1.9922,1.9922,1.9697,1.4797,1.4886,1.4973,1.5151,1.5611,1.606,1.6536,1.6775,1.7002,1.7186,1.758,1.7842,1.7622,1.8708,1.9627,1.9627,2.1645,2.3125,2.3009,2.3673,2.4072,2.3818,2.3516,2.3281,2.3154,2.3135,2.296,2.2589,2.2589,2.2403,2.2041,2.1212,2.0935,2.1293,2.0486,2.0223,2.0584,2.1391,2.1845,2.1845,2.2677,2.3135,2.3135,2.3135,2.3135,2.3135,2.3135,2.3135,2.3135,2.3135,2.3135,2.3135,2.3135,2.3135,2.3135,2.3135,2.3135,2.3135,2.3135,2.3135,2.3135,2.3135,2.3135,2.3135,2.3135,2.3135,2.3135,2.3135,2.3135,2.3135,2.3135,2.3135,2.3135,2.3135,2.3135,2.3135,2.3135,2.3135,2.3135,2.3135,2.3135,2.3135,2.3135,2.3135,2.3135,2.3135,2.3027,2.2852,2.2549,2.2031,2.1523,2.1084,2.1035,2.0908,2.0596,2.0566,2.0566,2.0566,2.0566,2.0566,2.0566,2.0566,2.0566,2.0566,2.0566,2.0566,2.0566,2.0566,2.0498,2.0371,2.0371,2.0303,1.5678,1.6005,1.6326,1.656,1.6754,1.6961,1.7255,1.7455,1.7635,1.7822,1.8276,1.8639,1.8436,1.993,2.1253,2.1253,2.2652,2.3725,2.3558,2.3741,2.3721,2.3555,2.3301,2.3135,2.3135,2.3135,2.3135,2.3135,2.3135,2.3135,2.3135,2.2403,2.2031,2.2031,2.1311,2.0944,2.0944,2.1667,2.2031,2.2031,2.2765,2.3135,2.3135,2.3135,2.3135,2.3135,2.3135,2.3135,2.3135,2.3135,2.3135,2.3135,2.3135,2.3135,2.3135,2.3135,2.3135,2.3135,2.3135,2.3135,2.3135,2.3135,2.3135,2.3135,2.3135,2.3135,2.3135,2.3135,2.3135,2.3135,2.3135,2.3135,2.3135,2.3135,2.3135,2.3135,2.3135,2.3135,2.3135,2.3135,2.3135,2.3135,2.3135,2.3135,2.3135,2.3135,2.3135,2.2988,2.2568,2.2295,2.1973,2.1543,2.1494,2.1387,2.1113,2.1094,2.1016,2.084,2.083,2.0752,2.0576,2.0566,2.0566,2.0566,2.0566,2.0566,2.0566,2.0566,2.0566,2.0566,2.0566,2.0566,1.6119,1.6273,1.6413,1.7001,1.7174,1.7255,1.7522,1.7687,1.7786,1.7786,1.8708,1.9627,1.9731,2.1963,2.3683,2.3638,2.439,2.4853,2.4414,2.3994,2.3584,2.3184,2.3135,2.3135,2.3135,2.3135,2.3135,2.3135,2.3135,2.3135,2.3135,2.3135,2.3135,2.3135,2.3135,2.3135,2.3135,2.3135,2.3135,2.3135,2.3135,2.3135,2.3135,2.3135,2.3135,2.3135,2.3135,2.3135,2.3135,2.3135,2.3135,2.3135,2.3135,2.3135,2.3135,2.3135,2.3135,2.3135,2.3135,2.3135,2.3135,2.3135,2.3135,2.3135,2.3135,2.3135,2.3135,2.3135,2.3135,2.3135,2.3135,2.3135,2.3135,2.3135,2.3135,2.3135,2.3135,2.3135,2.3135,2.3135,2.3135,2.3135,2.3135,2.3135,2.3135,2.3135,2.3135,2.2998,2.2617,2.2568,2.2412,2.1992,2.1943,2.1924,2.1894,2.1885,2.1719,2.1318,2.126,2.1055,2.0644,2.0586,2.0566,2.0566,2.0566,2.0566,2.0566,2.0566,2.0566,2.0566,2.0566,2.0566,1.6172,1.6273,1.6413,1.7001,1.7321,1.7508,1.7569,1.8401,1.922,1.922,1.9428,1.993,2.1041,2.2567,2.3583,2.317,2.3956,2.4414,2.3984,2.3555,2.3242,2.3154,2.3135,2.3135,2.3135,2.3135,2.3135,2.3135,2.3135,2.3135,2.3135,2.3135,2.3135,2.3135,2.3135,2.3135,2.3135,2.3135,2.3135,2.3135,2.3135,2.3135,2.3135,2.3135,2.3135,2.3135,2.3135,2.3135,2.3135,2.3135,2.3135,2.3135,2.3135,2.3135,2.3135,2.3135,2.3135,2.3135,2.3135,2.3135,2.3135,2.3135,2.3135,2.3135,2.3135,2.3135,2.3135,2.3135,2.3135,2.3135,2.3135,2.3135,2.3135,2.3135,2.3135,2.3135,2.3135,2.3135,2.3135,2.3135,2.3135,2.3135,2.3135,2.3135,2.3135,2.3135,2.3135,2.3105,2.3018,2.2998,2.2842,2.2422,2.2373,2.2246,2.1914,2.1885,2.1846,2.1748,2.1426,2.1191,2.1094,2.0752,2.0566,2.0566,2.0566,2.0566,2.0566,2.0566,2.0566,2.0566,2.0566,2.0566,1.6359,1.648,1.6812,1.8009,1.849,1.8708,1.9413,2.0128,2.0743,2.1456,2.1558,2.1711,2.2227,2.3394,2.4265,2.3748,2.3913,2.4043,2.3818,2.3418,2.3135,2.3135,2.3135,2.3135,2.3135,2.3135,2.3135,2.3135,2.3135,2.3135,2.3135,2.3135,2.3135,2.3135,2.3135,2.3135,2.3135,2.3135,2.3135,2.3135,2.3135,2.3135,2.3135,2.3135,2.3135,2.3135,2.3135,2.3135,2.3135,2.3135,2.3135,2.3135,2.3135,2.3135,2.3135,2.3135,2.3135,2.3135,2.3135,2.3135,2.3135,2.3135,2.3135,2.3135,2.3135,2.3135,2.3135,2.3135,2.3135,2.3135,2.3135,2.3135,2.3135,2.3135,2.3135,2.3135,2.3135,2.3135,2.3135,2.3135,2.3135,2.3135,2.3135,2.3135,2.3135,2.3135,2.3135,2.3135,2.3135,2.3135,2.3057,2.2832,2.2812,2.2725,2.251,2.248,2.2402,2.2197,2.1787,2.1455,2.124,2.0801,2.0566,2.0566,2.0566,2.0566,2.0566,2.0566,2.0566,2.0566,2.0566,2.0566,1.6776,1.7186,1.7895,1.958,1.993,2.0231,2.1448,2.1853,2.2357,2.3484,2.3692,2.3664,2.3363,2.4269,2.4902,2.4394,2.4014,2.3769,2.3691,2.3359,2.3135,2.3135,2.3135,2.3135,2.3135,2.3135,2.3135,2.3135,2.3135,2.3135,2.3135,2.3135,2.3135,2.3135,2.3135,2.3135,2.3135,2.3135,2.3135,2.3135,2.3135,2.3135,2.3135,2.3135,2.3135,2.3135,2.3135,2.3135,2.3135,2.3135,2.3135,2.3135,2.3135,2.3135,2.3135,2.3135,2.3135,2.3135,2.3135,2.3135,2.3135,2.3135,2.3135,2.3135,2.3135,2.3135,2.3135,2.3135,2.3135,2.3135,2.3135,2.3135,2.3135,2.3135,2.3135,2.3135,2.3135,2.3135,2.3135,2.3135,2.3135,2.3135,2.3135,2.3135,2.3135,2.3135,2.3135,2.3135,2.3135,2.3135,2.3135,2.3135,2.3135,2.3135,2.3135,2.3135,2.2988,2.2646,2.2227,2.1797,2.1367,2.0918,2.0644,2.0566,2.0566,2.0566,2.0566,2.0566,2.0566,2.0566,2.0566,2.0566,1.7565,1.9115,2.0635,2.1241,2.1448,2.1448,2.1651,2.2567,2.3484,2.3692,2.3692,2.3969,2.4651,2.4964,2.4805,2.4004,2.3828,2.3662,2.3281,2.3174,2.3135,2.3135,2.3135,2.3135,2.3135,2.3135,2.3135,2.3135,2.3135,2.3135,2.3135,2.3135,2.3135,2.3135,2.3135,2.3135,2.3135,2.3135,2.3135,2.3135,2.3135,2.3135,2.3135,2.3135,2.3135,2.3135,2.3135,2.3135,2.3135,2.3135,2.3135,2.3135,2.3135,2.3135,2.3135,2.3135,2.3135,2.3135,2.3135,2.3135,2.3135,2.3135,2.3135,2.3135,2.3135,2.3135,2.3135,2.3135,2.3135,2.3135,2.3135,2.3135,2.3135,2.3135,2.3135,2.3135,2.3135,2.3135,2.3135,2.3135,2.3135,2.3135,2.3135,2.3135,2.3135,2.3135,2.3135,2.3135,2.3135,2.3135,2.3135,2.3135,2.3135,2.3135,2.3135,2.3135,2.3115,2.3057,2.2656,2.2236,2.1816,2.1377,2.0967,2.0576,2.0566,2.0566,2.0566,2.0566,2.0566,2.0566,2.0566,2.0566,1.9057,2.0224,2.1288,2.2472,2.2767,2.2976,2.3791,2.4402,2.4815,2.4815,2.4815,2.4887,2.5051,2.4863,2.4502,2.3887,2.3584,2.3359,2.3164,2.3135,2.3135,2.3135,2.3135,2.3135,2.3135,2.3135,2.3135,2.3135,2.3135,2.3135,2.3135,2.3135,2.3135,2.3135,2.3135,2.3135,2.3135,2.3135,2.3135,2.3135,2.3135,2.3135,2.3135,2.3135,2.3135,2.3135,2.3135,2.3135,2.3135,2.3135,2.3135,2.3135,2.3135,2.3135,2.3135,2.3135,2.3135,2.3135,2.3135,2.3135,2.3135,2.3135,2.3135,2.3135,2.3135,2.3135,2.3135,2.3135,2.3135,2.3135,2.3135,2.3135,2.3135,2.3135,2.3135,2.3135,2.3135,2.3135,2.3135,2.3135,2.3135,2.3135,2.3135,2.3135,2.3135,2.3135,2.3135,2.3135,2.3135,2.3135,2.3135,2.3135,2.3135,2.3135,2.3135,2.3135,2.3135,2.3135,2.2744,2.2432,2.2246,2.1592,2.1143,2.0947,2.0693,2.0566,2.0566,2.0566,2.0566,2.0566,2.0566,2.0566,2.0462,2.1369,2.224,2.3733,2.4122,2.4501,2.543,2.5742,2.5742,2.5742,2.5742,2.5635,2.5303,2.4883,2.4414,2.3877,2.3516,2.3262,2.3154,2.3135,2.3135,2.3135,2.3135,2.3135,2.3135,2.3135,2.3135,2.3135,2.3135,2.3135,2.3135,2.3135,2.3135,2.3135,2.3135,2.3135,2.3135,2.3135,2.3135,2.3135,2.3135,2.3135,2.3135,2.3135,2.3135,2.3135,2.3135,2.3135,2.3135,2.3135,2.3135,2.3135,2.3135,2.3135,2.3135,2.3135,2.3135,2.3135,2.3135,2.3135,2.3135,2.3135,2.3135,2.3135,2.3135,2.3135,2.3135,2.3135,2.3135,2.3135,2.3135,2.3135,2.3135,2.3135,2.3135,2.3135,2.3135,2.3135,2.3135,2.3135,2.3135,2.3135,2.3135,2.3135,2.3135,2.3135,2.3135,2.3135,2.3135,2.3135,2.3135,2.3135,2.3135,2.3135,2.3135,2.3135,2.3135,2.3135,2.2842,2.2627,2.2519,2.1894,2.1455,2.124,2.0908,2.0674,2.0566,2.0566,2.0566,2.0566,2.0566,2.0566,2.1467,2.3093,2.4365,2.4886,2.5314,2.5635,2.5635,2.5742,2.5742,2.5742,2.5742,2.5732,2.5713,2.5332,2.4766,2.3926,2.3769,2.3613,2.3193,2.3135,2.3135,2.3135,2.3135,2.3135,2.3135,2.3135,2.3135,2.3135,2.3135,2.3135,2.3135,2.3135,2.3135,2.3135,2.3135,2.3135,2.3135,2.3135,2.3135,2.3135,2.3135,2.3135,2.3135,2.3135,2.3135,2.3135,2.3135,2.3135,2.3135,2.3135,2.3135,2.3135,2.3135,2.3135,2.3135,2.3135,2.3135,2.3135,2.3135,2.3135,2.3135,2.3135,2.3135,2.3135,2.3135,2.3135,2.3135,2.3135,2.3135,2.3135,2.3135,2.3135,2.3135,2.3135,2.3135,2.3135,2.3135,2.3135,2.3135,2.3135,2.3135,2.3135,2.3135,2.3135,2.3135,2.3135,2.3135,2.3135,2.3135,2.3135,2.3135,2.3135,2.3135,2.3135,2.3135,2.3135,2.3135,2.3135,2.3115,2.293,2.2529,2.2471,2.206,2.125,2.1211,2.0986,2.0566,2.0566,2.0566,2.0566,2.0566,2.0566,2.2668,2.3625,2.4121,2.4541,2.498,2.5303,2.5303,2.5527,2.5742,2.5742,2.5742,2.5742,2.5742,2.5371,2.4971,2.4658,2.415,2.374,2.3574,2.332,2.3135,2.3135,2.3135,2.3135,2.3135,2.3135,2.3135,2.3135,2.3135,2.3135,2.3135,2.3135,2.3135,2.3135,2.3135,2.3135,2.3135,2.3135,2.3135,2.3135,2.3135,2.3135,2.3135,2.3135,2.3135,2.3135,2.3135,2.3135,2.3135,2.3135,2.3135,2.3135,2.3135,2.3135,2.3135,2.3135,2.3135,2.3135,2.3135,2.3135,2.3135,2.3135,2.3135,2.3135,2.3135,2.3135,2.3135,2.3135,2.3135,2.3135,2.3135,2.3135,2.3135,2.3135,2.3135,2.3135,2.3135,2.3135,2.3135,2.3135,2.3135,2.3135,2.3135,2.3135,2.3135,2.3135,2.3135,2.3135,2.3135,2.3135,2.3135,2.3135,2.3135,2.3135,2.3135,2.3135,2.3135,2.3135,2.3135,2.3076,2.292,2.2656,2.2363,2.206,2.1787,2.1299,2.0566,2.0566,2.0566,2.0566,2.0566,2.0566,2.2832,2.3574,2.3896,2.4316,2.4639,2.4932,2.5225,2.541,2.5557,2.5703,2.5742,2.5742,2.5742,2.5488,2.5244,2.5088,2.459,2.4121,2.3828,2.3545,2.3301,2.3154,2.3135,2.3135,2.3135,2.3135,2.3135,2.3135,2.3135,2.3135,2.3135,2.3135,2.3135,2.3135,2.3135,2.3135,2.3135,2.3135,2.3135,2.3135,2.3135,2.3135,2.3135,2.3135,2.3135,2.3135,2.3135,2.3135,2.3135,2.3135,2.3135,2.3135,2.3135,2.3135,2.3135,2.3135,2.3135,2.3135,2.3135,2.3135,2.3135,2.3135,2.3135,2.3135,2.3135,2.3135,2.3135,2.3135,2.3135,2.3135,2.3135,2.3135,2.3135,2.3135,2.3135,2.3135,2.3135,2.3135,2.3135,2.3135,2.3135,2.3135,2.3135,2.3135,2.3135,2.3135,2.3135,2.3135,2.3135,2.3135,2.3135,2.3135,2.3135,2.3135,2.3135,2.3135,2.3135,2.3135,2.3135,2.3135,2.3135,2.2871,2.2656,2.251,2.2236,2.1738,2.1006,2.0859,2.0713,2.0566,2.0566,2.0566,0.0,0.0,0.0,2.4277,2.4385,2.4629,2.5498,2.5361,2.5176,2.5644,2.5723,2.5723,2.5742,2.5742,2.5596,2.5156,2.5078,2.4775,2.3945,2.3809,2.3633,2.3213,2.3144,2.3135,2.3135,2.3135,2.3135,2.3135,2.3135,2.3135,2.3135,2.3135,2.3135,2.3135,2.3135,2.3135,2.3135,2.3135,2.3135,2.3135,2.3135,2.3135,2.3135,2.3135,2.3135,2.3135,2.3135,2.3135,2.3135,2.3135,2.3135,2.3135,2.3135,2.3135,2.3135,2.3135,2.3135,2.3135,2.3135,2.3135,2.3135,2.3135,2.3135,2.3135,2.3135,2.3135,2.3135,2.3135,2.3135,2.3135,2.3135,2.3135,2.3135,2.3135,2.3135,2.3135,2.3135,2.3135,2.3135,2.3135,2.3135,2.3135,2.3135,2.3135,2.3135,2.3135,2.3135,2.3135,2.3135,2.3135,2.3135,2.3135,2.3135,2.3135,2.3135,2.3135,2.3135,2.3135,2.3135,2.3135,2.3135,2.3135,2.2949,2.2539,2.2529,2.2324,2.1904,2.1465,2.1025,2.0586,2.0576,2.0566,2.2347,0.0,0.0,0.0,0.0,0.0,2.4658,2.4687,2.4814,2.5576,2.5478,2.5352,2.5674,2.5742,2.5693,2.5566,2.5283,2.499,2.4746,2.418,2.374,2.3623,2.333,2.3135,2.3135,2.3135,2.3135,2.3135,2.3135,2.3135,2.3135,2.3135,2.3135,2.3135,2.3135,2.3135,2.3135,2.3135,2.3135,2.3135,2.3135,2.3135,2.3135,2.3135,2.3135,2.3135,2.3135,2.3135,2.3135,2.3135,2.3135,2.3135,2.3135,2.3135,2.3135,2.3135,2.3135,2.3135,2.3135,2.3135,2.3135,2.3135,2.3135,2.3135,2.3135,2.3135,2.3135,2.3135,2.3135,2.3135,2.3135,2.3135,2.3135,2.3135,2.3135,2.3135,2.3135,2.3135,2.3135,2.3135,2.3135,2.3135,2.3135,2.3135,2.3135,2.3135,2.3135,2.3135,2.3135,2.3135,2.3135,2.3135,2.3135,2.3135,2.3135,2.3135,2.3135,2.3135,2.3135,2.3135,2.3135,2.3135,2.3086,2.2969,2.2969,2.2754,2.2334,2.1914,2.1484,2.1045,2.0713,2.0566,2.1731,2.2457,2.3184,2.3359,0.0,0.0,2.4512,2.4551,2.4668,2.5557,2.5527,2.543,2.5684,2.5742,2.5742,2.5742,2.5518,2.5283,2.5098,2.4639,2.4258,2.4072,2.3672,2.3408,2.3408,2.3242,2.3135,2.3135,2.3135,2.3135,2.3135,2.3135,2.3135,2.3135,2.3135,2.3135,2.3135,2.3135,2.3135,2.3135,2.3135,2.3135,2.3135,2.3135,2.3135,2.3135,2.3135,2.3135,2.3135,2.3135,2.3135,2.3135,2.3135,2.3135,2.3135,2.3135,2.3135,2.3135,2.3135,2.3135,2.3135,2.3135,2.3135,2.3135,2.3135,2.3135,2.3135,2.3135,2.3135,2.3135,2.3135,2.3135,2.3135,2.3135,2.3135,2.3135,2.3135,2.3135,2.3135,2.3135,2.3135,2.3135,2.3135,2.3135,2.3135,2.3135,2.3135,2.3135,2.3135,2.3135,2.3135,2.3135,2.3135,2.3135,2.3135,2.3135,2.3135,2.3135,2.3135,2.3135,2.3135,2.3135,2.3135,2.3135,2.3135,2.3018,2.2773,2.2353,2.1836,2.123,2.0967,2.0742,2.0629,2.182,2.3047,2.3623,2.3467,0.0,2.4668,2.4629,2.458,2.542,2.5557,2.5537,2.5586,2.5635,2.5644,2.5596,2.5674,2.5596,2.5195,2.5098,2.4922,2.4531,2.4121,2.3857,2.3857,2.3506,2.3262,2.3213,2.3164,2.3135,2.3135,2.3135,2.3135,2.3135,2.3135,2.3135,2.3135,2.3135,2.3135,2.3135,2.3135,2.3135,2.3135,2.3135,2.3135,2.3135,2.3135,2.3135,2.3135,2.3135,2.3135,2.3135,2.3135,2.3135,2.3135,2.3135,2.3135,2.3135,2.3135,2.3135,2.3135,2.3135,2.3135,2.3135,2.3135,2.3135,2.3135,2.3135,2.3135,2.3135,2.3135,2.3135,2.3135,2.3135,2.3135,2.3135,2.3135,2.3135,2.3135,2.3135,2.3135,2.3135,2.3135,2.3135,2.3135,2.3135,2.3135,2.3135,2.3135,2.3135,2.3135,2.3135,2.3135,2.3135,2.3135,2.3135,2.3135,2.3135,2.3135,2.3135,2.3135,2.3135,2.3135,2.3135,2.3135,2.3135,2.3135,2.2715,2.21,2.1309,2.126,2.0996,2.0455,2.1198,2.1891,2.2969,2.3467,0.0,2.3984,2.3975,2.4062,2.457,2.4404,2.4268,2.4609,2.4961,2.5078,2.4736,2.5273,2.5713,2.5615,2.5293,2.5039,2.4951,2.456,2.4297,2.4297,2.4219,2.4023,2.3691,2.334,2.3135,2.3135,2.3135,2.3135,2.3135,2.3135,2.3135,2.3135,2.3135,2.3135,2.3135,2.3135,2.3135,2.3135,2.3135,2.3135,2.3135,2.3135,2.3135,2.3135,2.3135,2.3135,2.3135,2.3135,2.3135,2.3135,2.3135,2.3135,2.3135,2.3135,2.3135,2.3135,2.3135,2.3135,2.3135,2.3135,2.3135,2.3135,2.3135,2.3135,2.3135,2.3135,2.3135,2.3135,2.3135,2.3135,2.3135,2.3135,2.3135,2.3135,2.3135,2.3135,2.3135,2.3135,2.3135,2.3135,2.3135,2.3135,2.3135,2.3135,2.3135,2.3135,2.3135,2.3135,2.3135,2.3135,2.3135,2.3135,2.3135,2.3135,2.3135,2.3135,2.3135,2.3135,2.3135,2.3135,2.3135,2.3135,2.2715,2.2256,2.1748,2.1396,2.0996,2.0651,2.1618,2.2381,2.3231,2.3467,0.0,0.0,2.3935,2.3965,2.4609,2.4394,2.4228,2.4658,2.4746,2.4746,2.4746,2.5117,2.54,2.54,2.54,2.54,2.54,2.501,2.4746,2.4746,2.4551,2.4336,2.4121,2.3896,2.3779,2.3779,2.3574,2.3467,2.3467,2.3252,2.3135,2.3135,2.3135,2.3135,2.3135,2.3135,2.3135,2.3135,2.3135,2.3135,2.3135,2.3135,2.3135,2.3135,2.3135,2.3135,2.3135,2.3135,2.3135,2.3135,2.3135,2.3135,2.3135,2.3135,2.3135,2.3135,2.3135,2.3135,2.3135,2.3135,2.3135,2.3135,2.3135,2.3135,2.3135,2.3135,2.3135,2.3135,2.3135,2.3135,2.3135,2.3135,2.3135,2.3135,2.3135,2.3135,2.3135,2.3135,2.3135,2.3135,2.3135,2.3135,2.3135,2.3135,2.3135,2.3135,2.3135,2.3135,2.3135,2.3135,2.3135,2.3135,2.3135,2.3135,2.3135,2.3135,2.3135,2.3135,2.3135,2.3135,2.3135,2.3135,2.293,2.2607,2.2187,2.1758,2.1328,2.0935,2.2031,2.2851,2.3198,2.3279,2.3329,0.0,0.0,0.0,2.457,2.4414,2.4277,2.4629,2.4473,2.4385,2.4648,2.4834,2.4912,2.4834,2.5205,2.5518,2.5596,2.5361,2.5195,2.5195,2.4717,2.4453,2.4531,2.4394,2.4336,2.4414,2.4092,2.3906,2.3906,2.3486,2.3262,2.3262,2.3184,2.3135,2.3135,2.3135,2.3135,2.3135,2.3135,2.3135,2.3135,2.3135,2.3135,2.3135,2.3135,2.3135,2.3135,2.3135,2.3135,2.3135,2.3135,2.3135,2.3135,2.3135,2.3135,2.3135,2.3135,2.3135,2.3135,2.3135,2.3135,2.3135,2.3135,2.3135,2.3135,2.3135,2.3135,2.3135,2.3135,2.3135,2.3135,2.3135,2.3135,2.3135,2.3135,2.3135,2.3135,2.3135,2.3135,2.3135,2.3135,2.3135,2.3135,2.3135,2.3135,2.3135,2.3135,2.3135,2.3135,2.3135,2.3135,2.3135,2.3135,2.3135,2.3135,2.3135,2.3135,2.3135,2.3135,2.3135,2.3135,2.3135,2.3135,2.292,2.251,2.2168,2.1728,2.0666,2.1391,2.1489,2.1535,2.2626,2.3355,2.1949,0.0,2.3711,2.3418,0.0,2.3301,2.335,0.0,0.0,2.3418,2.3994,2.4365,2.3984,2.4297,2.4707,2.5098,2.5449,2.5664,2.5664,2.4902,2.458,2.4971,2.4287,2.4023,2.4394,2.4375,2.4346,2.4346,2.3935,2.3721,2.3721,2.333,2.3135,2.3135,2.3135,2.3135,2.3135,2.3135,2.3135,2.3135,2.3135,2.3135,2.3135,2.3135,2.3135,2.3135,2.3135,2.3135,2.3135,2.3135,2.3135,2.3135,2.3135,2.3135,2.3135,2.3135,2.3135,2.3135,2.3135,2.3135,2.3135,2.3135,2.3135,2.3135,2.3135,2.3135,2.3135,2.3135,2.3135,2.3135,2.3135,2.3135,2.3135,2.3135,2.3135,2.3135,2.3135,2.3135,2.3135,2.3135,2.3135,2.3135,2.3135,2.3135,2.3135,2.3135,2.3135,2.3135,2.3135,2.3135,2.3135,2.3135,2.3135,2.3135,2.3135,2.3135,2.3135,2.3135,2.3135,2.3135,2.3135,2.3135,2.292,2.251,2.2461,2.2012,1.9761,2.0305,2.0447,2.1418,2.2069,2.24,2.2655,2.3082,2.3437,2.3496,0.0,0.0,0.0,0.0,0.0,0.0,2.3818,2.3984,2.3809,2.415,2.4482,2.4668,2.4853,2.5068,2.5322,2.501,2.498,2.543,2.4883,2.4727,2.5156,2.4932,2.4795,2.4795,2.4375,2.4033,2.3789,2.3603,2.3389,2.3135,2.3135,2.3135,2.3135,2.3135,2.3135,2.3135,2.3135,2.3135,2.3135,2.3135,2.3135,2.3135,2.3135,2.3135,2.3135,2.3135,2.3135,2.3135,2.3135,2.3135,2.3135,2.3135,2.3135,2.3135,2.3135,2.3135,2.3135,2.3135,2.3135,2.3135,2.3135,2.3135,2.3135,2.3135,2.3135,2.3135,2.3135,2.3135,2.3135,2.3135,2.3135,2.3135,2.3135,2.3135,2.3135,2.3135,2.3135,2.3135,2.3135,2.3135,2.3135,2.3135,2.3135,2.3135,2.3135,2.3135,2.3135,2.3135,2.3135,2.3135,2.3135,2.3135,2.3135,2.3135,2.3135,2.3135,2.3135,2.3135,2.3047,2.2871,2.2627,2.2324,1.9131,1.9497,1.9837,2.1042,2.1338,2.1642,2.2881,2.3084,2.3232,2.3545,2.3359,0.0,0.0,0.0,2.3242,2.3555,0.0,2.3613,2.3613,2.3877,2.4111,2.4228,2.4453,2.4766,2.5215,2.5029,2.5127,2.5693,2.5215,2.5137,2.5713,2.543,2.5254,2.5254,2.4824,2.4443,2.4141,2.3906,2.3633,2.332,2.3193,2.3135,2.3135,2.3135,2.3135,2.3135,2.3135,2.3135,2.3135,2.3135,2.3135,2.3135,2.3135,2.3135,2.3135,2.3135,2.3135,2.3135,2.3135,2.3135,2.3135,2.3135,2.3135,2.3135,2.3135,2.3135,2.3135,2.3135,2.3135,2.3135,2.3135,2.3135,2.3135,2.3135,2.3135,2.3135,2.3135,2.3135,2.3135,2.3135,2.3135,2.3135,2.3135,2.3135,2.3135,2.3135,2.3135,2.3135,2.3135,2.3135,2.3135,2.3135,2.3135,2.3135,2.3135,2.3135,2.3135,2.3135,2.3135,2.3135,2.3135,2.3135,2.3135,2.3135,2.3135,2.3135,2.3135,2.3135,2.3135,2.3135,2.2822,2.2627,1.9131,1.9497,1.9497,1.9604,2.0494,2.1293,2.14,2.2227,2.3144,2.3154,2.3154,2.3144,2.3154,2.3154,2.3144,0.0,2.3164,0.0,0.0,2.3174,2.334,2.376,2.4541,2.5225,2.5674,2.4941,2.4795,2.5674,2.4932,2.4824,2.5693,2.5723,2.5713,2.5713,2.5283,2.5039,2.5029,2.4199,2.3779,2.3769,2.334,2.3135,2.3135,2.3135,2.3135,2.3135,2.3135,2.3135,2.3135,2.3135,2.3135,2.3135,2.3135,2.3135,2.3135,2.3135,2.3135,2.3135,2.3135,2.3135,2.3135,2.3135,2.3135,2.3135,2.3135,2.3135,2.3135,2.3135,2.3135,2.3135,2.3135,2.3135,2.3135,2.3135,2.3135,2.3135,2.3135,2.3135,2.3135,2.3135,2.3135,2.3135,2.3135,2.3135,2.3135,2.3135,2.3135,2.3135,2.3135,2.3135,2.3135,2.3135,2.3135,2.3135,2.3135,2.3135,2.3135,2.3135,2.3135,2.3135,2.3135,2.3135,2.3135,2.3135,2.3135,2.3135,2.3135,2.3135,2.3135,2.3135,2.3125,2.29,1.6929,1.7023,1.721,1.8133,1.9222,2.0305,2.1114,2.2217,2.3135,2.3135,2.3135,2.3135,2.3135,2.3135,2.3135,0.0,2.3135,2.3135,0.0,2.3135,2.3301,2.374,2.4287,2.459,2.4463,2.4434,2.4265,2.3957,2.3389,2.3044,2.3032,2.3076,2.3484,2.4304,2.4263,2.4456,2.5068,2.4785,2.4355,2.3789,2.3643,2.3418,2.3135,2.3135,2.3135,2.3135,2.3135,2.3135,2.3135,2.3135,2.3135,2.3047,2.2217,2.2403,2.3135,2.3135,2.3135,2.3135,2.3135,2.3135,2.3135,2.3135,2.3135,2.3135,2.3135,2.3135,2.3135,2.3135,2.3135,2.3135,2.3135,2.3135,2.3135,2.3135,2.3135,2.3135,2.3135,2.3135,2.3135,2.3135,2.3135,2.3135,2.3135,2.3135,2.3135,2.3135,2.3135,2.3135,2.3135,2.3135,2.3135,2.3135,2.3135,2.3135,2.3135,2.3135,2.3135,2.3135,2.3135,2.3135,2.3135,2.3135,2.3135,2.3135,2.3135,2.3135,2.3135,2.3135,2.3135,2.3135,2.3135,2.3066,1.5832,1.5832,1.6197,1.7956,1.8956,1.9943,2.1578,2.258,2.3135,2.3135,2.3135,2.296,2.258,2.2775,2.296,0.0,0.0,2.3135,0.0,2.3135,2.3242,2.3525,2.3935,2.4016,2.3566,2.3547,2.3251,2.2556,2.2022,2.1776,2.1711,2.2156,2.2767,2.3683,2.4196,2.4683,2.5312,2.5146,2.4707,2.4014,2.3867,2.3555,2.3135,2.3135,2.3135,2.3135,2.3135,2.3135,2.3135,2.3135,2.3135,2.3047,2.2217,2.2403,2.3047,2.2589,2.2765,2.3135,2.3135,2.3135,2.3135,2.3135,2.3135,2.3135,2.3135,2.3135,2.3135,2.3135,2.3135,2.3135,2.3135,2.3135,2.3135,2.3135,2.3135,2.3135,2.3135,2.3135,2.3135,2.3135,2.3135,2.296,2.2492,2.2492,2.2589,2.3047,2.3135,2.3135,2.3135,2.3135,2.3135,2.3135,2.3135,2.3135,2.3135,2.3135,2.3135,2.3135,2.3135,2.3135,2.3135,2.3135,2.3135,2.3135,2.3135,2.3135,2.3135,2.3135,2.3135,2.3135,2.3135,2.3135]},{"header":{"parameterUnit":"m.s-1","parameterCategory":1,"la1":30.6,"la2":29.2853,"lo1":-89.7004,"lo2":-87.6739,"dy":0.0162,"dx":0.0183,"nx":112,"ny":82,"refTime":"2024-09-02T00:00:00:Z","depth":0,"parameterNumber":3,"parameterNumberName":"V-component_of_WINDS"},"data":[0.0,0.0,0.0,0.0,0.0,0.0,0.0,0.0,0.0,0.0,0.0,0.0,0.0,0.0,0.0,0.0,0.0,0.0,0.0,0.0,0.0,0.0,0.0,0.0,0.0,0.0,0.0,0.0,0.0,0.0,0.0,0.0,0.0,0.0,0.0,0.0,0.0,0.0,0.0,0.0,0.0,0.0,0.0,0.0,0.0,0.0,0.0,0.0,0.0,0.0,0.0,0.0,0.0,0.0,0.0,0.0,0.0,0.0,0.0,0.0,0.0,0.0,0.0,0.0,0.0,0.0,0.0,0.0,0.0,0.0,0.0,0.0,0.0,0.0,0.0,0.0,0.0,0.0,0.0,0.0,0.0,0.0,0.0,0.0,0.0,0.0,0.0,0.0,0.0,0.0,2.3694,2.1565,1.258,0.4332,-0.1617,-0.4647,-0.4274,0.0258,0.0,0.0,0.0,0.0,0.0,0.0,0.0,0.0,0.0,0.0,0.0,0.0,0.0,0.0,0.0,0.0,0.0,0.0,0.0,0.0,0.0,0.0,0.0,0.0,0.0,0.0,0.0,0.0,0.0,0.0,0.0,0.0,0.0,0.0,0.0,0.0,0.0,0.0,0.0,0.0,0.0,0.0,0.0,0.0,0.0,0.0,0.0,0.0,0.0,0.0,0.0,0.0,0.0,0.0,0.0,0.0,0.0,0.0,0.0,0.0,0.0,0.0,0.0,0.0,0.0,0.0,0.0,0.0,0.0,0.0,0.0,0.0,0.0,0.0,0.0,0.0,0.0,0.0,0.0,0.0,0.0,0.0,0.0,0.0,0.0,0.0,0.0,0.0,0.0,0.0,0.0,0.0,0.0,0.0,0.0,0.0,0.0,0.0,0.0,0.0,0.0,0.0,0.0,0.0,2.1512,1.6955,1.1243,0.5398,-0.0444,-0.4599,-0.4679,0.0502,0.0,0.0,0.0,0.0,0.0,0.0,0.0,0.0,0.0,0.0,0.0,0.0,0.0,0.0,0.0,0.0,0.0,0.0,0.0,0.0,0.0,0.0,0.0,0.0,0.0,0.0,0.0,0.0,0.0,0.0,0.0,0.0,0.0,0.0,0.0,0.0,0.0,0.0,0.0,0.0,0.0,0.0,0.0,0.0,0.0,0.0,0.0,0.0,0.0,0.0,0.0,0.0,0.0,0.0,0.0,0.0,0.0,0.0,0.0,0.0,0.0,0.0,0.0,0.0,0.0,0.0,0.0,0.0,0.0,0.0,0.0,0.0,0.0,0.0,0.0,0.0,0.0,0.0,0.0,0.0,0.0,0.0,0.0,0.0,0.0,0.0,0.0,0.0,0.0,0.0,0.0,0.0,0.0,0.0,0.0,0.0,0.0,0.0,0.0,0.0,0.0,0.0,0.0,2.1702,1.9059,1.5304,1.0595,0.5601,0.0277,-0.3245,-0.33,0.1105,0.396,0.0,0.0,0.0,0.0,0.0,0.0,0.0,0.0,0.0,0.0,0.0,0.0,0.0,0.0,0.0,0.0,0.0,0.0,0.0,0.0,0.0,0.0,0.0,0.0,0.0,0.0,0.0,0.0,0.0,0.0,0.0,0.0,0.0,0.0,0.0,0.0,0.0,0.0,0.0,0.0,0.0,0.0,0.0,0.0,0.0,0.0,0.0,0.0,0.0,0.0,0.0,0.0,0.0,0.0,0.0,0.0,0.0,0.0,0.0,0.0,0.0,0.0,0.0,0.0,0.0,0.0,0.0,0.0,0.0,0.0,0.0,0.0,0.0,0.0,0.0,0.0,0.0,0.0,0.0,0.0,0.0,0.0,0.0,0.0,0.0,0.0,0.0,0.0,0.0,0.0,0.0,0.0,0.0,0.0,0.0,0.0,0.0,0.0,0.0,0.0,0.0,0.0,2.0238,1.7205,1.4578,1.0595,0.6146,0.1316,-0.1798,-0.2076,0.118,0.3586,0.0,0.0,0.0,0.0,0.0,0.0,0.0,0.0,0.0,0.0,0.0,0.0,0.0,0.0,0.0,0.0,0.0,0.0,0.0,0.0,0.0,0.0,0.0,0.0,0.0,0.0,0.0,0.0,0.0,0.0,0.0,0.0,0.0,0.0,0.0,0.0,0.0,0.0,0.0,0.0,0.0,0.0,0.0,0.0,0.0,0.0,0.0,0.0,0.0,0.0,0.0,0.0,0.0,0.0,0.0,0.0,0.0,0.0,0.0,0.0,0.0,0.0,0.0,0.0,0.0,0.0,0.0,0.0,0.0,0.0,0.0,0.0,0.0,0.0,0.0,0.0,0.0,0.0,0.0,0.0,0.0,0.0,0.0,0.0,0.0,0.0,0.0,0.0,0.0,0.0,0.0,0.0,0.0,0.0,0.0,0.0,0.0,0.0,0.0,0.0,0.0,0.0,1.9689,1.6573,1.3921,1.1421,0.7959,0.3138,-0.0889,-0.2216,-0.0,0.3232,0.0,0.0,0.0,0.0,0.0,0.0,0.0,0.0,0.0,0.0,0.0,0.0,0.0,0.0,0.0,0.0,0.0,0.0,0.0,0.0,0.0,0.0,0.0,0.0,0.0,0.0,0.0,0.0,0.0,0.0,0.0,0.0,0.0,0.0,0.0,0.0,0.0,0.0,0.0,0.0,0.0,0.0,0.0,0.0,0.0,0.0,0.0,0.0,0.0,0.0,0.0,0.0,0.0,0.0,0.0,0.0,0.0,0.0,0.0,0.0,0.0,0.0,0.0,0.0,0.0,0.0,0.0,0.0,0.0,0.0,0.0,0.0,0.0,0.0,0.0,0.0,0.0,0.0,0.0,0.0,0.0,0.0,0.0,0.0,0.0,0.0,0.0,0.0,0.0,0.0,0.0,0.0,0.0,0.0,0.0,0.0,0.0,0.0,0.0,0.0,0.0,0.0,1.8548,1.5461,1.3215,1.0395,0.7243,0.375,0.0599,-0.0893,-0.0223,0.0,0.0,0.0,0.0,0.0,0.0,0.0,0.0,0.0,0.0,0.0,0.0,0.0,0.0,0.0,0.0,0.0,0.0,0.0,0.0,0.0,0.0,0.0,0.0,0.0,0.0,0.0,0.0,0.0,0.0,0.0,0.0,0.0,0.0,0.0,0.0,0.0,0.0,0.0,0.0,0.0,0.0,0.0,0.0,0.0,0.0,0.0,0.0,0.0,0.0,0.0,0.0,0.0,0.0,0.0,0.0,0.0,0.0,0.0,0.0,0.0,0.0,0.0,0.0,0.0,0.0,0.0,0.0,0.0,0.0,0.0,0.0,0.0,0.0,0.0,0.0,0.0,0.0,0.0,0.0,0.0,0.0,0.0,0.0,0.0,0.0,0.0,0.0,0.0,0.0,0.0,0.0,0.0,0.0,0.0,0.0,0.0,0.0,0.0,0.0,0.0,0.0,2.0901,1.7818,1.4743,1.2541,0.9404,0.6369,0.3637,0.145,0.0323,0.0599,0.0,0.0,0.0,0.0,0.0,0.0,0.0,0.0,0.0,0.0,0.0,0.0,0.0,0.0,0.0,0.0,0.0,0.0,0.0,0.0,0.0,0.0,0.0,0.0,0.0,0.0,0.0,0.0,0.0,0.0,0.0,0.0,0.0,0.0,0.0,0.0,0.0,0.0,0.0,0.0,0.0,0.0,0.0,0.0,0.0,0.0,0.0,0.0,0.0,0.0,0.0,0.0,0.0,0.0,0.0,0.0,0.0,0.0,0.0,0.0,0.0,0.0,0.0,0.0,0.0,0.0,0.0,0.0,0.0,0.0,0.0,0.0,0.0,0.0,0.0,0.0,0.0,0.0,0.0,0.0,0.0,0.0,0.0,0.0,0.0,0.0,0.0,0.0,0.0,0.0,0.0,0.0,0.0,0.0,0.0,0.0,0.0,0.0,0.0,0.0,0.0,0.0,2.0651,1.7724,1.4602,1.1965,0.8676,0.5606,0.2867,0.1392,0.1183,0.0,0.0,0.0,0.0,0.0,0.0,0.0,0.0,0.0,0.0,0.0,0.0,0.0,0.0,0.0,0.0,0.0,0.0,0.0,0.0,0.0,0.0,0.0,0.0,0.0,0.0,0.0,0.0,0.0,0.0,0.0,0.0,0.0,0.0,0.0,0.0,0.0,0.0,0.0,0.0,0.0,0.0,0.0,0.0,0.0,0.0,0.0,0.0,0.0,0.0,0.0,0.0,0.0,0.0,0.0,0.0,0.0,0.0,0.0,0.0,0.0,0.0,0.0,0.0,0.0,0.0,0.0,0.0,0.0,0.0,0.0,0.0,0.0,0.0,0.0,0.0,0.0,0.0,0.0,0.0,0.0,0.0,0.0,0.0,0.0,0.0,0.0,0.0,0.0,0.0,0.0,0.0,0.0,0.0,0.0,0.0,0.0,0.0,0.0,0.0,0.0,0.0,0.0,2.0114,1.7234,1.42,1.1686,0.8351,0.5724,0.4331,0.2316,0.2042,0.4278,0.0,0.0,0.0,0.0,0.0,0.0,0.0,0.0,0.0,0.0,0.0,0.0,0.0,0.0,0.0,0.0,0.0,0.0,0.0,0.0,0.0,0.0,0.0,0.0,0.0,0.0,0.0,0.0,0.0,0.0,0.0,0.0,0.0,0.0,0.0,0.0,0.0,0.0,0.0,0.0,0.0,0.0,0.0,0.0,0.0,0.0,0.0,0.0,0.0,0.0,0.0,0.0,0.0,0.0,0.0,0.0,0.0,0.0,0.0,0.0,0.0,0.0,0.0,0.0,0.0,0.0,0.0,0.0,0.0,0.0,0.0,0.0,0.0,0.0,0.0,0.0,0.0,0.0,0.0,0.0,0.0,0.0,0.0,0.0,0.0,0.0,0.0,0.0,0.0,0.0,0.0,0.0,0.0,0.0,0.0,0.0,0.0,0.0,0.0,0.0,0.0,0.0,1.9669,1.6948,1.3999,1.1432,0.8351,0.5919,0.4472,0.2952,0.2991,0.5055,0.0,0.0,0.0,0.0,0.0,0.0,0.0,0.0,0.0,0.0,0.0,0.0,0.0,0.0,0.0,0.0,0.0,0.0,0.0,0.0,0.0,0.0,0.0,0.0,0.0,0.0,0.0,0.0,0.0,0.0,0.0,0.0,0.0,0.0,0.0,0.0,0.0,0.0,0.0,0.0,0.0,0.0,0.0,0.0,0.0,0.0,0.0,0.0,0.0,0.0,0.0,0.0,0.0,0.0,0.0,0.0,0.0,0.0,0.0,0.0,0.0,0.0,0.0,0.0,0.0,0.0,0.0,0.0,0.0,0.0,0.0,0.0,0.0,0.0,0.0,0.0,0.0,0.0,0.0,0.0,0.0,0.0,0.0,0.0,0.0,0.0,0.0,0.0,0.0,0.0,0.0,0.0,0.0,0.0,0.0,0.0,0.0,0.0,0.0,0.0,0.0,0.0,1.9416,1.6872,1.4001,1.1249,0.8676,0.6214,0.3863,0.3449,0.3849,0.5106,0.0,0.0,0.0,0.0,0.0,0.0,0.0,0.0,0.0,0.0,0.0,0.0,0.0,0.0,0.0,0.0,0.0,0.0,0.0,0.0,0.0,0.0,0.0,0.0,0.0,0.0,0.0,0.0,0.0,0.0,0.0,0.0,0.0,0.0,0.0,0.0,0.0,0.0,0.0,0.0,0.0,0.0,0.0,0.0,0.0,0.0,0.0,0.0,0.0,0.0,0.0,0.0,0.0,0.0,0.0,0.0,0.0,0.0,0.0,0.0,2.4588,2.3923,0.0,0.0,0.0,0.0,0.0,0.0,0.0,0.0,0.0,0.0,0.0,0.0,0.0,0.0,0.0,0.0,0.0,0.0,0.0,0.0,0.0,0.0,0.0,0.0,0.0,0.0,0.0,0.0,0.0,0.0,0.0,0.0,0.0,0.0,0.0,0.0,0.0,0.0,0.0,0.0,1.9496,1.7132,1.4483,1.1689,0.9178,0.6961,0.5081,0.3909,0.3849,0.5106,0.5921,0.0,0.0,0.0,0.0,0.0,0.0,0.0,0.0,0.0,0.0,0.0,0.0,0.0,0.0,0.0,0.0,0.0,0.0,0.0,0.0,0.0,0.0,0.0,0.0,0.0,0.0,0.0,0.0,0.0,0.0,0.0,0.0,0.0,0.0,0.0,0.0,0.0,0.0,0.0,0.0,0.0,0.0,0.0,0.0,0.0,0.0,0.0,0.0,0.0,0.0,0.0,0.0,0.0,0.0,0.0,0.0,0.0,0.0,0.0,2.5907,2.5463,0.0,0.0,0.0,0.0,0.0,0.0,0.0,0.0,0.0,0.0,0.0,0.0,0.0,0.0,0.0,0.0,0.0,0.0,0.0,0.0,0.0,0.0,0.0,0.0,0.0,0.0,0.0,0.0,0.0,0.0,0.0,0.0,0.0,0.0,0.0,0.0,0.0,0.0,0.0,0.0,1.9866,1.7398,1.48,1.2425,0.995,0.775,0.599,0.4846,0.4616,0.5519,0.6089,0.0,0.0,0.0,0.0,0.0,0.0,0.0,0.0,0.0,0.0,0.0,0.0,0.0,0.0,0.0,0.0,0.0,0.0,0.0,0.0,0.0,0.0,0.0,0.0,0.0,0.0,0.0,0.0,0.0,0.0,0.0,0.0,0.0,0.0,0.0,0.0,0.0,0.0,0.0,0.0,0.0,0.0,0.0,0.0,0.0,0.0,0.0,0.0,0.0,0.0,0.0,0.0,0.0,3.0049,2.9576,2.9125,2.8261,2.7475,2.6784,2.6801,2.6625,2.6255,2.584,0.0,0.0,0.0,0.0,0.0,0.0,0.0,0.0,0.0,0.0,0.0,0.0,0.0,0.0,0.0,0.0,0.0,0.0,0.0,0.0,0.0,0.0,2.2894,2.3152,2.413,2.5115,2.5493,0.0,0.0,0.0,0.0,0.0,0.0,0.0,0.0,0.0,0.0,0.0,2.0264,1.771,1.5198,1.3352,1.0878,0.8639,0.6911,0.5798,0.5345,0.5725,0.5906,0.6199,0.0,0.0,0.0,0.0,0.0,0.0,0.0,0.0,0.0,0.0,0.0,0.0,0.0,0.0,0.0,0.0,0.0,0.0,0.0,0.0,0.0,0.0,0.0,0.0,0.0,0.0,0.0,0.0,0.0,0.0,0.0,0.0,2.7893,2.8631,0.0,0.0,0.0,0.0,0.0,0.0,0.0,0.0,0.0,0.0,0.0,0.0,0.0,3.207,3.2832,3.3476,3.3024,3.1551,3.2244,3.1729,3.0194,2.9646,2.9008,2.8287,2.7899,0.0,2.5924,2.647,0.0,0.0,0.0,0.0,0.0,0.0,0.0,0.0,0.0,0.0,0.0,0.0,0.0,0.0,0.0,0.0,0.0,0.0,0.0,0.0,0.0,0.0,2.3987,2.3354,2.3558,2.422,2.5265,2.5919,2.6403,2.6885,2.5901,2.5117,0.0,0.0,0.0,0.0,0.0,0.0,2.0327,1.8268,1.6215,1.4314,1.1841,0.9739,0.8337,0.6363,0.508,0.4795,0.4061,0.3538,0.3349,0.5833,0.0,0.0,0.0,0.0,0.0,0.0,0.0,0.0,0.0,0.0,0.0,0.0,0.0,0.0,0.0,0.0,0.0,0.0,0.0,0.0,0.0,0.0,0.0,0.0,0.0,0.0,0.0,0.0,0.0,2.7791,2.9121,2.8852,2.9402,2.9806,0.0,0.0,0.0,0.0,0.0,0.0,0.0,0.0,0.0,3.3555,3.347,3.36,3.399,3.4276,3.3782,3.2539,3.243,3.1874,3.0936,3.0204,2.9439,2.87,2.8512,2.7853,2.6946,2.6723,2.6858,2.7195,0.0,0.0,0.0,0.0,2.7616,2.7458,2.7407,2.7148,2.6898,2.7066,0.0,0.0,0.0,0.0,0.0,0.0,0.0,2.6407,2.5216,2.4792,2.4467,2.3589,2.397,2.4717,2.5355,2.5899,2.6517,2.7503,2.7181,2.6651,2.6323,2.5787,0.0,0.0,0.0,2.1972,2.1067,1.89,1.6903,1.5561,1.2862,1.0786,0.9863,0.7852,0.6257,0.5493,0.4471,0.4643,0.6379,0.8152,1.0034,0.0,0.0,0.0,0.0,0.0,0.0,0.0,0.0,0.0,0.0,0.0,0.0,0.0,0.0,0.0,0.0,0.0,0.0,0.0,0.0,0.0,0.0,0.0,0.0,0.0,0.0,0.0,0.0,2.9313,3.0373,2.9773,3.0614,3.1191,0.0,0.0,0.0,0.0,0.0,0.0,3.2812,3.2832,3.3516,3.498,3.4749,3.4592,3.4592,3.4314,3.3725,3.2869,3.2163,3.1603,3.1141,3.0394,2.9666,2.8981,2.8894,2.8543,2.7913,2.7098,2.7297,2.8005,2.7585,2.7723,2.8157,2.845,2.8235,2.7888,2.8339,2.7964,2.7371,2.7837,2.7674,2.7457,2.8316,0.0,0.0,0.0,0.0,2.7009,2.5788,2.5335,2.4951,2.4057,2.4487,2.5149,2.5349,2.5696,2.639,2.7945,2.7956,2.7526,2.6931,2.6414,0.0,2.4155,2.3191,2.2339,2.1602,1.9389,1.7557,1.6762,1.4009,1.1932,1.1204,0.9351,0.7792,0.6772,0.5702,0.6128,0.8409,1.0266,1.1797,1.2986,0.0,0.0,0.0,0.0,0.0,0.0,0.0,0.0,0.0,0.0,0.0,0.0,0.0,0.0,0.0,0.0,0.0,0.0,0.0,0.0,0.0,0.0,0.0,0.0,0.0,0.0,0.0,0.0,0.0,3.2608,3.3672,0.0,0.0,0.0,0.0,3.332,3.4043,3.4531,3.457,3.457,3.498,3.5918,3.5062,3.4592,3.4592,3.371,3.283,3.1955,3.1916,3.1421,3.0548,3.0293,2.9917,2.9454,2.9193,2.8736,2.817,2.7913,2.7844,2.7936,2.8218,2.8366,2.8376,2.8386,2.8846,2.9277,2.7739,2.7936,2.8776,2.7968,2.8004,2.8374,2.8684,2.8779,0.0,0.0,2.8537,2.8133,2.7307,2.6519,2.5731,2.4934,2.4774,2.4877,2.5079,2.5194,2.5979,2.8481,2.7729,2.6965,2.7853,0.0,2.5512,2.4026,2.3115,2.2356,2.1685,1.9698,1.8161,1.7663,1.5268,1.3244,1.2146,1.055,0.9249,0.8445,0.7482,0.6684,0.609,0.9144,1.0841,1.0869,1.6022,0.0,0.0,0.0,0.0,0.0,0.0,0.0,0.0,0.0,0.0,0.0,0.0,0.0,0.0,0.0,0.0,0.0,0.0,0.0,0.0,0.0,0.0,0.0,0.0,0.0,0.0,0.0,0.0,3.3697,3.4489,0.0,3.3378,3.4139,3.457,3.4258,3.4995,3.5474,3.5474,3.5392,3.549,3.5802,3.4986,3.4273,3.3704,3.2801,3.1927,3.1067,3.1051,3.0897,3.0551,3.0484,3.0308,3.0021,2.9874,2.9583,2.9214,2.9109,2.8955,2.8829,2.9116,2.9417,2.9692,2.9878,3.0016,2.996,2.8877,2.8936,2.9362,2.879,2.924,2.9957,2.9654,2.9989,3.0375,2.9845,2.9255,2.8564,2.7579,2.6727,2.5948,2.5234,2.5072,2.5114,2.5311,2.5337,2.5777,2.7287,2.7122,2.6784,2.698,2.6472,2.5584,2.4137,2.3378,2.2745,2.2012,2.0082,1.8616,1.8192,1.5743,1.3956,1.3558,1.2205,1.1156,1.0572,1.0201,1.0346,1.1084,1.2267,1.3029,1.3264,1.5941,1.6804,0.0,0.0,0.0,0.0,0.0,0.0,0.0,0.0,0.0,0.0,0.0,0.0,0.0,0.0,0.0,0.0,0.0,0.0,0.0,0.0,0.0,0.0,0.0,0.0,0.0,3.4656,3.5271,3.4734,3.5169,3.5022,3.3827,3.4824,3.5403,3.5064,3.5798,3.6148,3.5856,3.5755,3.5703,3.5703,3.4932,3.4069,3.3213,3.2337,3.1462,3.0606,3.0623,3.0624,3.0605,3.0625,3.0541,3.0393,3.0355,3.0207,2.996,2.9991,2.9851,2.963,2.9675,2.9904,3.0192,3.0346,3.0318,3.0094,2.9588,2.955,2.9659,2.942,2.9937,3.0605,3.0234,3.0575,3.0954,3.0134,2.9319,2.847,2.7456,2.658,2.5851,2.5376,2.5279,2.5332,2.5439,2.5444,2.5584,2.6119,2.6498,2.6653,2.6436,2.6213,2.5551,2.4043,2.3476,2.2947,2.2258,2.0626,1.9309,1.8663,1.6761,1.5284,1.4701,1.3818,1.3157,1.2767,1.2901,1.3635,1.5072,1.5402,1.5596,1.5714,1.6649,1.6731,1.5889,0.0,0.0,0.0,0.0,0.0,0.0,0.0,0.0,0.0,0.0,0.0,0.0,0.0,0.0,0.0,0.0,0.0,0.0,0.0,0.0,0.0,0.0,0.0,3.7229,3.6475,3.5891,3.5872,3.5919,3.5591,3.4628,3.6116,3.6757,3.5768,3.6489,3.6586,3.5742,3.5696,3.5696,3.5696,3.4911,3.4075,3.3206,3.2325,3.1469,3.06,3.0669,3.0669,3.0605,3.0673,3.0657,3.0592,3.0592,3.0484,3.0322,3.0516,3.0496,3.0278,2.9874,2.9729,2.9712,2.9729,2.9729,2.9712,2.9729,2.9729,2.9744,2.9798,2.9992,3.0224,3.0297,3.0443,3.0411,2.9549,2.8738,2.7901,2.7026,2.6155,2.5496,2.5422,2.5445,2.5487,2.541,2.5449,2.5407,2.5157,2.5882,2.6508,2.6352,2.613,2.5377,2.3728,2.332,0.0,2.2377,2.1294,2.0205,1.9159,1.8366,1.7215,1.5526,1.5358,1.5225,1.4901,1.5476,1.6326,1.7442,1.8148,1.8274,1.7769,1.8174,1.856,1.8985,0.0,0.0,0.0,0.0,0.0,0.0,0.0,0.0,0.0,0.0,0.0,0.0,0.0,0.0,0.0,0.0,0.0,0.0,0.0,0.0,0.0,3.7668,3.8702,3.8078,3.8241,3.82,3.7614,3.7514,3.6923,3.545,3.5797,3.6002,3.573,3.5868,3.5882,3.564,3.5588,3.555,3.555,3.4739,3.3851,3.2982,3.2171,3.1311,3.0472,3.0521,3.0542,3.0529,3.0598,3.0645,3.0664,3.0621,3.0599,3.0594,3.0598,3.0574,3.0503,3.0399,3.0269,3.0147,3.0308,3.0259,3.0158,3.0289,3.0259,3.0158,3.0335,3.0432,3.0501,3.0503,3.0589,3.0501,2.9679,2.8862,2.8022,2.7109,2.623,2.5563,2.5483,2.5486,2.5492,2.5481,2.5324,2.5183,2.512,2.522,2.5228,2.5049,2.4767,2.4265,2.3424,2.3028,2.2704,2.2349,2.1294,2.0487,2.0188,1.881,1.7706,1.7231,1.6871,1.6682,1.6681,1.7875,1.8848,1.9411,2.0456,2.0497,1.9397,1.8308,1.8013,0.0,0.0,0.0,0.0,0.0,0.0,0.0,0.0,0.0,0.0,0.0,0.0,0.0,0.0,0.0,0.0,0.0,0.0,0.0,0.0,0.0,0.0,3.8944,3.9859,3.9293,3.9365,3.9179,3.8341,3.7893,3.7102,3.5723,3.5636,3.5638,3.5631,3.5588,3.5507,3.5393,3.5355,3.532,3.532,3.484,3.4213,3.3449,3.2622,3.1775,3.0948,3.0637,3.0498,3.0507,3.0568,3.0628,3.0665,3.0615,3.0613,3.0662,3.0624,3.0602,3.0599,0.0,0.0,0.0,0.0,3.0536,3.0436,3.0568,3.0516,3.0431,3.0559,3.0606,3.0593,3.0598,3.0625,3.0486,2.9646,2.8839,2.8003,2.7082,2.622,2.5547,2.5463,2.5465,2.5428,2.5313,2.5168,2.5026,2.4866,2.4757,0.0,2.441,2.4284,2.3986,2.3305,2.3045,2.2764,2.2349,2.172,2.1133,2.0631,1.9827,1.9157,1.8795,1.8667,0.0,0.0,0.0,2.0696,2.0977,2.1636,0.0,0.0,0.0,0.0,0.0,0.0,0.0,0.0,2.1805,2.1635,0.0,0.0,0.0,0.0,0.0,0.0,0.0,0.0,0.0,0.0,0.0,0.0,0.0,0.0,0.0,0.0,3.9758,4.0752,4.0539,4.0045,3.9341,3.8377,3.7556,3.6667,3.5626,3.5527,3.5476,3.5412,3.5417,3.5304,3.507,3.5051,0.0,0.0,0.0,3.4754,3.4126,3.3344,3.257,3.1789,3.0972,3.0617,3.0635,3.0598,3.0581,3.0587,3.0587,3.0594,3.0606,3.0606,3.0606,3.0589,3.0593,3.0594,3.0594,3.0594,3.0594,3.0594,3.0594,0.0,0.0,3.0605,3.0604,3.0599,3.0604,3.0606,3.0425,2.9543,2.8785,2.8012,2.7043,2.6212,2.5593,2.5391,2.5348,2.528,2.5027,2.4962,2.4858,2.4559,2.4478,2.441,2.4228,2.4321,2.4118,2.3328,2.3165,2.294,2.2377,2.231,2.1911,2.0898,2.1049,0.0,2.0245,2.0407,2.0806,2.1422,2.1845,2.218,2.244,2.2383,2.2073,2.147,2.2047,2.2247,2.2021,2.2845,2.3392,2.3542,2.2364,2.2007,0.0,0.0,0.0,0.0,0.0,0.0,0.0,0.0,0.0,0.0,0.0,0.0,0.0,0.0,0.0,4.0087,4.0968,4.1343,4.06,4.041,3.9758,3.8234,3.7723,3.6872,3.535,3.4994,3.487,3.487,3.4851,3.4832,3.4774,3.4793,3.4793,3.4793,3.4793,3.4396,3.3563,3.3393,3.2971,3.2348,3.1537,0.0,3.1438,3.0747,3.0472,3.0513,3.0513,3.0559,3.0606,3.0606,3.0606,3.0592,3.0603,3.0599,3.0599,3.0599,3.0599,3.0599,3.0599,3.0599,3.0595,3.0594,3.0604,3.0599,3.0592,3.0606,0.0,2.9543,2.9193,2.8715,2.7128,2.6583,2.6235,2.531,2.5072,2.5027,2.4864,2.4712,2.4591,2.4512,2.4375,2.4247,2.4209,2.3998,2.3717,2.3259,2.2972,2.2678,2.2349,2.231,2.2215,2.2006,2.1522,2.1207,2.1305,2.0998,2.1105,2.1767,2.3028,2.3999,2.4587,2.4542,2.4233,2.3694,2.3822,2.3732,2.3397,2.359,2.384,2.4133,2.3456,2.3383,0.0,0.0,0.0,0.0,0.0,0.0,0.0,0.0,0.0,0.0,0.0,3.7654,3.8959,0.0,3.9832,4.0112,4.0593,4.0747,4.012,4.0043,3.9624,3.8544,3.794,3.7032,3.5647,3.502,3.4694,3.4694,3.4694,3.4632,3.4445,3.4445,3.4445,3.4445,3.4445,3.4323,3.4051,3.3617,3.3242,3.2937,3.2241,3.197,3.2091,3.1783,3.1445,3.1099,3.1099,3.0859,3.049,3.049,3.049,3.049,3.049,3.0545,3.0606,3.0606,3.0606,3.0606,3.0606,3.0606,3.06,3.0554,3.0559,3.0552,3.0516,3.049,3.0384,2.9805,2.9361,2.8819,2.7807,2.6948,2.6319,2.6138,2.5484,2.4964,2.5196,2.5178,2.5075,2.4968,2.5206,2.5401,2.5401,2.479,2.4055,2.3307,2.2923,2.2599,2.2321,2.231,2.2349,2.2535,2.2201,2.2133,2.2599,2.2756,2.303,2.3461,2.4321,2.4922,2.5187,2.5143,2.4927,2.46,2.4587,2.4528,2.4356,2.4356,2.449,2.4732,2.449,2.4425,0.0,0.0,0.0,0.0,0.0,0.0,0.0,3.7492,3.7887,3.8801,3.9112,3.945,4.0345,4.0364,4.0169,3.9891,4.0065,4.0091,3.9664,3.9599,3.9422,3.8911,3.8155,3.724,3.6155,3.5412,3.494,3.4771,3.4771,3.4566,3.4165,3.4123,3.4123,3.4123,3.4123,3.4242,3.4526,3.3829,3.3513,3.3556,3.2901,3.2627,3.2678,3.2718,3.2401,3.1774,3.1774,3.1295,3.049,3.049,3.0414,3.0273,3.0273,3.0332,3.0444,3.054,3.0554,3.0547,3.0494,3.0486,3.0471,3.0376,3.0344,3.0323,3.0273,3.0273,3.0215,2.9984,2.9478,2.8882,2.8501,2.7436,2.6572,2.7031,2.6164,2.5327,2.5782,2.5876,2.5838,2.5662,2.6093,2.649,2.649,2.562,2.4575,2.359,2.301,2.2599,2.2321,2.231,2.2405,2.2677,2.2704,2.2972,2.3631,2.4337,2.4834,2.5032,2.5234,2.5312,2.5247,2.5183,2.5099,2.4989,2.4981,2.4981,2.4981,2.4981,2.5064,2.5213,2.5213,2.5131,3.7812,3.8068,3.8507,3.9916,3.9731,3.9805,0.0,4.1693,4.1116,4.1995,4.1339,4.0849,4.1723,4.1293,4.0802,4.0759,4.0802,4.0537,3.9693,3.9599,3.9467,3.9107,3.8371,3.7542,3.6684,3.6313,3.5791,3.5036,3.4981,3.4641,3.3879,3.3842,3.3842,3.3842,3.3842,3.3868,3.3895,3.3802,3.3864,3.4097,3.3314,3.3053,3.326,3.2543,3.2147,3.2052,3.2052,3.158,3.0842,3.0842,3.0407,2.9782,2.9782,2.9796,2.9839,3.0273,3.0417,3.0394,3.0151,3.0079,3.0051,2.9858,2.9796,2.9796,2.9782,2.9782,2.9782,2.9748,2.9672,2.941,2.8602,2.8282,2.793,2.7121,2.6786,2.6637,2.6512,2.6507,2.6486,2.6465,2.6245,2.6056,2.6056,2.5472,2.4811,2.4332,2.336,2.2599,2.2321,2.231,2.231,2.2349,2.2563,2.2972,2.3631,2.421,2.4622,2.482,2.5024,2.5201,2.5373,2.5379,2.533,2.5269,2.5269,2.5269,2.5269,2.5269,2.527,2.529,2.529,2.5342,3.9423,4.0257,4.0785,4.1393,4.1985,4.2513,4.2899,4.2896,4.2831,4.3009,4.2114,4.1368,4.175,4.0739,3.9806,3.9649,3.9746,3.9668,3.9156,3.9091,3.9036,3.8884,3.8559,3.8042,3.7248,3.6628,3.6156,3.5789,3.5771,3.5605,3.5275,3.5238,3.5018,3.4523,3.4504,3.4284,3.3807,3.3807,3.3868,3.3961,3.3764,3.3761,3.3855,3.3688,3.3354,3.2825,3.2316,3.1921,3.16,3.16,3.1393,3.1092,3.1092,3.1092,3.1015,3.0273,2.9992,2.9977,2.9861,2.9829,2.9813,2.9731,2.9696,2.9696,2.9696,2.9696,2.9678,2.9551,2.9532,2.9419,2.8888,2.8402,2.8066,2.8107,2.7403,2.6829,2.7221,2.7291,2.7291,2.7291,2.7331,2.7403,2.7403,2.6435,2.5646,2.5467,2.4102,2.314,2.323,2.2801,2.2695,2.3074,2.3387,2.3738,2.4136,2.4373,2.4604,2.4788,2.4953,2.5101,2.5221,2.5335,2.5405,2.5417,2.5417,2.5417,2.5417,2.5417,2.5417,2.5417,2.5417,2.5451,4.0398,4.1325,4.1871,4.247,4.3407,4.4006,4.3369,4.3545,4.378,4.3551,4.2585,4.1783,4.1783,4.0632,3.9589,3.9381,3.9335,3.9238,3.905,3.8836,3.8707,3.8707,3.8707,3.856,3.8193,3.7422,3.6872,3.6652,3.6615,3.6523,3.6303,3.6303,3.6009,3.5385,3.5367,3.4963,3.4137,3.4137,3.4027,3.3788,3.4012,3.4074,3.4117,3.433,3.4102,3.3481,3.2844,3.2451,3.2246,3.2246,3.2115,3.1909,3.1909,3.1909,3.1759,3.06,3.0265,3.0338,3.0302,3.0133,2.9945,2.9851,2.9682,2.9495,2.9495,2.9495,2.9475,2.9332,2.9289,2.9246,2.9044,2.8576,2.8282,2.8847,2.8095,2.7398,2.7858,2.7963,2.7939,2.7851,2.7972,2.8112,2.8112,2.7116,2.6354,2.6354,2.5012,2.4007,2.4076,2.3446,2.3193,2.3646,2.3917,2.4153,2.441,2.4428,2.4512,2.47,2.4809,2.4911,2.5007,2.5168,2.5269,2.5356,2.5356,2.5389,2.5447,2.5447,2.5447,2.5447,2.5447,2.5447,4.0575,4.0529,4.0857,4.3338,4.3647,4.3548,4.4341,4.4261,4.399,4.396,4.3074,4.2301,4.2301,4.1589,4.1038,4.1038,4.0377,3.9877,3.9845,3.9184,3.8707,3.8707,3.8707,3.9001,3.9753,3.9093,3.8303,3.7514,3.7441,3.711,3.634,3.6303,3.6285,3.6266,3.6266,3.5844,3.4954,3.4954,3.4578,3.3807,3.3807,3.3815,3.3815,3.3815,3.3797,3.3778,3.376,3.3319,3.2585,3.2585,3.2125,3.1409,3.1409,3.1409,3.1409,3.1379,3.1656,3.2014,3.1808,3.1238,3.0544,3.0272,2.9664,2.9021,2.9021,2.9021,2.9017,2.8998,2.9017,2.9017,2.9017,2.8975,2.8957,2.8975,2.8957,2.8832,2.846,2.8384,2.828,2.7974,2.7572,2.7317,2.7317,2.697,2.6691,2.6691,2.6015,2.527,2.4574,2.4133,2.3815,2.37,2.3714,2.3837,2.419,2.4209,2.4303,2.4495,2.4512,2.4607,2.4785,2.4799,2.4877,2.5003,2.5034,2.5122,2.5322,2.5322,2.5322,2.5322,2.5322,2.5322,4.0185,4.1341,4.2525,4.3327,4.3861,4.4188,4.4205,4.4106,4.3924,4.3726,4.2938,4.2139,4.1607,4.1295,4.0946,4.0396,4.0065,3.99,3.99,3.9662,3.9496,3.9496,3.9974,4.0414,4.0671,3.9496,3.9038,3.9827,3.8909,3.8414,3.867,3.8175,3.7643,3.7092,3.7092,3.6688,3.5881,3.5862,3.5734,3.5459,3.5459,3.5165,3.4614,3.4614,3.4302,3.3807,3.3807,3.3642,3.3403,3.3403,3.3238,3.2981,3.2981,3.2981,3.2981,3.2981,3.3091,3.3056,3.193,3.137,3.1125,3.1048,3.0448,2.9806,2.9806,2.9806,2.9806,2.9806,2.9806,2.9806,2.9806,2.9402,2.8994,2.8994,2.8994,2.8905,2.8489,2.8394,2.8316,2.7982,2.7577,2.7303,2.7303,2.6971,2.6791,2.7051,2.6662,2.6045,2.5255,2.5465,2.5479,2.4892,2.4821,2.4661,2.4245,2.419,2.4228,2.4303,2.4428,2.4528,2.4591,2.4731,2.4814,2.4869,2.4869,2.491,2.4981,2.4981,2.4981,2.4981,2.4981,2.5253,3.9831,4.1121,4.244,4.2972,4.3296,4.3478,4.3527,4.3382,4.3191,4.3213,4.2575,4.188,4.1592,4.1534,4.1368,4.0836,4.0763,4.0763,4.0763,4.0506,4.0322,4.0322,4.0799,4.1222,4.1515,4.0341,3.9992,4.1038,4.0157,3.9662,3.9882,3.9405,3.8762,3.7936,3.7918,3.7533,3.6725,3.6725,3.6578,3.6303,3.6303,3.6009,3.5477,3.5477,3.5018,3.4229,3.4229,3.4082,3.3807,3.3807,3.3807,3.3807,3.3807,3.3807,3.3807,3.3807,3.3807,3.3642,3.2614,3.2063,3.1825,3.1825,3.1274,3.0632,3.0632,3.0632,3.0632,3.0632,3.0632,3.0632,3.0632,3.0149,2.9624,2.9624,2.9504,2.9286,2.8895,2.8792,2.8676,2.8369,2.8071,2.7822,2.7547,2.7061,2.6791,2.7051,2.6978,2.6715,2.6177,2.6301,2.6289,2.5876,2.5704,2.546,2.5107,2.5052,2.5052,2.5052,2.5189,2.5264,2.5264,2.5089,2.5188,2.5533,2.5271,2.5299,2.5661,2.5661,2.5661,2.5661,2.5661,2.5944,3.9552,3.9956,4.0754,4.2318,4.2054,4.1663,4.2474,4.2244,4.2021,4.2577,4.2044,4.1687,4.2219,4.2323,4.2359,4.2304,4.2304,4.2304,4.2304,4.1644,4.1167,4.1167,4.1203,4.1534,4.2286,4.168,4.124,4.124,4.1167,4.0781,4.0047,3.9974,3.9588,3.8799,3.8762,3.8377,3.7551,3.7551,3.7165,3.6413,3.6413,3.6395,3.6358,3.6358,3.5899,3.5064,3.5064,3.4633,3.3935,3.3935,3.3935,3.3917,3.388,3.3862,3.3862,3.3825,3.3807,3.3807,3.3807,3.3311,3.2669,3.2669,3.2118,3.1458,3.1458,3.1458,3.1458,3.1458,3.1458,3.1458,3.1458,3.1119,3.0782,3.0754,3.0428,2.998,2.9589,2.9488,2.9403,2.9066,2.9011,2.8755,2.801,2.7283,2.681,2.6843,2.7139,2.7337,2.7223,2.6627,2.6317,2.6571,2.6286,2.6181,2.6508,2.6551,2.6573,2.6573,2.6591,2.6612,2.6612,2.586,2.5907,2.686,2.6117,2.6206,2.718,2.718,2.718,2.718,2.718,2.7198,3.9216,4.0161,4.1232,4.1649,4.1713,4.1772,4.1985,4.2262,4.2519,4.2655,4.285,4.2827,4.2362,4.2782,4.3002,4.2396,4.2304,4.2304,4.2304,4.2121,4.1992,4.1992,4.2525,4.2965,4.3167,4.3002,4.2892,4.2892,4.1791,4.1277,4.1662,4.113,4.0432,3.9625,3.9588,3.9203,3.8395,3.8395,3.8285,3.8083,3.8083,3.7771,3.7184,3.7184,3.6743,3.5973,3.5973,3.5844,3.5661,3.5661,3.5661,3.5605,3.4963,3.4679,3.4633,3.4027,3.3807,3.3807,3.3807,3.3678,3.3495,3.3495,3.2963,3.2302,3.2302,3.2302,3.2302,3.2302,3.2302,3.225,3.1919,3.1317,3.0697,3.0368,3.0185,2.998,2.9589,2.9488,2.9403,2.9066,2.9011,2.8924,2.8721,2.8535,2.8489,2.8767,2.8665,2.8253,2.7407,2.7589,2.7522,2.6746,2.6817,2.659,2.5843,2.6027,2.6168,2.6168,2.6428,2.6612,2.6612,2.641,2.6395,2.6659,2.6475,2.6497,2.6742,2.6742,2.6742,2.6742,2.6742,2.7075,3.8907,3.986,4.1046,4.1046,4.0961,4.0955,4.1314,4.1664,4.1979,4.2262,4.2463,4.2521,4.2344,4.2671,4.2818,4.2378,4.2598,4.2818,4.2818,4.2818,4.2818,4.2818,4.3222,4.3497,4.3497,4.3497,4.3497,4.3497,4.2653,4.2194,4.2286,4.1882,4.1258,4.0451,4.0432,4.0047,3.9239,3.9239,3.9056,3.8707,3.8707,3.8469,3.8028,3.8028,3.7588,3.6817,3.6817,3.6615,3.6303,3.6303,3.6303,3.6248,3.5771,3.5587,3.5532,3.5055,3.489,3.489,3.489,3.4651,3.4284,3.3917,3.3495,3.3128,3.3128,3.3003,3.2894,3.3075,3.3003,3.2793,3.2593,3.2044,3.1431,3.0949,3.0698,3.0525,3.0276,3.0257,3.0185,3.0014,2.9685,2.9482,2.9482,2.9194,2.9066,2.9229,2.9121,2.8778,2.8117,2.8105,2.8024,2.7734,2.7419,2.7057,2.6596,2.6721,2.6834,2.6834,2.7194,2.7378,2.7378,2.7226,2.7291,2.7658,2.731,2.731,2.7658,2.7658,2.7658,2.7658,2.7658,2.7915,3.8738,3.9382,4.033,4.033,3.9964,3.9829,4.0607,4.0886,4.1178,4.181,4.1791,4.1833,4.2365,4.2451,4.2451,4.2451,4.3039,4.3497,4.3497,4.3497,4.3497,4.3497,4.3497,4.3497,4.3497,4.3497,4.3497,4.3497,4.3497,4.3185,4.2506,4.2451,4.2084,4.1295,4.1167,4.0763,4.0065,3.9937,3.9551,3.8854,3.8762,3.8707,3.8707,3.8707,3.8322,3.7643,3.7643,3.7257,3.6615,3.6615,3.6615,3.6615,3.6486,3.645,3.645,3.634,3.6303,3.6303,3.6303,3.5807,3.5027,3.4229,3.3899,3.3788,3.3734,3.3494,3.3273,3.355,3.339,3.3075,3.3045,3.2713,3.2282,3.1825,3.1449,3.119,3.119,3.119,3.119,3.119,3.0683,3.026,3.026,2.9719,2.9279,2.9279,2.9279,2.9279,2.9279,2.8537,2.822,2.8759,2.801,2.7531,2.7725,2.7783,2.7811,2.7811,2.8139,2.8324,2.8324,2.7985,2.815,2.8839,2.821,2.8215,2.8929,2.8975,2.8994,2.8994,2.8994,2.8994,3.9115,3.9103,3.8942,3.8942,3.8975,3.9187,3.9867,4.0863,4.181,4.244,4.2849,4.3155,4.3277,4.3277,4.3277,4.3277,4.3406,4.3497,4.3497,4.3497,4.3497,4.3497,4.3497,4.3497,4.3497,4.3497,4.3497,4.3497,4.3497,4.3424,4.3296,4.3277,4.291,4.2121,4.146,4.1038,4.0891,4.023,3.9827,3.968,3.9019,3.8707,3.8707,3.8707,3.8615,3.8487,3.8487,3.8414,3.8285,3.8285,3.8285,3.823,3.7533,3.7276,3.7202,3.6541,3.6303,3.6303,3.6303,3.6193,3.5936,3.5073,3.4357,3.3734,3.339,3.3243,3.3136,3.2809,3.2681,3.255,3.2127,3.1986,3.1825,3.1411,3.1252,3.119,3.119,3.119,3.119,3.119,3.1089,3.1004,3.1004,3.0903,3.0801,3.0801,3.0801,3.0801,3.0801,2.9879,2.8905,2.8101,2.813,2.7868,2.699,2.7192,2.7409,2.7409,2.7765,2.801,2.801,2.7923,2.795,2.8093,2.8242,2.8352,2.8496,2.8839,2.8994,2.8994,2.8994,2.8994,3.8631,3.867,3.8735,3.8735,3.8825,3.9143,4.0165,4.1126,4.1979,4.2577,4.3142,4.3497,4.3497,4.3497,4.3497,4.3497,4.3497,4.3644,4.4066,4.3754,4.3644,4.4066,4.3754,4.3497,4.3497,4.3497,4.3497,4.3497,4.3497,4.3497,4.3497,4.3497,4.3314,4.2928,4.2543,4.2158,4.1735,4.135,4.0726,3.99,3.9515,3.9111,3.8707,3.8707,3.8707,3.8707,3.8707,3.8707,3.8707,3.8707,3.8707,3.867,3.8267,3.812,3.8065,3.7698,3.7551,3.7551,3.7551,3.7089,3.6448,3.603,3.5203,3.4257,3.3459,3.3014,3.2777,3.255,3.2298,3.2092,3.1861,3.1789,3.18,3.1766,3.207,3.2341,3.2341,3.2341,3.2341,3.2341,3.2341,3.2222,3.1833,3.1749,3.163,3.1258,3.119,3.119,3.119,3.0721,3.0026,2.9093,2.8815,2.8493,2.7944,2.8066,2.8202,2.8202,2.8514,2.8543,2.8189,2.8364,2.8304,2.7897,2.8237,2.8394,2.8394,2.8797,2.8994,2.8994,2.8791,2.8682,3.828,3.821,3.8453,3.8635,3.8767,3.9199,4.0535,4.1455,4.2162,4.277,4.3214,4.3497,4.3497,4.3497,4.3497,4.3497,4.3497,4.3773,4.4599,4.4158,4.4066,4.4874,4.425,4.3754,4.3754,4.3589,4.3497,4.3497,4.3497,4.3497,4.3497,4.3497,4.3497,4.3497,4.3497,4.3185,4.2561,4.2396,4.1662,4.0396,4.023,3.9827,3.9221,3.9038,3.8964,3.8946,3.8781,3.8707,3.8707,3.8707,3.8707,3.8707,3.8707,3.8707,3.8707,3.8707,3.8707,3.8658,3.8578,3.7816,3.6922,3.664,3.5796,3.4745,3.3714,3.3131,3.2809,3.2704,3.2298,3.1935,3.209,3.2021,3.2015,3.2462,3.2983,3.3406,3.3406,3.3406,3.3406,3.3406,3.3406,3.322,3.2628,3.2391,3.2087,3.1512,3.1292,3.119,3.119,3.119,3.097,3.0395,2.9668,2.9161,2.8991,2.9011,2.9011,2.9011,2.9246,2.9042,2.8285,2.8572,2.8438,2.7783,2.8112,2.8342,2.8394,2.8797,2.8994,2.8994,2.859,2.8394,3.8628,3.7825,3.6964,3.7748,3.8284,3.8983,4.0311,4.1669,4.277,4.3321,4.3463,4.3497,4.3497,4.3497,4.3497,4.3497,4.3497,4.3773,4.4599,4.4654,4.4892,4.5681,4.5076,4.4599,4.4599,4.392,4.3497,4.3497,4.3497,4.3497,4.3497,4.3497,4.3497,4.3497,4.3497,4.3442,4.3387,4.2671,4.2231,4.2066,4.135,4.0965,4.0855,4.012,3.979,3.9753,3.9019,3.8707,3.8707,3.8707,3.8707,3.8707,3.8707,3.8707,3.8707,3.8707,3.8707,3.8627,3.815,3.7891,3.759,3.6381,3.5421,3.4641,3.4167,3.3977,3.3861,3.3417,3.2819,3.2405,3.31,3.2761,3.2439,3.3119,3.3355,3.3406,3.3406,3.3406,3.3406,3.3406,3.3406,3.3389,3.3322,3.273,3.2256,3.2188,3.1613,3.119,3.119,3.119,3.1173,3.1106,3.0446,2.9736,2.9042,2.9011,2.9011,2.9011,2.9047,2.8691,2.7893,2.7877,2.7741,2.7365,2.7736,2.8102,2.8394,2.8797,2.8994,2.8994,2.859,2.8394,3.8293,3.779,3.7397,3.769,3.8575,3.9665,4.1021,4.205,4.2864,4.341,4.3497,4.3497,4.3497,4.3497,4.3497,4.3497,4.3497,4.3773,4.4599,4.4709,4.5002,4.5792,4.5626,4.5241,4.4764,4.4415,4.4011,4.3534,4.3497,4.3497,4.3497,4.3497,4.3497,4.3497,4.3497,4.3497,4.3497,4.3167,4.2782,4.2304,4.1992,4.1589,4.1111,4.0781,4.0616,4.0579,3.9772,3.9423,3.9386,3.8909,3.8707,3.8707,3.8707,3.8707,3.8658,3.835,3.8216,3.815,3.7649,3.7285,3.6929,3.6379,3.5763,3.5122,3.4306,3.4086,3.4007,3.3515,3.3186,3.3034,3.3322,3.3508,3.3694,3.3981,3.4404,3.4742,3.4742,3.4742,3.4742,3.4742,3.4742,3.459,3.4134,3.3812,3.3305,3.2408,3.2036,3.1681,3.1258,3.119,3.119,3.119,3.0937,3.0632,3.0345,3.0311,3.0311,3.0311,3.0311,2.9973,2.9228,2.9194,2.8691,2.7606,2.7996,2.8062,2.7747,2.8342,2.8894,2.9348,2.8479,2.8352,3.8197,3.7978,3.7921,3.8309,3.9237,4.0401,4.1775,4.2501,4.305,4.341,4.3497,4.3497,4.3497,4.3497,4.3497,4.3497,4.3497,4.3846,4.4911,4.5057,4.5443,4.6489,4.6397,4.603,4.548,4.4984,4.4378,4.3552,4.3497,4.3497,4.3497,4.3497,4.3497,4.3497,4.3497,4.3497,4.3497,4.3497,4.3222,4.2653,4.2653,4.2359,4.1809,4.157,4.146,4.1423,4.0598,4.012,3.9845,3.9294,3.8909,3.8707,3.8707,3.8707,3.8627,3.8099,3.7893,3.7825,3.7173,3.6724,3.6374,3.6224,3.5898,3.5464,3.4761,3.4558,3.4477,3.4134,3.4066,3.4015,3.3778,3.4269,3.4827,3.4827,3.5233,3.5622,3.5622,3.5622,3.5622,3.5622,3.5622,3.5453,3.4912,3.4641,3.4134,3.3102,3.256,3.2087,3.1579,3.1326,3.119,3.119,3.119,3.119,3.119,3.119,3.119,3.119,3.119,3.0869,3.0142,3.0108,2.9417,2.8015,2.8268,2.8265,2.7964,2.8506,2.9178,2.9936,2.8991,2.8752,3.8656,3.8358,3.8117,3.9461,4.0206,4.0961,4.2386,4.3105,4.3479,4.3497,4.3497,4.3497,4.3497,4.3497,4.3497,4.3497,4.3497,4.4048,4.5663,4.5883,4.6489,4.8086,4.759,4.7095,4.7095,4.5645,4.4378,4.3552,4.3497,4.3497,4.3497,4.3497,4.3497,4.3497,4.3497,4.3497,4.3497,4.3497,4.3497,4.3479,4.3479,4.3461,4.3442,4.2653,4.2286,4.2249,4.1442,4.0653,3.99,3.9882,3.9423,3.8707,3.8707,3.8707,3.8627,3.8099,3.7893,3.7755,3.6764,3.6416,3.6291,3.5783,3.5622,3.5622,3.5605,3.5588,3.5588,3.5588,3.5605,3.5419,3.4675,3.5047,3.5605,3.5605,3.556,3.5622,3.5622,3.5622,3.5622,3.5622,3.5622,3.5622,3.5605,3.4979,3.4489,3.4472,3.322,3.2313,3.2313,3.1647,3.119,3.119,3.119,3.119,3.119,3.119,3.119,3.119,3.119,3.0869,3.0142,3.0108,2.9547,2.8416,2.8414,2.8789,2.9575,2.9583,3.0008,3.0782,3.038,2.9754,3.871,3.8745,3.8767,3.9564,4.0625,4.1619,4.2501,4.3124,4.3497,4.3497,4.3497,4.3497,4.3497,4.3497,4.3846,4.4947,4.5131,4.5516,4.6581,4.77,4.8177,4.7572,4.7278,4.6893,4.6342,4.5333,4.4378,4.3552,4.3497,4.3497,4.3497,4.3497,4.3497,4.3497,4.3497,4.3497,4.3497,4.3497,4.3497,4.3497,4.3497,4.3497,4.3479,4.3222,4.3112,4.3075,4.2268,4.1772,4.1497,4.0946,4.0249,3.9515,3.9515,3.9184,3.8627,3.8099,3.7685,3.7323,3.6643,3.6182,3.5827,3.5667,3.5622,3.5622,3.5622,3.5622,3.5622,3.5622,3.5622,3.5571,3.5318,3.5453,3.5622,3.5622,3.5622,3.5622,3.5622,3.5622,3.5622,3.5622,3.5622,3.5622,3.5622,3.5419,3.5081,3.4573,3.41,3.3423,3.2408,3.2087,3.1749,3.1241,3.119,3.119,3.119,3.119,3.119,3.119,3.119,3.1089,3.0869,3.0852,3.0455,2.9564,2.9547,2.9452,2.9193,2.9403,2.9653,2.9934,3.0344,3.0007,3.9116,3.9368,3.9508,4.0067,4.1018,4.1937,4.2577,4.3124,4.3497,4.3497,4.3497,4.3497,4.3497,4.3497,4.3828,4.4819,4.5241,4.5828,4.6966,4.8269,4.8838,4.8141,4.7755,4.7131,4.6012,4.5461,4.469,4.3571,4.3497,4.3497,4.3497,4.3497,4.3497,4.3497,4.3497,4.3497,4.3497,4.3497,4.3497,4.3497,4.3497,4.3497,4.3497,4.3497,4.3497,4.3461,4.2965,4.258,0.0,4.1772,4.1093,4.0359,4.0359,3.9863,3.9067,3.8328,3.77,3.7097,3.6374,3.5898,3.5622,3.5622,3.5622,3.5622,3.5622,3.5622,3.5622,3.5622,3.5622,3.5622,3.5622,3.5622,3.5622,3.5622,3.5622,3.5622,3.5622,3.5622,3.5622,3.5622,3.5622,3.5622,3.5622,3.5622,3.5453,3.4979,3.4675,3.415,3.3237,3.2628,3.2104,3.1647,3.136,3.119,3.119,3.119,3.119,3.119,3.119,3.119,3.119,3.119,3.0852,3.0125,3.0108,2.9966,2.9621,3.0109,3.0387,3.0387,3.0747,3.0492,0.0,4.007,4.0254,4.0827,4.1402,4.1979,4.2616,4.3142,0.0,4.3497,4.3497,4.3516,4.3552,4.3534,4.3552,4.3791,4.4415,4.5443,4.7058,4.7884,4.8618,4.9423,4.882,4.7664,4.6012,4.5847,4.5223,4.3608,4.3444,4.3444,4.3444,4.3444,4.3444,4.3444,4.3479,4.3497,4.3497,4.3497,4.3497,4.3497,4.3497,4.3497,4.3497,4.3497,4.3497,4.3497,4.3497,4.3075,4.2396,4.2396,4.1919,4.1203,4.1203,4.0657,3.9808,3.8795,3.7972,3.7122,3.6045,3.5656,3.569,3.5639,3.5622,3.5622,3.5622,3.5622,3.5622,3.5622,3.5622,3.5622,3.5622,3.5622,3.5622,3.5622,3.5622,3.5622,3.5622,3.5622,3.5622,3.5622,3.5622,3.5622,3.5622,3.5622,3.5622,3.5622,3.503,3.4556,3.4506,3.3288,3.2466,3.2357,3.1765,3.136,3.136,3.1258,3.119,3.119,3.119,3.119,3.119,3.119,3.0869,3.0192,3.0192,3.035,3.0733,3.1407,3.1752,3.1752,3.1372,3.119,4.002,0.0,4.0336,4.1331,4.1725,4.2062,0.0,4.341,4.3497,4.3497,4.3497,4.3681,4.4305,4.3901,4.4305,4.6764,4.6819,4.7131,4.8765,4.86,4.8425,4.8781,4.8528,4.7492,4.5403,4.5643,4.5223,4.3608,4.3142,4.2902,4.2902,4.2902,4.2902,4.2902,4.3304,4.3497,4.3497,4.3497,4.3497,4.3497,4.3497,4.3497,4.3497,4.3497,4.3497,4.3497,4.3497,4.3387,4.3222,4.3222,4.2745,4.2029,4.2029,4.1225,4.004,3.9229,3.8631,3.8069,3.6688,3.6334,3.6417,3.5808,3.5622,3.5622,3.5622,3.5622,3.5622,3.5622,3.5622,3.5622,3.5622,3.5622,3.5622,3.5622,3.5622,3.5622,3.5622,3.5622,3.5622,3.5622,3.5622,3.5622,3.5622,3.5622,3.5622,3.5622,3.547,3.5148,3.4573,3.4184,3.3761,3.3203,3.2983,3.2882,3.2882,3.185,3.119,3.119,3.119,3.119,3.119,3.119,3.1123,3.0937,3.0937,3.0997,3.1079,3.1266,3.1351,3.1351,3.1252,3.119,4.0363,4.0449,4.0625,4.1223,4.1793,4.2364,4.3014,4.3321,4.3497,4.3497,4.3497,4.3626,4.4066,4.4103,4.4617,4.6379,4.6911,4.77,4.9352,4.9187,4.8824,4.8627,4.8119,4.7051,4.5188,4.522,4.4711,4.3233,4.2864,4.2577,4.2302,4.2559,4.2711,4.2711,4.3214,4.3497,4.3497,4.3497,4.3497,4.3497,4.3497,4.3497,4.3497,4.3497,4.3497,4.3497,4.3497,4.3497,4.3479,4.325,4.2887,4.2468,4.2194,4.1369,4.0328,3.9669,3.9076,3.8442,3.7435,3.72,3.7178,3.64,3.6146,3.6079,3.5723,3.5622,3.5622,3.5622,3.5622,3.5622,3.5622,3.5622,3.5622,3.5622,3.5622,3.5622,3.5622,3.5622,3.5622,3.5622,3.5622,3.5622,3.5622,3.5622,3.5622,3.5622,3.5622,3.547,3.5064,3.4709,3.4336,3.3947,3.3609,3.3406,3.3406,3.2679,3.207,3.1715,3.1376,3.119,3.119,3.119,3.119,3.119,3.119,3.119,3.119,3.119,3.119,3.119,3.119,3.119,4.0732,4.1198,4.1383,4.1241,4.1937,4.2711,4.2808,4.3178,4.3497,4.3497,4.3497,4.3571,4.3809,4.4415,4.5021,4.5388,4.6599,4.7937,4.9273,4.9423,4.9135,4.8351,4.7565,4.6537,4.5152,4.4837,4.4127,4.2804,4.2616,4.2342,4.1853,4.2302,4.2616,4.2711,4.3214,4.3497,4.3497,4.3497,4.3497,4.3497,4.3497,4.3497,4.3497,4.3497,4.3463,4.3375,4.3375,4.3321,4.3196,4.277,4.2559,4.2519,4.1979,4.1319,4.0567,4.0008,3.9375,3.8773,3.8265,3.799,3.7804,3.7161,3.6874,3.6654,3.5994,3.5723,3.5639,3.5757,3.5791,3.5774,3.5656,3.5707,3.5774,3.5639,3.5622,3.5622,3.5622,3.5723,3.5757,3.5639,3.5723,3.5757,3.5639,3.5622,3.5622,3.5622,3.5622,3.5622,3.5622,3.5064,3.4675,3.4675,3.4117,3.3744,3.3744,3.3643,3.3305,3.2703,3.1833,3.1309,3.119,3.119,3.119,3.119,3.119,3.119,3.119,3.119,3.119,3.119,3.119,3.119,4.0974,4.2446,4.3633,4.2667,4.2559,4.2826,4.325,4.3444,4.3497,4.3497,4.3497,4.392,4.5278,4.5626,4.6397,4.8489,4.904,4.9102,4.881,4.8616,4.8079,4.6888,4.6939,4.6537,4.5152,4.4837,4.4127,4.2804,4.2221,4.1895,4.1793,4.1895,4.2162,4.2693,4.3214,4.3497,4.3497,4.3497,4.3497,4.3497,4.3497,4.3497,4.3497,4.3497,4.325,4.2826,4.2826,4.2541,4.2044,4.1979,4.1937,4.1937,4.1853,4.142,4.0798,4.0065,3.9834,3.978,3.9088,3.8413,3.7889,3.777,3.7297,3.6755,3.6637,3.6146,3.5757,3.6417,3.6603,3.6451,3.5791,3.6113,3.6434,3.5774,3.5622,3.5622,3.5622,3.6146,3.64,3.574,3.6146,3.64,3.574,3.5622,3.5622,3.5622,3.5622,3.5622,3.5622,3.552,3.5453,3.5453,3.5351,3.5284,3.5284,3.4692,3.4269,3.4167,3.2865,3.1833,3.1224,3.119,3.119,3.119,3.119,3.119,3.119,3.119,3.119,3.119,3.119,3.119,4.145,4.3033,4.4475,4.44,4.474,4.4962,4.4513,4.4772,4.5072,4.4853,4.48,4.5021,4.5755,4.6617,4.7865,4.9921,4.9569,4.8932,4.8638,4.7829,4.6955,4.6014,4.5659,4.5192,4.4517,4.3938,4.3376,4.2729,4.244,4.2162,4.181,4.181,4.1937,4.2203,4.2444,4.26,4.26,4.26,4.2903,4.3497,4.3497,4.3497,4.3479,4.3214,4.2939,4.2655,4.2342,4.208,4.175,4.1446,4.1313,4.1268,4.0984,4.072,4.0414,4.0072,4.0046,4.002,3.9698,3.936,3.9005,3.8616,3.8261,3.7905,3.7516,3.7144,3.6924,3.7297,3.7094,3.6789,3.684,3.7127,3.7297,3.6941,3.6552,3.6366,3.6772,3.6823,3.6789,3.6857,3.7144,3.728,3.6924,3.6857,3.6721,3.6315,3.6248,3.6096,3.5673,3.5622,3.5622,3.5622,3.5622,3.5622,3.5622,3.5301,3.4759,3.3964,3.3271,3.2747,3.2408,3.2002,3.1782,3.1782,3.1782,3.1596,3.119,3.1596,3.1579,3.119,3.119,3.119,4.1841,4.3474,4.5111,4.5621,4.6152,4.6364,4.5787,4.6085,4.6392,4.6096,4.6103,4.6177,4.6177,4.7517,4.9095,5.0563,4.9562,4.855,4.8398,4.7226,4.6121,4.5354,4.4541,4.3996,4.3819,4.2965,4.248,4.248,4.248,4.2342,4.2021,4.2021,4.2021,4.2021,4.2021,4.1937,4.181,4.181,4.2226,4.3105,4.3105,4.3105,4.3105,4.2675,4.24,4.2244,4.181,4.1534,4.1375,4.092,4.0685,4.0655,4.0237,4.007,4.007,4.007,4.007,4.007,4.007,4.007,3.9986,3.9428,3.914,3.8886,3.8328,3.8041,3.7939,3.8108,3.7736,3.7398,3.7804,3.8041,3.8125,3.7939,3.7466,3.7195,3.7787,3.7584,3.7415,3.7821,3.8041,3.8108,3.7939,3.7905,3.7719,3.7127,3.6891,3.6569,3.596,3.574,3.5622,3.5622,3.5622,3.5622,3.5622,3.5622,3.5131,3.3998,3.3761,3.3592,3.3406,3.2848,3.2544,3.2544,3.2544,3.2273,3.1715,3.2273,3.2171,3.1444,3.1444,3.136,4.1983,4.4085,4.6094,4.5707,4.5189,4.5172,4.6617,4.666,4.6424,4.6456,4.6757,4.7021,4.7021,4.8379,4.9774,5.0655,4.9562,4.8398,4.7826,4.6991,4.5927,4.4607,4.4255,4.3828,4.3146,4.2331,4.1853,4.1853,4.1853,4.208,4.2616,4.2616,4.2616,4.2616,4.2616,4.2342,4.181,4.181,4.1835,4.1919,4.1919,4.1919,4.1937,4.1895,4.1578,4.1041,4.0995,4.0655,4.0204,4.0171,4.0171,4.0171,4.0138,4.007,4.007,4.007,4.007,4.007,4.007,4.007,4.007,4.002,3.9546,3.8988,3.8937,3.8447,3.8041,3.8717,3.887,3.87,3.8075,3.8413,3.8751,3.8075,3.7872,3.7838,3.7889,3.8396,3.865,3.8024,3.8447,3.87,3.8024,3.7905,3.7889,3.7838,3.7229,3.6755,3.6705,3.6062,3.5622,3.5622,3.5622,3.5622,3.5622,3.5622,3.5571,3.547,3.481,3.4117,3.344,3.3355,3.3322,3.3322,3.3322,3.3305,3.3254,3.3305,3.2933,3.2205,3.2205,3.1833,4.1761,4.383,4.5937,4.576,4.5514,4.5628,4.6787,4.7503,4.8032,4.8382,4.855,4.8655,4.8655,4.915,4.9848,5.0674,4.9242,4.7968,4.7748,4.5852,4.4336,4.3833,4.2894,4.2313,4.2445,4.174,4.1402,4.175,4.181,4.1895,4.2121,4.2121,4.2121,4.2121,4.2121,4.2021,4.181,4.1446,4.1223,4.1251,4.1621,4.181,4.181,4.1402,4.1133,4.0856,4.0528,4.0286,4.007,4.007,4.007,4.007,4.007,4.007,4.007,4.007,4.007,4.007,4.007,4.007,4.007,4.007,3.9884,3.9665,3.9665,3.9478,3.9326,3.9597,3.9665,3.9597,3.9326,3.9462,3.9597,3.9326,3.892,3.87,3.9157,3.9123,3.9039,3.9225,3.9478,3.958,3.9309,3.9259,3.9106,3.865,3.8345,3.7821,3.6907,3.6518,3.6146,3.5673,3.5622,3.5622,3.5622,3.5622,3.5622,3.5622,3.5351,3.5064,3.4793,3.4336,3.4083,3.4083,3.4083,3.3863,3.3406,3.3863,3.3694,3.2983,3.2983,3.2831,4.1903,4.3652,4.5477,4.5749,4.5697,4.5895,4.6974,4.7884,4.8683,4.9252,4.9266,4.9187,4.9187,4.9032,4.9076,4.9642,4.8199,4.6931,4.6685,4.4785,4.325,4.2777,4.1813,4.1257,4.1467,4.0982,4.0874,4.149,4.1534,4.1578,4.181,4.181,4.1707,4.1534,4.1534,4.1446,4.1241,4.0844,4.0655,4.0655,4.1059,4.1241,4.1241,4.0844,4.0655,4.0607,4.0237,4.007,4.007,4.007,4.007,4.007,4.007,4.007,4.007,4.007,4.007,4.007,4.007,4.007,4.007,4.007,4.007,4.007,4.007,4.007,4.007,4.007,4.007,4.007,4.007,4.007,4.007,4.007,3.9698,3.9478,3.9969,3.9681,3.9478,3.9986,4.007,4.007,4.007,4.007,3.9918,3.9411,3.914,3.8633,3.7601,3.7077,3.6485,3.5707,3.5622,3.5622,3.5622,3.5622,3.5622,3.5622,3.5622,3.5622,3.5622,3.5131,3.4844,3.4844,3.4844,3.4607,3.4117,3.4607,3.4472,3.3744,3.3744,3.3626,4.2592,4.3671,4.4787,4.559,4.5498,4.5642,4.7318,4.7694,4.7932,4.8747,4.8586,4.8324,4.8306,4.7797,4.7385,4.7385,4.6353,4.5217,4.4505,4.3835,4.2861,4.1373,4.1204,4.0899,4.0155,4.007,4.0336,4.0856,4.0903,4.1133,4.175,4.181,4.1534,4.0903,4.0903,4.0655,4.0121,4.0121,4.0121,4.0121,4.0121,4.007,4.007,4.007,4.007,4.007,4.007,4.007,4.007,4.007,4.007,4.007,4.007,4.007,4.007,4.007,4.007,4.007,4.007,4.007,4.007,4.007,4.007,4.007,4.007,4.007,4.007,4.007,4.007,4.007,4.007,4.007,4.007,4.007,4.007,4.007,4.007,4.007,4.007,4.007,4.007,4.007,4.007,4.007,4.007,4.007,3.9462,3.9005,3.8988,3.7702,3.6485,3.5723,3.5639,3.5622,3.5622,3.5622,3.5622,3.5622,3.5622,3.5622,3.5622,3.5622,3.5622,3.5622,3.5622,3.5622,3.5622,3.5622,3.5233,3.4506,3.4506,3.4117,4.2373,4.3541,4.4749,4.4957,4.5337,4.5987,4.7021,4.7703,4.8347,4.9214,4.9303,4.9022,4.8416,4.7797,4.7385,4.7385,4.5894,4.4661,4.4435,4.2929,4.1694,4.1255,4.073,4.0324,4.0104,4.007,4.0171,4.0336,4.0336,4.0417,4.0594,4.0967,4.1087,4.0903,4.1313,4.1464,4.1286,4.0874,4.0655,4.0655,4.0286,4.007,4.007,4.007,4.007,4.007,4.007,4.007,4.007,4.007,4.007,4.007,4.007,4.007,4.007,4.007,4.007,4.007,4.007,4.007,4.007,4.007,4.007,4.007,4.007,4.007,4.007,4.007,4.007,4.007,4.007,4.007,4.007,4.007,4.007,4.007,4.007,4.007,4.007,4.007,4.007,4.007,4.007,4.007,4.007,4.007,3.9884,3.958,3.9056,3.8159,3.728,3.6518,3.6434,3.6214,3.5673,3.5622,3.5622,3.5622,3.5622,3.5622,3.5622,3.5622,3.5622,3.5622,3.5622,3.5622,3.5622,3.5622,3.5504,3.5284,3.5284,3.5165,4.3075,4.3975,4.4856,4.5498,4.603,4.6599,4.7407,4.7957,4.8453,4.8967,4.8882,4.8557,4.8028,4.7237,4.6635,4.6635,4.5187,4.3924,4.3615,4.2176,4.1085,4.0798,4.0358,4.007,4.007,4.007,4.007,4.007,4.007,4.007,4.007,4.0417,4.0577,4.0577,4.0938,4.1105,4.1105,4.075,4.0577,4.0577,4.0237,4.007,4.007,4.007,4.007,4.007,4.007,4.007,4.007,4.007,4.007,4.007,4.007,4.007,4.007,4.007,4.007,4.007,4.007,4.007,4.007,4.007,4.007,4.007,4.007,4.007,4.007,4.007,4.007,4.007,4.007,4.007,4.007,4.007,4.007,4.007,4.007,4.007,4.007,4.007,4.007,4.007,4.007,4.007,4.007,4.007,4.007,3.9817,3.9089,3.8616,3.8058,3.7313,3.7229,3.7043,3.6569,3.6535,3.64,3.6096,3.6079,3.5943,3.5639,3.5622,3.5622,3.5622,3.5622,3.5622,3.5622,3.5622,3.5622,3.5622,3.5622,3.5622,4.4287,4.4709,4.5094,4.6709,4.7186,4.7407,4.8141,4.8267,4.821,4.821,4.7797,4.7385,4.7342,4.6305,4.5494,4.5407,4.4228,4.3047,4.2286,4.1559,4.0849,4.0155,4.007,4.007,4.007,4.007,4.007,4.007,4.007,4.007,4.007,4.007,4.007,4.007,4.007,4.007,4.007,4.007,4.007,4.007,4.007,4.007,4.007,4.007,4.007,4.007,4.007,4.007,4.007,4.007,4.007,4.007,4.007,4.007,4.007,4.007,4.007,4.007,4.007,4.007,4.007,4.007,4.007,4.007,4.007,4.007,4.007,4.007,4.007,4.007,4.007,4.007,4.007,4.007,4.007,4.007,4.007,4.007,4.007,4.007,4.007,4.007,4.007,4.007,4.007,4.007,4.007,3.9834,3.9174,3.9089,3.8819,3.8091,3.8007,3.7973,3.7922,3.7905,3.7618,3.6924,3.6823,3.6468,3.5757,3.5656,3.5622,3.5622,3.5622,3.5622,3.5622,3.5622,3.5622,3.5622,3.5622,3.5622,4.4433,4.4709,4.5094,4.6709,4.759,4.8104,4.8269,4.7937,4.7572,4.7572,4.7488,4.7237,4.671,4.6014,4.5303,4.4748,4.3442,4.2286,4.1542,4.0798,4.0257,4.0104,4.007,4.007,4.007,4.007,4.007,4.007,4.007,4.007,4.007,4.007,4.007,4.007,4.007,4.007,4.007,4.007,4.007,4.007,4.007,4.007,4.007,4.007,4.007,4.007,4.007,4.007,4.007,4.007,4.007,4.007,4.007,4.007,4.007,4.007,4.007,4.007,4.007,4.007,4.007,4.007,4.007,4.007,4.007,4.007,4.007,4.007,4.007,4.007,4.007,4.007,4.007,4.007,4.007,4.007,4.007,4.007,4.007,4.007,4.007,4.007,4.007,4.007,4.007,4.007,4.007,4.002,3.9868,3.9834,3.9563,3.8836,3.8751,3.8531,3.7956,3.7905,3.7838,3.7669,3.711,3.6705,3.6535,3.5943,3.5622,3.5622,3.5622,3.5622,3.5622,3.5622,3.5622,3.5622,3.5622,3.5622,4.4947,4.5278,4.5572,4.6916,4.7547,4.7797,4.7452,4.7132,4.6864,4.6542,4.6495,4.6295,4.5572,4.4939,4.423,4.3511,4.2482,4.1644,4.1255,4.0561,4.007,4.007,4.007,4.007,4.007,4.007,4.007,4.007,4.007,4.007,4.007,4.007,4.007,4.007,4.007,4.007,4.007,4.007,4.007,4.007,4.007,4.007,4.007,4.007,4.007,4.007,4.007,4.007,4.007,4.007,4.007,4.007,4.007,4.007,4.007,4.007,4.007,4.007,4.007,4.007,4.007,4.007,4.007,4.007,4.007,4.007,4.007,4.007,4.007,4.007,4.007,4.007,4.007,4.007,4.007,4.007,4.007,4.007,4.007,4.007,4.007,4.007,4.007,4.007,4.007,4.007,4.007,4.007,4.007,4.007,3.9935,3.9546,3.9512,3.936,3.8988,3.8937,3.8802,3.8447,3.7736,3.7161,3.6789,3.6028,3.5622,3.5622,3.5622,3.5622,3.5622,3.5622,3.5622,3.5622,3.5622,3.5622,4.5169,4.5662,4.6018,4.6981,4.7237,4.7088,4.6524,4.6336,4.6094,4.5597,4.5511,4.5217,4.4405,4.3782,4.3132,4.2252,4.1593,4.117,4.1035,4.046,4.007,4.007,4.007,4.007,4.007,4.007,4.007,4.007,4.007,4.007,4.007,4.007,4.007,4.007,4.007,4.007,4.007,4.007,4.007,4.007,4.007,4.007,4.007,4.007,4.007,4.007,4.007,4.007,4.007,4.007,4.007,4.007,4.007,4.007,4.007,4.007,4.007,4.007,4.007,4.007,4.007,4.007,4.007,4.007,4.007,4.007,4.007,4.007,4.007,4.007,4.007,4.007,4.007,4.007,4.007,4.007,4.007,4.007,4.007,4.007,4.007,4.007,4.007,4.007,4.007,4.007,4.007,4.007,4.007,4.007,4.007,4.007,4.007,4.007,4.007,4.007,3.9817,3.9225,3.8497,3.7753,3.7009,3.6231,3.5757,3.5622,3.5622,3.5622,3.5622,3.5622,3.5622,3.5622,3.5622,3.5622,4.4028,4.4761,4.5543,4.634,4.6524,4.6524,4.643,4.6014,4.5597,4.5511,4.5511,4.5079,4.3793,4.3457,4.2963,4.1576,4.1271,4.0984,4.0324,4.0138,4.007,4.007,4.007,4.007,4.007,4.007,4.007,4.007,4.007,4.007,4.007,4.007,4.007,4.007,4.007,4.007,4.007,4.007,4.007,4.007,4.007,4.007,4.007,4.007,4.007,4.007,4.007,4.007,4.007,4.007,4.007,4.007,4.007,4.007,4.007,4.007,4.007,4.007,4.007,4.007,4.007,4.007,4.007,4.007,4.007,4.007,4.007,4.007,4.007,4.007,4.007,4.007,4.007,4.007,4.007,4.007,4.007,4.007,4.007,4.007,4.007,4.007,4.007,4.007,4.007,4.007,4.007,4.007,4.007,4.007,4.007,4.007,4.007,4.007,4.007,4.007,4.0037,3.9935,3.9242,3.8514,3.7787,3.7026,3.6315,3.5639,3.5622,3.5622,3.5622,3.5622,3.5622,3.5622,3.5622,3.5622,4.3829,4.4636,4.5393,4.5821,4.5915,4.5833,4.5459,4.5178,4.4998,4.4998,4.4998,4.4667,4.361,4.3064,4.2439,4.1373,4.0849,4.046,4.0121,4.007,4.007,4.007,4.007,4.007,4.007,4.007,4.007,4.007,4.007,4.007,4.007,4.007,4.007,4.007,4.007,4.007,4.007,4.007,4.007,4.007,4.007,4.007,4.007,4.007,4.007,4.007,4.007,4.007,4.007,4.007,4.007,4.007,4.007,4.007,4.007,4.007,4.007,4.007,4.007,4.007,4.007,4.007,4.007,4.007,4.007,4.007,4.007,4.007,4.007,4.007,4.007,4.007,4.007,4.007,4.007,4.007,4.007,4.007,4.007,4.007,4.007,4.007,4.007,4.007,4.007,4.007,4.007,4.007,4.007,4.007,4.007,4.007,4.007,4.007,4.007,4.007,4.007,4.007,3.9394,3.8853,3.8531,3.7398,3.662,3.6282,3.5842,3.5622,3.5622,3.5622,3.5622,3.5622,3.5622,3.5622,4.3385,4.4056,4.4607,4.4872,4.5129,4.5125,4.472,4.4587,4.4587,4.4587,4.4587,4.4401,4.3826,4.3098,4.2286,4.1356,4.073,4.029,4.0104,4.007,4.007,4.007,4.007,4.007,4.007,4.007,4.007,4.007,4.007,4.007,4.007,4.007,4.007,4.007,4.007,4.007,4.007,4.007,4.007,4.007,4.007,4.007,4.007,4.007,4.007,4.007,4.007,4.007,4.007,4.007,4.007,4.007,4.007,4.007,4.007,4.007,4.007,4.007,4.007,4.007,4.007,4.007,4.007,4.007,4.007,4.007,4.007,4.007,4.007,4.007,4.007,4.007,4.007,4.007,4.007,4.007,4.007,4.007,4.007,4.007,4.007,4.007,4.007,4.007,4.007,4.007,4.007,4.007,4.007,4.007,4.007,4.007,4.007,4.007,4.007,4.007,4.007,4.007,3.9563,3.9191,3.9005,3.7922,3.7161,3.6789,3.6214,3.5808,3.5622,3.5622,3.5622,3.5622,3.5622,3.5622,4.2131,4.2311,4.263,4.3322,4.4067,4.4626,4.4626,4.4587,4.4587,4.4587,4.4587,4.457,4.4536,4.3876,4.2895,4.1441,4.117,4.0899,4.0172,4.007,4.007,4.007,4.007,4.007,4.007,4.007,4.007,4.007,4.007,4.007,4.007,4.007,4.007,4.007,4.007,4.007,4.007,4.007,4.007,4.007,4.007,4.007,4.007,4.007,4.007,4.007,4.007,4.007,4.007,4.007,4.007,4.007,4.007,4.007,4.007,4.007,4.007,4.007,4.007,4.007,4.007,4.007,4.007,4.007,4.007,4.007,4.007,4.007,4.007,4.007,4.007,4.007,4.007,4.007,4.007,4.007,4.007,4.007,4.007,4.007,4.007,4.007,4.007,4.007,4.007,4.007,4.007,4.007,4.007,4.007,4.007,4.007,4.007,4.007,4.007,4.007,4.007,4.007,4.0037,3.9715,3.9022,3.892,3.821,3.6806,3.6738,3.6349,3.5622,3.5622,3.5622,3.5622,3.5622,3.5622,4.1319,4.1545,4.1779,4.2506,4.3267,4.3826,4.3826,4.4215,4.4587,4.4587,4.4587,4.4587,4.4587,4.3944,4.325,4.2709,4.183,4.1119,4.0832,4.0392,4.007,4.007,4.007,4.007,4.007,4.007,4.007,4.007,4.007,4.007,4.007,4.007,4.007,4.007,4.007,4.007,4.007,4.007,4.007,4.007,4.007,4.007,4.007,4.007,4.007,4.007,4.007,4.007,4.007,4.007,4.007,4.007,4.007,4.007,4.007,4.007,4.007,4.007,4.007,4.007,4.007,4.007,4.007,4.007,4.007,4.007,4.007,4.007,4.007,4.007,4.007,4.007,4.007,4.007,4.007,4.007,4.007,4.007,4.007,4.007,4.007,4.007,4.007,4.007,4.007,4.007,4.007,4.007,4.007,4.007,4.007,4.007,4.007,4.007,4.007,4.007,4.007,4.007,4.007,3.9969,3.9698,3.9242,3.8734,3.821,3.7736,3.6891,3.5622,3.5622,3.5622,3.5622,3.5622,3.5622,4.0356,4.0832,4.139,4.2117,4.2675,4.3183,4.369,4.4012,4.4265,4.4519,4.4587,4.4587,4.4587,4.4147,4.3724,4.3453,4.2591,4.1779,4.1271,4.0781,4.0358,4.0104,4.007,4.007,4.007,4.007,4.007,4.007,4.007,4.007,4.007,4.007,4.007,4.007,4.007,4.007,4.007,4.007,4.007,4.007,4.007,4.007,4.007,4.007,4.007,4.007,4.007,4.007,4.007,4.007,4.007,4.007,4.007,4.007,4.007,4.007,4.007,4.007,4.007,4.007,4.007,4.007,4.007,4.007,4.007,4.007,4.007,4.007,4.007,4.007,4.007,4.007,4.007,4.007,4.007,4.007,4.007,4.007,4.007,4.007,4.007,4.007,4.007,4.007,4.007,4.007,4.007,4.007,4.007,4.007,4.007,4.007,4.007,4.007,4.007,4.007,4.007,4.007,4.007,4.007,4.007,3.9614,3.9242,3.8988,3.8514,3.7652,3.6383,3.6129,3.5876,3.5622,3.5622,3.5622,0.0,0.0,0.0,4.2049,4.2236,4.2658,4.4164,4.3927,4.3606,4.4418,4.4553,4.4553,4.4587,4.4587,4.4333,4.3572,4.3436,4.2912,4.1474,4.1238,4.0933,4.0206,4.0087,4.007,4.007,4.007,4.007,4.007,4.007,4.007,4.007,4.007,4.007,4.007,4.007,4.007,4.007,4.007,4.007,4.007,4.007,4.007,4.007,4.007,4.007,4.007,4.007,4.007,4.007,4.007,4.007,4.007,4.007,4.007,4.007,4.007,4.007,4.007,4.007,4.007,4.007,4.007,4.007,4.007,4.007,4.007,4.007,4.007,4.007,4.007,4.007,4.007,4.007,4.007,4.007,4.007,4.007,4.007,4.007,4.007,4.007,4.007,4.007,4.007,4.007,4.007,4.007,4.007,4.007,4.007,4.007,4.007,4.007,4.007,4.007,4.007,4.007,4.007,4.007,4.007,4.007,4.007,3.9749,3.9039,3.9022,3.8667,3.7939,3.7178,3.6417,3.5656,3.5639,3.5622,3.8901,0.0,0.0,0.0,0.0,0.0,4.2709,4.276,4.298,4.4299,4.413,4.391,4.4468,4.4587,4.4502,4.4282,4.3792,4.3284,4.2861,4.188,4.1119,4.0916,4.0409,4.007,4.007,4.007,4.007,4.007,4.007,4.007,4.007,4.007,4.007,4.007,4.007,4.007,4.007,4.007,4.007,4.007,4.007,4.007,4.007,4.007,4.007,4.007,4.007,4.007,4.007,4.007,4.007,4.007,4.007,4.007,4.007,4.007,4.007,4.007,4.007,4.007,4.007,4.007,4.007,4.007,4.007,4.007,4.007,4.007,4.007,4.007,4.007,4.007,4.007,4.007,4.007,4.007,4.007,4.007,4.007,4.007,4.007,4.007,4.007,4.007,4.007,4.007,4.007,4.007,4.007,4.007,4.007,4.007,4.007,4.007,4.007,4.007,4.007,4.007,4.007,4.007,4.007,4.007,3.9986,3.9783,3.9783,3.9411,3.8684,3.7956,3.7212,3.6451,3.5876,3.5622,3.9204,3.9693,4.0155,4.046,0.0,0.0,4.2455,4.2523,4.2726,4.4265,4.4215,4.4045,4.4485,4.4587,4.4587,4.4587,4.4198,4.3792,4.347,4.2675,4.2016,4.1694,4.1001,4.0544,4.0544,4.0257,4.007,4.007,4.007,4.007,4.007,4.007,4.007,4.007,4.007,4.007,4.007,4.007,4.007,4.007,4.007,4.007,4.007,4.007,4.007,4.007,4.007,4.007,4.007,4.007,4.007,4.007,4.007,4.007,4.007,4.007,4.007,4.007,4.007,4.007,4.007,4.007,4.007,4.007,4.007,4.007,4.007,4.007,4.007,4.007,4.007,4.007,4.007,4.007,4.007,4.007,4.007,4.007,4.007,4.007,4.007,4.007,4.007,4.007,4.007,4.007,4.007,4.007,4.007,4.007,4.007,4.007,4.007,4.007,4.007,4.007,4.007,4.007,4.007,4.007,4.007,4.007,4.007,4.007,4.007,3.9868,3.9445,3.8717,3.7821,3.6772,3.6315,3.5926,3.9839,3.998,4.0324,4.0916,4.0646,0.0,4.2726,4.2658,4.2574,4.4028,4.4265,4.4231,4.4316,4.4401,4.4418,4.4333,4.4468,4.4333,4.3639,4.347,4.3166,4.2489,4.1779,4.1322,4.1322,4.0713,4.029,4.0206,4.0121,4.007,4.007,4.007,4.007,4.007,4.007,4.007,4.007,4.007,4.007,4.007,4.007,4.007,4.007,4.007,4.007,4.007,4.007,4.007,4.007,4.007,4.007,4.007,4.007,4.007,4.007,4.007,4.007,4.007,4.007,4.007,4.007,4.007,4.007,4.007,4.007,4.007,4.007,4.007,4.007,4.007,4.007,4.007,4.007,4.007,4.007,4.007,4.007,4.007,4.007,4.007,4.007,4.007,4.007,4.007,4.007,4.007,4.007,4.007,4.007,4.007,4.007,4.007,4.007,4.007,4.007,4.007,4.007,4.007,4.007,4.007,4.007,4.007,4.007,4.007,4.007,4.007,4.007,3.9343,3.8278,3.6907,3.6823,3.6366,3.9929,4.0291,4.0741,4.0391,4.0646,0.0,4.1542,4.1525,4.1677,4.2557,4.2269,4.2033,4.2625,4.3234,4.3436,4.2844,4.3775,4.4536,4.4367,4.3809,4.3369,4.3217,4.254,4.2083,4.2083,4.1948,4.161,4.1035,4.0426,4.007,4.007,4.007,4.007,4.007,4.007,4.007,4.007,4.007,4.007,4.007,4.007,4.007,4.007,4.007,4.007,4.007,4.007,4.007,4.007,4.007,4.007,4.007,4.007,4.007,4.007,4.007,4.007,4.007,4.007,4.007,4.007,4.007,4.007,4.007,4.007,4.007,4.007,4.007,4.007,4.007,4.007,4.007,4.007,4.007,4.007,4.007,4.007,4.007,4.007,4.007,4.007,4.007,4.007,4.007,4.007,4.007,4.007,4.007,4.007,4.007,4.007,4.007,4.007,4.007,4.007,4.007,4.007,4.007,4.007,4.007,4.007,4.007,4.007,4.007,4.007,4.007,4.007,3.9343,3.8548,3.7669,3.706,3.6366,4.053,4.0444,4.0585,4.0646,4.0646,0.0,0.0,4.1457,4.1508,4.2625,4.2252,4.1965,4.2709,4.2861,4.2861,4.2861,4.3504,4.3995,4.3995,4.3995,4.3995,4.3995,4.3318,4.2861,4.2861,4.2523,4.2151,4.1779,4.139,4.1187,4.1187,4.0832,4.0646,4.0646,4.0273,4.007,4.007,4.007,4.007,4.007,4.007,4.007,4.007,4.007,4.007,4.007,4.007,4.007,4.007,4.007,4.007,4.007,4.007,4.007,4.007,4.007,4.007,4.007,4.007,4.007,4.007,4.007,4.007,4.007,4.007,4.007,4.007,4.007,4.007,4.007,4.007,4.007,4.007,4.007,4.007,4.007,4.007,4.007,4.007,4.007,4.007,4.007,4.007,4.007,4.007,4.007,4.007,4.007,4.007,4.007,4.007,4.007,4.007,4.007,4.007,4.007,4.007,4.007,4.007,4.007,4.007,4.007,4.007,4.007,4.007,4.007,4.007,3.9715,3.9157,3.843,3.7686,3.6941,4.1087,4.0577,4.039,4.1002,4.0731,4.0612,0.0,0.0,0.0,4.2557,4.2286,4.2049,4.2658,4.2388,4.2236,4.2692,4.3014,4.3149,4.3014,4.3656,4.4198,4.4333,4.3927,4.3639,4.3639,4.2811,4.2354,4.2489,4.2252,4.2151,4.2286,4.1728,4.1407,4.1407,4.0679,4.029,4.029,4.0155,4.007,4.007,4.007,4.007,4.007,4.007,4.007,4.007,4.007,4.007,4.007,4.007,4.007,4.007,4.007,4.007,4.007,4.007,4.007,4.007,4.007,4.007,4.007,4.007,4.007,4.007,4.007,4.007,4.007,4.007,4.007,4.007,4.007,4.007,4.007,4.007,4.007,4.007,4.007,4.007,4.007,4.007,4.007,4.007,4.007,4.007,4.007,4.007,4.007,4.007,4.007,4.007,4.007,4.007,4.007,4.007,4.007,4.007,4.007,4.007,4.007,4.007,4.007,4.007,4.007,4.007,4.007,4.007,4.007,4.007,3.9698,3.8988,3.8396,3.7635,4.1223,4.0874,4.0844,4.0931,4.103,4.107,4.1064,0.0,4.1068,4.0561,0.0,4.0358,4.0443,0.0,0.0,4.0561,4.1559,4.2202,4.1542,4.2083,4.2794,4.347,4.4079,4.4451,4.4451,4.3132,4.2574,4.325,4.2066,4.161,4.2252,4.2219,4.2168,4.2168,4.1457,4.1085,4.1085,4.0409,4.007,4.007,4.007,4.007,4.007,4.007,4.007,4.007,4.007,4.007,4.007,4.007,4.007,4.007,4.007,4.007,4.007,4.007,4.007,4.007,4.007,4.007,4.007,4.007,4.007,4.007,4.007,4.007,4.007,4.007,4.007,4.007,4.007,4.007,4.007,4.007,4.007,4.007,4.007,4.007,4.007,4.007,4.007,4.007,4.007,4.007,4.007,4.007,4.007,4.007,4.007,4.007,4.007,4.007,4.007,4.007,4.007,4.007,4.007,4.007,4.007,4.007,4.007,4.007,4.007,4.007,4.007,4.007,4.007,4.007,3.9698,3.8988,3.8903,3.8125,4.1664,4.1402,4.1463,4.1586,4.1288,4.1043,4.1081,4.0798,4.0595,4.0696,0.0,0.0,0.0,0.0,0.0,0.0,4.1255,4.1542,4.1238,4.183,4.2405,4.2726,4.3047,4.342,4.3859,4.3318,4.3267,4.4045,4.3098,4.2828,4.3572,4.3183,4.2946,4.2946,4.2219,4.1627,4.1204,4.0882,4.051,4.007,4.007,4.007,4.007,4.007,4.007,4.007,4.007,4.007,4.007,4.007,4.007,4.007,4.007,4.007,4.007,4.007,4.007,4.007,4.007,4.007,4.007,4.007,4.007,4.007,4.007,4.007,4.007,4.007,4.007,4.007,4.007,4.007,4.007,4.007,4.007,4.007,4.007,4.007,4.007,4.007,4.007,4.007,4.007,4.007,4.007,4.007,4.007,4.007,4.007,4.007,4.007,4.007,4.007,4.007,4.007,4.007,4.007,4.007,4.007,4.007,4.007,4.007,4.007,4.007,4.007,4.007,4.007,4.007,3.9918,3.9614,3.9191,3.8667,4.1979,4.181,4.1823,4.1974,4.1429,4.0918,4.1067,4.0595,4.024,4.0781,4.046,0.0,0.0,0.0,4.0257,4.0798,0.0,4.0899,4.0899,4.1356,4.1762,4.1965,4.2354,4.2895,4.3673,4.3352,4.3521,4.4502,4.3673,4.3538,4.4536,4.4045,4.3741,4.3741,4.2997,4.2337,4.1813,4.1407,4.0933,4.0392,4.0172,4.007,4.007,4.007,4.007,4.007,4.007,4.007,4.007,4.007,4.007,4.007,4.007,4.007,4.007,4.007,4.007,4.007,4.007,4.007,4.007,4.007,4.007,4.007,4.007,4.007,4.007,4.007,4.007,4.007,4.007,4.007,4.007,4.007,4.007,4.007,4.007,4.007,4.007,4.007,4.007,4.007,4.007,4.007,4.007,4.007,4.007,4.007,4.007,4.007,4.007,4.007,4.007,4.007,4.007,4.007,4.007,4.007,4.007,4.007,4.007,4.007,4.007,4.007,4.007,4.007,4.007,4.007,4.007,4.007,3.9529,3.9191,4.1979,4.181,4.181,4.1803,4.1331,4.0903,4.0891,4.0514,4.0087,4.0104,4.0104,4.0087,4.0104,4.0104,4.0087,0.0,4.0121,0.0,0.0,4.0138,4.0426,4.1153,4.2506,4.369,4.4468,4.32,4.2946,4.4468,4.3183,4.2997,4.4502,4.4553,4.4536,4.4536,4.3792,4.3369,4.3352,4.1914,4.1187,4.117,4.0426,4.007,4.007,4.007,4.007,4.007,4.007,4.007,4.007,4.007,4.007,4.007,4.007,4.007,4.007,4.007,4.007,4.007,4.007,4.007,4.007,4.007,4.007,4.007,4.007,4.007,4.007,4.007,4.007,4.007,4.007,4.007,4.007,4.007,4.007,4.007,4.007,4.007,4.007,4.007,4.007,4.007,4.007,4.007,4.007,4.007,4.007,4.007,4.007,4.007,4.007,4.007,4.007,4.007,4.007,4.007,4.007,4.007,4.007,4.007,4.007,4.007,4.007,4.007,4.007,4.007,4.007,4.007,4.007,4.007,4.0054,3.9665,4.2977,4.294,4.2865,4.2462,4.1937,4.1402,4.0995,4.0497,4.007,4.007,4.007,4.007,4.007,4.007,4.007,0.0,4.007,4.007,0.0,4.007,4.0358,4.1119,4.2066,4.2591,4.2371,4.232,4.2889,4.4354,4.3528,4.38,4.5695,4.5783,4.5597,4.5232,4.4921,4.4348,4.342,4.2929,4.2185,4.1204,4.095,4.0561,4.007,4.007,4.007,4.007,4.007,4.007,4.007,4.007,4.007,4.0121,4.0497,4.0417,4.007,4.007,4.007,4.007,4.007,4.007,4.007,4.007,4.007,4.007,4.007,4.007,4.007,4.007,4.007,4.007,4.007,4.007,4.007,4.007,4.007,4.007,4.007,4.007,4.007,4.007,4.007,4.007,4.007,4.007,4.007,4.007,4.007,4.007,4.007,4.007,4.007,4.007,4.007,4.007,4.007,4.007,4.007,4.007,4.007,4.007,4.007,4.007,4.007,4.007,4.007,4.007,4.007,4.007,4.007,4.007,4.007,3.9952,4.3497,4.3497,4.3321,4.2559,4.208,4.1578,4.0797,4.0319,4.007,4.007,4.007,4.0171,4.0319,4.0254,4.0171,0.0,0.0,4.007,0.0,4.007,4.0257,4.0747,4.1457,4.2019,4.2296,4.2262,4.3048,4.4995,4.417,4.4401,4.6295,4.6192,4.5915,4.5494,4.5267,4.4759,4.3842,4.3555,4.2794,4.1593,4.1339,4.0798,4.007,4.007,4.007,4.007,4.007,4.007,4.007,4.007,4.007,4.0121,4.0497,4.0417,4.0121,4.0336,4.0237,4.007,4.007,4.007,4.007,4.007,4.007,4.007,4.007,4.007,4.007,4.007,4.007,4.007,4.007,4.007,4.007,4.007,4.007,4.007,4.007,4.007,4.007,4.007,4.007,4.0171,4.0368,4.0368,4.0336,4.0121,4.007,4.007,4.007,4.007,4.007,4.007,4.007,4.007,4.007,4.007,4.007,4.007,4.007,4.007,4.007,4.007,4.007,4.007,4.007,4.007,4.007,4.007,4.007,4.007,4.007,4.007]}]]